[[{"header":{"parameterUnit":"m.s-1","parameterCategory":1,"la1":30.6,"la2":29.2853,"lo1":-89.7004,"lo2":-87.6739,"dy":0.0162,"dx":0.0183,"nx":112,"ny":82,"refTime":"2026-02-19T00:00:00:Z","depth":0,"parameterNumber":2,"parameterNumberName":"U-component_of_WINDS"},"data":[0.0,0.0,0.0,0.0,0.0,0.0,0.0,0.0,0.0,0.0,0.0,0.0,0.0,0.0,0.0,0.0,0.0,0.0,0.0,0.0,0.0,0.0,0.0,0.0,0.0,0.0,0.0,0.0,0.0,0.0,0.0,0.0,0.0,0.0,0.0,0.0,0.0,0.0,0.0,0.0,0.0,0.0,0.0,0.0,0.0,0.0,0.0,0.0,0.0,0.0,0.0,0.0,0.0,0.0,0.0,0.0,0.0,0.0,0.0,0.0,0.0,0.0,0.0,0.0,0.0,0.0,0.0,0.0,0.0,0.0,0.0,0.0,0.0,0.0,0.0,0.0,0.0,0.0,0.0,0.0,0.0,0.0,0.0,0.0,0.0,0.0,0.0,0.0,0.0,0.0,0.0,5.1169,6.1463,6.7956,6.7956,6.649,6.0655,4.9164,0.0,0.0,0.0,0.0,0.0,0.0,0.0,0.0,0.0,0.0,0.0,0.0,0.0,0.0,0.0,0.0,0.0,0.0,0.0,0.0,0.0,0.0,0.0,0.0,0.0,0.0,0.0,0.0,0.0,0.0,0.0,0.0,0.0,0.0,0.0,0.0,0.0,0.0,0.0,0.0,0.0,0.0,0.0,0.0,0.0,0.0,0.0,0.0,0.0,0.0,0.0,0.0,0.0,0.0,0.0,0.0,0.0,0.0,0.0,0.0,0.0,0.0,0.0,0.0,0.0,0.0,0.0,0.0,0.0,0.0,0.0,0.0,0.0,0.0,0.0,0.0,0.0,0.0,0.0,0.0,0.0,0.0,0.0,0.0,0.0,0.0,0.0,0.0,0.0,0.0,0.0,0.0,0.0,0.0,0.0,0.0,0.0,0.0,0.0,0.0,0.0,0.0,0.0,0.0,4.8446,6.1253,6.5832,6.7956,6.7956,6.5233,5.9398,4.9733,0.0,0.0,0.0,0.0,0.0,0.0,0.0,0.0,0.0,0.0,0.0,0.0,0.0,0.0,0.0,0.0,0.0,0.0,0.0,0.0,0.0,0.0,0.0,0.0,0.0,0.0,0.0,0.0,0.0,0.0,0.0,0.0,0.0,0.0,0.0,0.0,0.0,0.0,0.0,0.0,0.0,0.0,0.0,0.0,0.0,0.0,0.0,0.0,0.0,0.0,0.0,0.0,0.0,0.0,0.0,0.0,0.0,0.0,0.0,0.0,0.0,0.0,0.0,0.0,0.0,0.0,0.0,0.0,0.0,0.0,0.0,0.0,0.0,0.0,0.0,0.0,0.0,0.0,0.0,0.0,0.0,0.0,0.0,0.0,0.0,0.0,0.0,0.0,0.0,0.0,0.0,0.0,0.0,0.0,0.0,0.0,0.0,0.0,0.0,0.0,0.0,0.0,0.0,4.4736,5.1588,6.4695,6.7208,6.7956,6.7956,6.5622,5.9877,4.9883,4.5484,0.0,0.0,0.0,0.0,0.0,0.0,0.0,0.0,0.0,0.0,0.0,0.0,0.0,0.0,0.0,0.0,0.0,0.0,0.0,0.0,0.0,0.0,0.0,0.0,0.0,0.0,0.0,0.0,0.0,0.0,0.0,0.0,0.0,0.0,0.0,0.0,0.0,0.0,0.0,0.0,0.0,0.0,0.0,0.0,0.0,0.0,0.0,0.0,0.0,0.0,0.0,0.0,0.0,0.0,0.0,0.0,0.0,0.0,0.0,0.0,0.0,0.0,0.0,0.0,0.0,0.0,0.0,0.0,0.0,0.0,0.0,0.0,0.0,0.0,0.0,0.0,0.0,0.0,0.0,0.0,0.0,0.0,0.0,0.0,0.0,0.0,0.0,0.0,0.0,0.0,0.0,0.0,0.0,0.0,0.0,0.0,0.0,0.0,0.0,0.0,0.0,0.0,5.1169,5.6077,6.5951,6.7448,6.7747,6.7747,6.5203,5.9518,4.9883,4.4197,0.0,0.0,0.0,0.0,0.0,0.0,0.0,0.0,0.0,0.0,0.0,0.0,0.0,0.0,0.0,0.0,0.0,0.0,0.0,0.0,0.0,0.0,0.0,0.0,0.0,0.0,0.0,0.0,0.0,0.0,0.0,0.0,0.0,0.0,0.0,0.0,0.0,0.0,0.0,0.0,0.0,0.0,0.0,0.0,0.0,0.0,0.0,0.0,0.0,0.0,0.0,0.0,0.0,0.0,0.0,0.0,0.0,0.0,0.0,0.0,0.0,0.0,0.0,0.0,0.0,0.0,0.0,0.0,0.0,0.0,0.0,0.0,0.0,0.0,0.0,0.0,0.0,0.0,0.0,0.0,0.0,0.0,0.0,0.0,0.0,0.0,0.0,0.0,0.0,0.0,0.0,0.0,0.0,0.0,0.0,0.0,0.0,0.0,0.0,0.0,0.0,0.0,5.5508,6.269,6.658,6.7029,6.7059,6.7059,6.2421,5.6585,4.9703,4.2013,0.0,0.0,0.0,0.0,0.0,0.0,0.0,0.0,0.0,0.0,0.0,0.0,0.0,0.0,0.0,0.0,0.0,0.0,0.0,0.0,0.0,0.0,0.0,0.0,0.0,0.0,0.0,0.0,0.0,0.0,0.0,0.0,0.0,0.0,0.0,0.0,0.0,0.0,0.0,0.0,0.0,0.0,0.0,0.0,0.0,0.0,0.0,0.0,0.0,0.0,0.0,0.0,0.0,0.0,0.0,0.0,0.0,0.0,0.0,0.0,0.0,0.0,0.0,0.0,0.0,0.0,0.0,0.0,0.0,0.0,0.0,0.0,0.0,0.0,0.0,0.0,0.0,0.0,0.0,0.0,0.0,0.0,0.0,0.0,0.0,0.0,0.0,0.0,0.0,0.0,0.0,0.0,0.0,0.0,0.0,0.0,0.0,0.0,0.0,0.0,0.0,0.0,5.3443,6.0146,0.0,6.6999,6.6819,6.64,6.3767,5.8112,4.8626,0.0,0.0,0.0,0.0,0.0,0.0,0.0,0.0,0.0,0.0,0.0,0.0,0.0,0.0,0.0,0.0,0.0,0.0,0.0,0.0,0.0,0.0,0.0,0.0,0.0,0.0,0.0,0.0,0.0,0.0,0.0,0.0,0.0,0.0,0.0,0.0,0.0,0.0,0.0,0.0,0.0,0.0,0.0,0.0,0.0,0.0,0.0,0.0,0.0,0.0,0.0,0.0,0.0,0.0,0.0,0.0,0.0,0.0,0.0,0.0,0.0,0.0,0.0,0.0,0.0,0.0,0.0,0.0,0.0,0.0,0.0,0.0,0.0,0.0,0.0,0.0,0.0,0.0,0.0,0.0,0.0,0.0,0.0,0.0,0.0,0.0,0.0,0.0,0.0,0.0,0.0,0.0,0.0,0.0,0.0,0.0,0.0,0.0,0.0,0.0,0.0,0.0,4.6232,5.3384,6.0086,0.0,6.6999,6.6729,6.6071,6.3298,5.7547,4.7938,0.0,0.0,0.0,0.0,0.0,0.0,0.0,0.0,0.0,0.0,0.0,0.0,0.0,0.0,0.0,0.0,0.0,0.0,0.0,0.0,0.0,0.0,0.0,0.0,0.0,0.0,0.0,0.0,0.0,0.0,0.0,0.0,0.0,0.0,0.0,0.0,0.0,0.0,0.0,0.0,0.0,0.0,0.0,0.0,0.0,0.0,0.0,0.0,0.0,0.0,0.0,0.0,0.0,0.0,0.0,0.0,0.0,0.0,0.0,0.0,0.0,0.0,0.0,0.0,0.0,0.0,0.0,0.0,0.0,0.0,0.0,0.0,0.0,0.0,0.0,0.0,0.0,0.0,0.0,0.0,0.0,0.0,0.0,0.0,0.0,0.0,0.0,0.0,0.0,0.0,0.0,0.0,0.0,0.0,0.0,0.0,0.0,0.0,0.0,0.0,0.0,0.0,4.6621,5.6526,6.4096,6.67,6.6999,6.6729,6.6041,6.0297,5.3936,0.0,0.0,0.0,0.0,0.0,0.0,0.0,0.0,0.0,0.0,0.0,0.0,0.0,0.0,0.0,0.0,0.0,0.0,0.0,0.0,0.0,0.0,0.0,0.0,0.0,0.0,0.0,0.0,0.0,0.0,0.0,0.0,0.0,0.0,0.0,0.0,0.0,0.0,0.0,0.0,0.0,0.0,0.0,0.0,0.0,0.0,0.0,0.0,0.0,0.0,0.0,0.0,0.0,0.0,0.0,0.0,0.0,0.0,0.0,0.0,0.0,0.0,0.0,0.0,0.0,0.0,0.0,0.0,0.0,0.0,0.0,0.0,0.0,0.0,0.0,0.0,0.0,0.0,0.0,0.0,0.0,0.0,0.0,0.0,0.0,0.0,0.0,0.0,0.0,0.0,0.0,0.0,0.0,0.0,0.0,0.0,0.0,0.0,0.0,0.0,0.0,0.0,0.0,4.6621,5.6526,6.4096,6.67,6.589,6.4668,6.356,5.9521,5.3415,4.4697,0.0,0.0,0.0,0.0,0.0,0.0,0.0,0.0,0.0,0.0,0.0,0.0,0.0,0.0,0.0,0.0,0.0,0.0,0.0,0.0,0.0,0.0,0.0,0.0,0.0,0.0,0.0,0.0,0.0,0.0,0.0,0.0,0.0,0.0,0.0,0.0,0.0,0.0,0.0,0.0,0.0,0.0,0.0,0.0,0.0,0.0,0.0,0.0,0.0,0.0,0.0,0.0,0.0,0.0,0.0,0.0,0.0,0.0,0.0,0.0,0.0,0.0,0.0,0.0,0.0,0.0,0.0,0.0,0.0,0.0,0.0,0.0,0.0,0.0,0.0,0.0,0.0,0.0,0.0,0.0,0.0,0.0,0.0,0.0,0.0,0.0,0.0,0.0,0.0,0.0,0.0,0.0,0.0,0.0,0.0,0.0,0.0,0.0,0.0,0.0,0.0,0.0,4.5581,5.5495,6.279,6.4687,6.3894,6.2705,6.1487,5.8491,5.2897,4.4227,0.0,0.0,0.0,0.0,0.0,0.0,0.0,0.0,0.0,0.0,0.0,0.0,0.0,0.0,0.0,0.0,0.0,0.0,0.0,0.0,0.0,0.0,0.0,0.0,0.0,0.0,0.0,0.0,0.0,0.0,0.0,0.0,0.0,0.0,0.0,0.0,0.0,0.0,0.0,0.0,0.0,0.0,0.0,0.0,0.0,0.0,0.0,0.0,0.0,0.0,0.0,0.0,0.0,0.0,0.0,0.0,0.0,0.0,0.0,0.0,0.0,0.0,0.0,0.0,0.0,0.0,0.0,0.0,0.0,0.0,0.0,0.0,0.0,0.0,0.0,0.0,0.0,0.0,0.0,0.0,0.0,0.0,0.0,0.0,0.0,0.0,0.0,0.0,0.0,0.0,0.0,0.0,0.0,0.0,0.0,0.0,0.0,0.0,0.0,0.0,0.0,0.0,4.4271,5.3852,6.0716,6.1481,6.1461,6.0859,5.9649,5.698,5.2332,4.5384,0.0,0.0,0.0,0.0,0.0,0.0,0.0,0.0,0.0,0.0,0.0,0.0,0.0,0.0,0.0,0.0,0.0,0.0,0.0,0.0,0.0,0.0,0.0,0.0,0.0,0.0,0.0,0.0,0.0,0.0,0.0,0.0,0.0,0.0,0.0,0.0,0.0,0.0,0.0,0.0,0.0,0.0,0.0,0.0,0.0,0.0,0.0,0.0,0.0,0.0,0.0,0.0,0.0,0.0,0.0,0.0,0.0,0.0,0.0,0.0,5.0507,0.0,0.0,0.0,0.0,0.0,0.0,0.0,0.0,0.0,0.0,0.0,0.0,0.0,0.0,0.0,0.0,0.0,0.0,0.0,0.0,0.0,0.0,0.0,0.0,0.0,0.0,0.0,0.0,0.0,0.0,0.0,0.0,0.0,0.0,0.0,0.0,0.0,0.0,0.0,0.0,0.0,4.484,5.4219,6.0716,6.1481,6.0401,5.8982,5.7945,5.4827,5.0359,4.4696,3.9985,0.0,0.0,0.0,0.0,0.0,0.0,0.0,0.0,0.0,0.0,0.0,0.0,0.0,0.0,0.0,0.0,0.0,0.0,0.0,0.0,0.0,0.0,0.0,0.0,0.0,0.0,0.0,0.0,0.0,0.0,0.0,0.0,0.0,0.0,0.0,0.0,0.0,0.0,0.0,0.0,0.0,0.0,0.0,0.0,0.0,0.0,0.0,0.0,0.0,0.0,0.0,0.0,0.0,0.0,0.0,0.0,0.0,0.0,0.0,0.0,5.3145,0.0,0.0,0.0,0.0,0.0,0.0,0.0,0.0,0.0,0.0,0.0,0.0,0.0,0.0,0.0,0.0,0.0,0.0,0.0,0.0,0.0,0.0,0.0,0.0,0.0,0.0,0.0,0.0,0.0,0.0,0.0,0.0,0.0,0.0,0.0,0.0,0.0,0.0,0.0,0.0,4.3915,5.2342,5.8161,5.8546,5.8068,5.71,5.6106,5.4036,5.0826,4.6213,4.2259,0.0,0.0,0.0,0.0,0.0,0.0,0.0,0.0,0.0,0.0,0.0,0.0,0.0,0.0,0.0,0.0,0.0,0.0,0.0,0.0,0.0,0.0,0.0,0.0,0.0,0.0,0.0,0.0,0.0,0.0,0.0,0.0,0.0,0.0,0.0,0.0,0.0,0.0,0.0,0.0,0.0,0.0,0.0,0.0,0.0,0.0,0.0,0.0,0.0,0.0,0.0,0.0,0.0,6.3429,6.485,6.5324,6.5425,6.7218,6.9925,6.4098,6.2851,6.4343,0.0,0.0,0.0,0.0,0.0,0.0,0.0,0.0,0.0,0.0,0.0,0.0,0.0,0.0,0.0,0.0,0.0,0.0,0.0,0.0,0.0,0.0,0.0,0.0,0.0,5.1528,5.2037,0.0,0.0,0.0,0.0,0.0,0.0,0.0,0.0,0.0,0.0,0.0,0.0,4.2885,5.03,5.5351,5.5333,5.5792,5.5666,5.4637,5.3959,5.2026,4.8435,4.5043,4.1154,0.0,0.0,0.0,0.0,0.0,0.0,0.0,0.0,0.0,0.0,0.0,0.0,0.0,0.0,0.0,0.0,0.0,0.0,0.0,0.0,0.0,0.0,0.0,0.0,0.0,0.0,0.0,0.0,0.0,0.0,0.0,0.0,5.2032,5.3668,0.0,0.0,0.0,0.0,0.0,0.0,0.0,0.0,0.0,0.0,0.0,0.0,0.0,5.8617,6.104,6.6602,6.918,6.8774,7.483,7.7435,7.6927,7.757,7.845,7.9364,7.7134,0.0,6.6221,6.2649,0.0,0.0,0.0,0.0,0.0,0.0,0.0,0.0,0.0,0.0,0.0,0.0,0.0,0.0,0.0,0.0,0.0,0.0,0.0,0.0,0.0,0.0,5.7902,5.7513,5.8321,5.8351,0.0,4.7818,4.0636,3.6956,3.4083,0.0,0.0,0.0,0.0,0.0,0.0,0.0,4.4359,5.0961,5.5351,5.5333,5.544,5.5239,5.4612,5.3632,5.1975,4.9515,4.7604,4.4508,4.0049,3.6679,0.0,0.0,0.0,0.0,0.0,0.0,0.0,0.0,0.0,0.0,0.0,0.0,0.0,0.0,0.0,0.0,0.0,0.0,0.0,0.0,0.0,0.0,0.0,0.0,0.0,0.0,0.0,0.0,0.0,4.9137,5.312,5.2302,5.1829,4.9373,0.0,0.0,0.0,0.0,0.0,0.0,0.0,0.0,0.0,6.3893,6.4877,6.715,7.1008,7.4577,7.6555,7.7096,8.0445,8.2103,8.2238,8.2983,8.349,8.3689,8.2112,7.9164,7.4837,6.7395,6.1633,5.6885,0.0,0.0,0.0,0.0,5.042,5.1452,5.5969,5.7047,0.0,5.385,0.0,0.0,0.0,0.0,0.0,0.0,0.0,0.0,0.0,0.0,5.9458,6.1403,6.266,6.2698,6.0088,5.5031,4.9026,0.0,3.9744,3.651,3.0122,0.0,0.0,0.0,0.0,4.2179,4.5701,5.0996,5.4414,5.4502,5.5013,5.5039,5.416,5.3632,5.2678,5.1096,4.9439,4.7355,4.4769,4.0601,3.6053,0.0,0.0,0.0,0.0,0.0,0.0,0.0,0.0,0.0,0.0,0.0,0.0,0.0,0.0,0.0,0.0,0.0,0.0,0.0,0.0,0.0,0.0,0.0,0.0,0.0,0.0,0.0,0.0,5.236,5.5296,5.2074,5.4344,5.3066,0.0,0.0,0.0,0.0,0.0,0.0,6.0554,6.2347,6.5933,7.1751,7.2834,7.527,7.9363,8.0682,8.1968,8.3287,8.3828,8.4224,8.4573,8.5178,8.5192,8.4677,8.293,8.1913,8.0528,7.1076,6.627,6.4064,5.7559,5.4777,5.47,5.6776,5.762,5.8612,6.4034,6.5528,6.441,6.1096,0.0,5.399,4.8147,0.0,0.0,0.0,0.0,4.9164,5.497,5.7702,5.9717,6.3091,6.4357,6.418,6.1422,5.8952,5.5083,0.0,4.5043,4.1658,3.4021,0.0,0.0,0.0,0.0,4.3888,4.7056,5.1017,5.3557,5.3683,5.4461,5.4612,5.3758,5.3582,5.3105,5.2176,5.0795,4.9515,4.8385,4.3904,3.9526,3.5419,0.0,0.0,0.0,0.0,0.0,0.0,0.0,0.0,0.0,0.0,0.0,0.0,0.0,0.0,0.0,0.0,0.0,0.0,0.0,0.0,0.0,0.0,0.0,0.0,0.0,0.0,0.0,0.0,0.0,5.7046,6.2764,0.0,0.0,0.0,0.0,5.6224,5.9133,6.3125,6.8267,7.0601,7.4187,7.9464,8.1054,8.2272,8.3219,8.3998,8.4809,8.5621,8.5655,8.5158,8.4357,8.439,8.3411,8.1787,8.0193,7.9196,7.8201,7.3848,7.0516,6.7957,6.3578,6.0856,5.9531,6.139,6.2778,6.4198,6.6162,6.6941,6.6643,6.5604,6.062,5.4884,5.4677,5.1439,0.0,0.0,5.467,5.5927,6.1253,6.188,6.1488,6.3053,6.2547,6.1503,6.0021,5.774,5.5111,0.0,4.8942,4.5555,4.2587,0.0,3.9881,4.0322,4.2475,4.513,4.8358,5.1147,5.3155,5.3658,5.3758,5.3758,5.3708,5.3256,5.2729,5.2151,5.1523,5.0695,4.9565,4.6051,4.2397,3.8682,3.3321,0.0,0.0,0.0,0.0,0.0,0.0,0.0,0.0,0.0,0.0,0.0,0.0,0.0,0.0,0.0,0.0,0.0,0.0,0.0,0.0,0.0,0.0,0.0,0.0,0.0,0.0,0.0,0.0,6.285,6.7826,0.0,6.0013,6.255,6.4715,6.4715,6.8842,7.2969,7.6724,7.8145,8.0141,8.2949,8.3558,8.3964,8.4234,8.4505,8.4405,8.4152,8.4152,8.3531,8.2594,8.3169,8.2767,8.1758,8.0563,7.9366,7.8219,7.5683,7.3381,7.1136,6.8334,6.6882,6.6422,6.7457,6.8421,6.9446,7.0929,7.1427,7.0959,6.7577,6.3676,5.9969,5.9207,5.7842,5.7064,5.9578,5.9428,5.9276,6.2458,6.2119,6.1025,6.2024,6.1858,6.1106,5.9103,5.741,5.5519,5.3088,5.0245,4.7144,4.3651,4.3939,4.4051,4.268,4.5425,4.8204,4.9615,5.1925,5.3356,5.3231,5.3507,5.3557,5.3231,5.303,5.2678,5.2126,5.0419,4.9217,4.8355,4.5038,4.1882,3.8891,3.5746,3.1422,0.0,0.0,0.0,0.0,0.0,0.0,0.0,0.0,0.0,0.0,0.0,0.0,0.0,0.0,0.0,0.0,0.0,0.0,0.0,0.0,0.0,0.0,0.0,0.0,0.0,0.0,6.7924,6.5627,7.1702,7.3206,6.573,6.9553,7.2597,7.2834,7.6521,7.9701,8.19,8.2746,8.3592,8.4606,8.427,8.4152,8.4152,8.3765,8.34,8.3117,8.3117,8.2504,8.1565,8.2137,8.1846,8.0814,7.9891,7.8825,7.7784,7.6469,7.4988,7.3462,7.2146,7.1637,7.1697,7.2086,7.2535,7.3013,7.3911,7.3791,7.2684,6.9393,6.655,6.4186,6.3109,6.263,6.2545,6.3002,6.2249,6.1557,6.248,6.1386,6.0185,6.0566,6.0264,5.9302,5.7494,5.6496,5.5202,5.333,5.0995,4.8627,4.5834,4.6686,4.7091,4.5244,4.7561,4.9769,5.0435,5.2043,5.3105,5.2955,5.3231,5.3306,5.2955,5.2076,5.133,5.0938,4.827,4.6428,4.5873,4.2753,4.003,3.8078,3.5311,3.1545,2.6634,0.0,0.0,0.0,0.0,0.0,0.0,0.0,0.0,0.0,0.0,0.0,0.0,0.0,0.0,0.0,0.0,0.0,0.0,0.0,0.0,0.0,0.0,0.0,5.8287,6.5722,6.9696,6.5643,7.4762,7.8551,7.1312,7.5879,7.9566,8.0242,8.1663,8.278,8.349,8.4234,8.4674,8.4674,8.3673,8.3202,8.3202,8.2239,8.2045,8.2748,8.2748,8.2229,8.1275,8.1275,8.037,7.8729,7.81,7.7442,7.6754,7.6185,7.5527,7.4869,7.4869,7.4869,7.4869,7.4869,7.4869,7.4869,7.4869,7.3582,7.1816,7.1158,6.9183,6.6816,6.6159,6.5502,6.4723,6.3622,6.3233,6.2865,6.1858,6.0127,5.8763,5.8763,5.7421,5.6068,5.5516,5.4963,5.4235,5.3155,5.1599,5.0293,4.9741,4.9188,4.8759,4.8368,4.9081,0.0,5.0663,5.1481,5.2277,5.2754,5.2804,5.2829,5.2692,5.0187,4.8639,4.8547,4.4991,4.2825,4.2221,3.9276,3.7303,3.6489,3.221,2.8859,2.6592,0.0,0.0,0.0,0.0,0.0,0.0,0.0,0.0,0.0,0.0,0.0,0.0,0.0,0.0,0.0,0.0,0.0,0.0,0.0,0.0,0.0,0.0,6.4783,6.5087,7.1457,7.6408,7.7367,8.119,8.2678,8.0073,8.1832,8.2949,8.2611,8.3456,8.4099,8.4302,8.5046,8.5452,8.5452,8.4551,8.4042,8.4042,8.2497,8.1443,8.0994,8.0994,8.0459,7.9445,7.9445,7.8919,7.81,7.84,7.7622,7.6185,7.6455,7.5916,7.4869,7.4869,7.4869,7.4869,7.4869,7.4869,7.4869,7.4869,7.3881,7.2505,7.1846,6.9631,6.681,6.5863,6.431,6.2906,6.2229,6.1079,6.0048,5.9686,5.8224,5.6895,5.6895,5.6631,5.6068,5.5516,5.4963,5.4361,5.3632,5.2477,5.1473,5.0921,5.0343,4.992,4.9825,5.0049,0.0,5.0459,5.1463,5.1548,5.0067,5.0268,4.9942,4.856,4.7157,4.6121,4.553,4.2327,4.0432,4.0184,3.7177,3.5321,3.4754,3.2023,2.9546,0.0,0.0,0.0,0.0,0.0,0.0,0.0,0.0,0.0,0.0,0.0,0.0,0.0,0.0,0.0,0.0,0.0,0.0,0.0,0.0,0.0,0.0,6.5595,7.1616,7.3274,7.6893,8.0242,8.2577,8.3896,8.4437,8.3998,8.437,8.4437,8.3998,8.437,8.4776,8.508,8.5554,8.5675,8.5214,8.4169,8.3292,8.2674,8.1176,8.0254,7.9651,7.9651,7.9335,7.8789,7.8789,7.8579,0.0,7.834,7.7592,7.6305,7.6395,7.5826,0.0,0.0,0.0,0.0,0.0,7.4869,7.4839,7.4569,7.3791,7.2641,7.1258,6.9144,6.6826,6.5277,6.3907,6.2564,6.1518,6.0462,5.9331,5.8381,5.7371,5.6495,5.6269,5.6219,5.6068,5.5516,5.5139,5.4662,5.3858,5.3206,0.0,5.2076,5.1322,5.065,5.0563,5.0684,5.0857,5.0869,5.1848,5.1754,4.9829,5.0038,4.9438,4.7237,4.5291,0.0,0.0,0.0,3.7569,3.6875,3.4736,0.0,0.0,0.0,0.0,0.0,0.0,0.0,0.0,2.447,2.3045,0.0,0.0,0.0,0.0,0.0,0.0,0.0,0.0,0.0,0.0,0.0,0.0,0.0,0.0,0.0,0.0,7.2496,7.8382,8.1156,8.1596,8.2137,8.3456,8.42,8.464,8.464,8.464,8.464,8.464,8.464,8.4804,8.5371,0.0,0.0,0.0,0.0,8.1976,8.0513,7.9284,7.8789,7.8789,7.8789,7.8789,7.8789,7.8789,7.8789,7.8759,7.81,7.7442,7.6784,7.6155,7.5497,7.4869,7.4869,7.4869,7.4869,7.4869,7.4869,7.4779,7.421,0.0,0.0,6.9902,6.7982,6.6214,6.447,6.3383,6.2438,6.0697,6.0263,5.9867,5.7668,5.7072,5.6922,5.642,5.6269,5.6068,5.5591,5.544,5.5089,5.4084,5.3783,5.3557,5.308,5.2101,5.1241,5.0909,5.1099,5.1291,5.1479,5.2032,5.1911,5.027,0.0,0.0,4.718,4.3919,4.1711,4.1142,3.7701,3.4943,3.3346,3.2608,3.2383,3.267,3.2731,3.2934,3.3096,3.1967,3.1085,3.0396,2.5103,2.3436,0.0,0.0,0.0,0.0,0.0,0.0,0.0,0.0,0.0,0.0,0.0,0.0,0.0,0.0,0.0,6.8673,7.5574,8.1054,8.2813,8.3592,8.4099,8.437,8.4539,8.464,8.464,8.464,8.464,8.464,8.464,8.4102,8.2916,8.401,0.0,8.238,8.1972,8.1466,8.1226,7.9638,7.8789,7.8789,0.0,0.0,7.8789,7.8789,7.8789,7.8759,7.81,7.7442,7.6784,7.6155,7.5497,7.4869,7.4869,7.4869,7.4869,7.4869,7.4869,7.4869,7.4719,7.2867,7.0541,7.0118,6.6929,6.3124,6.2351,6.0875,0.0,5.8577,5.845,5.8275,5.79,5.7374,5.6997,5.6897,5.652,5.6168,5.6068,5.5691,5.5315,5.5089,5.4336,5.3658,5.3557,5.2653,5.1959,5.1873,5.1481,5.133,5.1367,5.0518,4.9169,4.7454,4.638,4.4914,4.2855,4.0969,3.9827,3.9221,3.7055,3.5317,3.3994,3.4468,3.4468,3.3836,3.4152,3.3392,3.1407,3.1863,3.1356,2.9987,2.6745,2.5191,0.0,0.0,0.0,0.0,0.0,0.0,0.0,0.0,0.0,0.0,0.0,5.5243,5.9336,0.0,7.0094,7.4931,7.9464,8.278,8.3896,8.4403,8.464,8.464,8.464,8.464,8.464,8.464,8.4285,8.3421,8.3421,8.3016,8.2162,8.24,8.2316,8.1621,8.1102,8.0662,8.009,7.919,7.8789,7.8789,7.8789,7.8789,7.8789,7.8789,7.8789,7.8759,7.81,7.7442,7.6754,7.5796,7.5198,7.4869,7.4869,7.4869,7.4869,7.4869,7.4258,7.3304,7.2981,7.1133,6.8734,6.7224,6.4896,6.258,6.0982,5.9795,5.9056,5.878,5.8704,5.8629,5.8378,5.8102,5.7801,5.7524,5.7047,5.662,5.662,5.6194,5.5717,5.544,5.4938,5.4361,5.3808,5.3256,5.2829,5.2553,5.1407,5.0636,5.0636,4.9369,4.7774,4.5855,4.5216,4.4103,4.1837,4.0257,3.9086,3.8242,3.7051,3.6055,3.541,3.5586,3.5605,3.5371,3.4583,3.3705,3.2588,3.1135,2.9986,2.9127,2.675,2.6171,0.0,0.0,0.0,0.0,0.0,0.0,0.0,0.0,5.0769,5.6055,5.893,6.2313,6.8301,7.1515,7.5067,8.0615,8.2746,8.393,8.4539,8.464,8.464,8.464,8.464,8.45,8.4143,8.4143,8.3421,8.1853,8.1737,8.149,8.1028,8.0553,8.0361,8.0248,8.0001,7.9467,7.8579,7.8729,7.8729,7.8609,7.8609,7.8519,7.84,7.8549,7.8519,7.837,7.7711,7.7053,7.6365,7.5318,7.4869,7.4869,7.4426,7.4258,7.4258,7.4258,7.3363,7.1798,7.0822,6.909,6.689,6.4186,6.3061,6.227,6.0097,5.9483,5.9483,5.9483,5.9483,5.9408,5.8981,5.8805,5.8604,5.8152,5.7524,5.7022,5.7022,5.6595,5.6068,5.5641,5.5465,5.5089,5.4185,5.3628,5.3048,5.2427,5.0998,4.9819,4.9534,4.8145,4.6483,4.49,4.4815,4.3963,4.1857,4.0312,3.9082,3.8223,3.7539,3.709,3.6914,3.6147,3.5931,3.6201,3.423,3.3265,3.3127,3.0112,2.8369,2.7929,2.6487,2.6572,5.0059,4.7705,4.7595,5.2488,5.2241,5.4052,0.0,0.0,6.3683,6.9132,7.2056,7.3849,7.4661,7.7739,8.0648,8.2069,8.3524,8.4539,8.4606,8.464,8.464,8.464,8.464,8.4035,8.2572,8.2458,8.1853,8.0167,8.0046,7.9376,7.7894,7.8294,7.797,7.6602,7.7515,7.7973,7.7921,7.8489,7.8489,7.7921,7.7921,7.7622,7.7053,7.7652,7.7592,7.7023,7.6395,7.5736,7.5078,7.4929,7.4869,7.4731,7.2911,7.2314,7.2314,7.2314,7.2142,7.1683,6.9699,6.7517,6.5175,6.4386,6.2509,6.0498,5.9659,5.9483,5.9483,5.9483,5.9483,5.9483,5.9433,5.9056,5.8704,5.8654,5.7826,5.7022,5.7022,5.6595,5.6194,5.6118,5.5717,5.534,5.5214,5.3252,5.1393,5.0412,5.0127,4.9368,4.7613,4.5766,4.4609,4.4726,4.319,4.2014,4.1269,4.0703,4.0,3.9121,3.8965,3.8574,3.7812,3.5955,3.4885,3.4575,3.2844,3.1114,2.9351,2.9348,2.8429,2.6608,2.6706,2.641,5.8636,5.7158,0.0,0.0,6.0114,6.2597,6.8349,6.8334,6.8608,7.3976,7.6454,7.8077,7.9363,8.1224,8.2813,0.0,8.4234,8.464,8.464,8.464,8.4116,8.2819,8.3766,8.4035,8.2345,8.1388,8.0167,7.8439,7.8313,7.7734,7.6544,7.6348,7.638,7.6425,7.6604,7.6874,7.7233,7.7891,7.8071,7.7801,7.7801,7.7861,7.7951,7.7472,7.6904,7.6275,7.6006,7.5527,7.4869,7.4869,7.4869,7.4731,7.277,7.1856,7.1712,7.0521,6.9309,6.8256,6.7368,6.5555,6.3581,6.3017,6.2033,6.0713,6.0161,5.9759,5.9483,5.9483,5.9483,5.9483,5.9483,5.9332,5.9182,5.9182,5.8579,5.7926,5.76,5.7097,5.6595,5.6269,5.509,5.3911,5.3594,5.1656,4.9442,4.7565,4.706,4.6453,4.5447,4.3663,4.241,4.2591,4.1875,4.1367,4.1191,4.0781,4.0351,4.0,3.9746,3.9453,3.9082,3.7054,3.5743,3.5581,3.2511,3.0575,2.9665,2.8704,2.7671,2.6907,2.7028,2.6881,6.1963,0.0,0.0,6.3807,6.7005,7.0216,7.1011,7.1668,7.3341,7.7536,7.9431,8.0818,8.2408,8.3321,8.3998,8.4539,8.464,8.464,8.464,8.4083,8.318,8.1724,8.1503,8.1401,8.0967,8.0182,7.8941,7.6831,7.67,7.6313,7.5725,7.5138,7.5318,7.6275,7.6036,7.6125,7.6574,7.7203,7.7442,7.7293,7.7293,7.7442,7.7682,7.6724,7.6155,7.5886,7.5707,7.5347,7.4869,7.4869,7.4564,7.3812,7.1856,7.0667,6.9903,6.798,6.6623,6.5687,6.524,6.4042,6.2722,6.1994,6.1517,6.104,6.0311,5.9809,5.9483,5.9483,5.9483,5.9483,5.9483,5.9483,5.9483,5.9483,5.9106,5.8604,5.8202,5.7074,5.5979,5.5584,5.3822,5.2049,5.1675,4.991,4.79,4.5911,4.4774,4.4091,4.3639,4.2301,4.1308,4.1191,4.1172,4.1172,4.1172,4.0879,4.0703,4.0703,4.041,3.9872,3.928,3.704,3.5574,3.483,3.1364,2.9471,2.9471,2.8056,2.7268,2.7268,2.7348,2.7388,0.0,0.0,6.3136,6.7522,7.2117,7.6217,7.9126,7.9837,8.031,8.1934,8.2847,8.3389,8.3456,8.4065,8.4606,8.464,8.464,8.464,8.464,8.2676,8.158,8.23,7.7202,7.4828,0.0,7.8971,7.8471,7.5248,7.5006,7.5006,7.4899,7.4899,7.4899,7.4929,7.5557,7.5916,7.5946,7.6544,7.6544,7.5976,7.5976,7.5617,7.4988,7.4958,7.5288,7.5856,7.5198,7.4899,7.4869,7.4869,7.3812,7.1856,6.9783,6.7827,6.5687,6.3746,6.4177,6.5556,6.3584,6.2822,6.2647,6.1567,6.119,6.0964,5.9859,5.9508,5.9483,5.9483,5.9483,5.9483,5.9483,5.9483,5.9483,5.9483,5.9106,5.8704,5.8704,5.6211,5.4038,5.4014,5.1878,5.0142,5.0142,4.8259,4.6678,4.6195,4.4422,4.3033,4.2441,4.2031,4.1621,4.1211,4.1172,4.1172,4.1172,4.1172,4.1152,4.1152,4.1152,3.9968,3.7475,3.5378,3.3129,3.058,2.8367,2.7431,2.7431,2.7268,2.7268,2.7268,2.7549,2.7682,5.9937,0.0,6.9727,7.3889,7.7188,7.9803,8.1325,8.1663,8.1799,8.2306,8.0242,7.8314,7.8314,7.8517,7.8889,7.9397,8.1968,8.3678,8.3099,8.2373,8.0722,7.7414,7.7047,0.0,0.0,0.0,0.0,7.4916,7.4869,7.4869,7.4869,7.4869,7.4869,7.4869,7.5108,7.5228,7.5228,7.5886,7.6125,7.5916,7.6335,7.5946,7.4899,7.5347,7.5437,7.5198,7.4988,7.412,7.2911,7.2911,7.1712,6.9635,6.7675,6.6468,6.5529,6.3584,6.3058,6.3185,6.2432,6.2295,6.2169,6.1416,6.0914,6.0537,6.0161,5.9784,5.9483,5.9483,5.9483,5.9483,5.9483,5.9483,5.9483,5.9483,5.9357,5.8798,5.6829,5.5662,5.4226,5.2097,4.9959,4.8168,4.7847,4.6061,4.4762,4.4601,4.3475,4.2598,4.2441,4.2305,4.2168,4.2031,4.1758,4.1582,4.1582,4.1328,4.1172,4.1172,3.9864,3.8651,3.7715,3.4308,3.1987,3.1078,2.898,2.7843,2.7843,2.7843,2.7843,2.7856,2.7949,2.7989,6.4667,6.9742,7.4385,7.8545,8.1021,8.2611,8.3084,8.2983,8.2644,8.2103,7.845,7.5134,7.4627,7.4086,7.3984,7.4762,7.7942,8.0371,8.0563,7.9739,7.8125,7.5541,7.5459,7.4656,0.0,0.0,0.0,7.436,7.4749,7.4869,7.4869,7.4869,7.4869,7.4869,7.4869,7.4869,7.4869,7.5318,7.5527,7.5557,7.5946,7.5677,7.4899,7.5347,7.5288,7.4869,7.4869,7.3812,7.1856,7.1856,7.0227,6.7675,6.6312,6.5267,6.4346,6.2982,6.2195,6.1743,6.1943,6.1868,6.1617,6.1065,6.0613,6.0286,6.0085,5.9784,5.9483,5.9483,5.9483,5.9483,5.9483,5.9483,5.9328,5.85,5.8344,5.7594,5.5127,5.3796,5.2488,5.041,4.8117,4.6373,4.6066,4.4778,4.3711,4.3711,4.3242,4.2832,4.2676,4.2656,4.2598,4.2441,4.2187,4.2031,4.2031,4.1641,4.1073,4.0249,3.8798,3.7241,3.5621,3.2858,3.1076,3.026,2.8964,2.8136,2.8136,2.8136,2.8136,2.8136,2.8136,2.8136,6.9544,7.3753,7.7032,8.1461,8.3592,8.4606,8.4573,8.3964,8.2881,8.119,7.7164,7.3477,0.0,0.0,7.006,7.0906,7.3147,7.5567,7.7618,7.5297,7.4263,0.0,0.0,0.0,0.0,0.0,0.0,7.3702,0.0,7.4809,7.4869,7.4869,7.4869,7.4869,7.4869,7.4869,7.4869,7.4869,7.4869,7.4869,7.4869,7.4869,7.4869,7.4869,7.4869,7.4869,7.4731,7.3672,7.1712,7.1568,6.9281,6.566,6.566,6.411,6.1969,6.1969,6.1617,6.1215,6.1743,6.1567,6.104,6.0462,6.0286,6.0186,5.9659,5.9483,5.9483,5.9483,5.9483,5.9483,5.9483,5.9483,5.8837,5.6669,5.6032,5.5413,5.3251,5.0768,4.8987,4.8798,4.6461,4.4414,4.4394,4.4043,4.373,4.3711,4.3711,4.3555,4.3164,4.3105,4.2949,4.2539,4.248,4.2461,4.2461,4.1911,4.0826,3.867,3.7988,3.5833,3.1602,3.1286,3.0303,2.8359,2.8177,2.8163,2.8163,2.815,2.8136,2.8136,2.8136,2.8136,7.3953,7.8354,8.1868,8.3592,8.4336,8.4471,8.393,8.278,8.0479,7.5642,6.9789,6.4208,0.0,0.0,0.0,6.6812,7.3165,0.0,7.9107,7.7548,0.0,7.4035,0.0,7.2757,7.256,7.2289,0.0,0.0,7.3612,7.3851,7.4839,7.4869,7.4869,7.4869,7.4869,7.4869,7.4869,7.4869,7.4869,7.4869,7.4869,7.4869,7.4869,7.4869,7.4869,7.4869,7.3363,7.1568,6.9486,6.7953,6.558,6.2974,6.2974,6.2324,6.1391,6.1391,6.104,6.0563,6.0713,6.0663,6.0437,5.9885,5.9709,5.9684,5.9533,5.9483,5.9483,5.9483,5.9483,5.9483,5.9483,5.8319,5.6852,5.6375,5.4905,5.3086,5.0946,4.985,4.8856,4.6886,4.5556,4.4766,4.4453,4.4297,4.4101,4.375,4.3711,4.3672,4.3555,4.3555,4.3496,4.3398,4.3105,4.291,4.291,4.1009,3.9431,3.8924,3.5676,3.329,3.2124,3.0482,2.9308,2.8818,2.8604,2.8484,2.8484,2.8257,2.8136,2.8136,2.8136,2.8136,7.9473,8.2785,8.508,8.552,8.5384,8.4234,8.0851,7.8923,7.5811,6.8504,6.2448,0.0,0.0,0.0,0.0,0.0,0.0,0.0,7.7169,7.5929,7.4513,0.0,7.3672,0.0,7.2834,7.2864,7.3313,0.0,7.3702,7.3791,7.4809,7.4869,7.4869,7.4869,7.4869,7.4869,7.4869,7.4869,7.4869,7.4869,7.4869,7.4869,7.4869,7.3981,7.3533,7.3503,0.0,6.9486,6.7522,6.6312,6.4295,6.1994,6.1994,6.1517,6.0814,6.0814,6.0437,5.996,5.996,5.996,5.991,5.9583,5.9483,5.9483,5.9483,5.9483,5.9483,5.9483,5.8837,5.8031,5.8031,5.6375,5.4557,5.3579,5.2425,5.0778,4.8634,4.8118,4.7672,4.6087,4.5488,4.5176,4.4746,4.4668,4.4512,4.4082,4.4004,4.3926,4.373,4.3711,4.3711,4.3711,4.3496,4.3359,4.3359,4.0913,3.8825,3.7996,3.4308,3.1881,3.088,2.9713,2.9045,2.9045,2.8885,2.8804,2.8804,2.8617,2.8537,2.8537,2.8537,2.8537,8.4921,8.6704,8.7177,8.7076,8.6332,8.3862,7.7096,7.4086,7.0094,6.0825,0.0,5.1928,4.9255,5.2773,5.6693,5.8706,0.0,7.0799,7.4085,7.3098,7.2631,7.3866,7.4031,7.4031,7.4031,7.3432,7.3552,7.4779,7.427,7.418,7.4839,7.4869,7.4869,7.4869,7.4869,7.4869,7.4869,7.4869,7.4869,7.4869,7.4869,7.4731,7.4426,7.277,7.1712,7.1423,0.0,0.0,6.5844,6.5556,6.4003,6.1994,6.1918,6.124,6.0311,6.0236,5.991,5.9483,5.9483,5.9483,5.9483,5.9483,5.9483,5.9483,5.9483,5.9483,5.9483,5.9148,5.7692,5.6055,5.5895,5.4069,5.1927,5.0125,4.9467,4.8634,4.6638,4.6308,4.6191,4.584,4.5762,4.5625,4.5176,4.5117,4.4961,4.4551,4.4492,4.4316,4.3848,4.375,4.3711,4.3711,4.3361,4.3195,4.3195,4.0453,3.8044,3.6198,3.3521,3.1167,2.9152,2.9152,2.9152,2.9152,2.9112,2.9098,2.9098,2.9058,2.9045,2.9045,2.9045,2.9045,8.7829,8.8598,8.8564,8.7955,8.6298,8.3084,7.6318,7.1718,0.0,0.0,5.071,4.7428,4.2692,4.7496,5.3612,5.8181,0.0,0.0,0.0,0.0,7.3821,0.0,0.0,0.0,0.0,0.0,0.0,0.0,0.0,7.418,7.4839,7.4869,7.4869,7.4869,7.4869,7.4869,7.4869,7.4869,7.4869,7.4869,7.4869,7.3981,7.2456,7.1999,7.0959,6.9337,6.7215,0.0,6.5687,6.4042,6.2795,6.1969,6.1492,6.0914,6.0261,5.9809,5.9583,5.9483,5.9483,5.9483,5.9483,5.9483,5.9483,5.9483,5.9483,5.9483,5.9173,5.7327,5.651,5.5871,5.3906,5.1761,5.0125,4.9616,4.8118,4.6793,4.6289,4.6308,4.6289,4.6211,4.6191,4.6055,4.5644,4.5566,4.541,4.498,4.4922,4.4766,4.4336,4.3945,4.3711,4.3711,4.1974,4.0932,4.0932,3.6936,3.434,3.399,3.1692,3.0109,2.9766,2.9766,2.9766,2.9766,2.9526,2.9406,2.9406,2.9165,2.9045,2.9045,2.9045,2.9045,8.9748,9.0222,9.0053,8.9342,8.6873,8.2035,7.2225,0.0,0.0,0.0,4.4282,4.2489,3.9986,0.0,0.0,0.0,0.0,0.0,0.0,0.0,0.0,0.0,0.0,0.0,0.0,0.0,0.0,0.0,0.0,7.454,7.4869,7.4869,7.4869,7.4869,7.4869,7.4869,7.4869,7.4869,7.4869,7.4869,7.3812,7.277,7.1856,6.9755,6.8256,6.7215,6.5108,0.0,6.4177,6.3123,6.2496,6.1969,6.1718,6.1266,6.0688,6.0136,5.9935,5.9885,5.9583,5.9483,5.9483,5.9483,5.9483,5.9483,5.9483,5.8681,5.7534,5.651,5.4534,5.2569,5.1427,4.9616,4.7794,4.7794,4.7141,4.6308,4.6308,4.6308,4.6308,4.6308,4.6308,4.623,4.6035,4.5996,4.5859,4.543,4.5371,4.4682,4.3007,4.2593,4.2293,4.2011,4.0932,3.9734,3.8545,3.5273,3.3395,3.3395,3.1137,2.9913,2.9913,2.9913,2.9913,2.9913,2.978,2.9713,2.9713,2.9566,2.9499,2.9499,2.9499,2.9499,9.1081,9.1541,9.1338,9.0425,8.7042,8.0682,6.8267,6.1637,0.0,0.0,3.9276,3.8768,3.8768,0.0,0.0,0.0,0.0,0.0,0.0,0.0,0.0,0.0,0.0,0.0,0.0,0.0,0.0,0.0,0.0,0.0,7.4869,7.4869,7.4869,7.4869,7.4869,7.4869,7.4869,7.4869,7.4731,7.4258,7.2599,7.1394,7.0492,6.7188,6.5529,6.5082,6.3423,0.0,0.0,6.2822,6.2571,6.2169,6.2044,6.1743,6.1291,6.0713,6.0412,6.0261,5.9834,5.9583,5.9483,5.8993,5.8837,5.8837,5.8837,5.7194,5.5389,5.4882,5.2238,4.9446,4.8955,4.7641,4.6308,4.6308,4.6308,4.6308,4.6308,4.6308,4.6308,4.6308,4.6308,4.6308,4.6308,4.6308,4.6191,4.5859,4.5435,4.4201,4.1822,4.1052,4.0245,3.9199,3.8941,3.8254,3.6367,3.4043,3.2807,3.2807,3.1,2.9913,2.9913,2.9913,2.9913,2.9913,2.9913,2.9913,2.9913,2.9913,2.9913,2.9913,2.9913,2.9913,9.1364,9.2319,9.1981,9.056,8.5858,7.8619,6.7286,0.0,0.0,4.1305,3.8497,3.8024,3.8024,0.0,0.0,0.0,0.0,0.0,0.0,0.0,0.0,0.0,0.0,0.0,0.0,0.0,0.0,0.0,0.0,0.0,7.4869,7.4869,7.4869,7.4869,7.4869,7.4869,7.4869,7.4869,7.3981,7.2171,7.1999,6.9903,6.6286,6.6,6.479,6.3123,6.2822,0.0,0.0,6.2822,6.2797,6.2697,6.2195,6.1969,6.1868,6.1316,6.0763,6.0311,6.0261,5.991,5.9173,5.7194,5.6558,5.6558,5.6558,5.4905,5.2756,5.0778,4.9955,4.9126,4.7141,4.6464,4.6308,4.6308,4.6308,4.6308,4.6308,4.6308,4.6308,4.6308,4.6308,4.6308,4.6308,4.6308,4.6289,4.625,4.4397,4.2619,4.2044,4.0008,3.7517,3.5013,3.4787,3.4608,3.4442,3.2056,3.0677,3.0677,3.024,2.9913,2.9913,2.9913,2.9913,2.9913,2.9913,2.9913,2.9913,2.9913,2.9913,2.9913,2.9913,2.9913,8.9861,9.1744,9.1947,9.0019,8.4031,7.6082,6.6203,0.0,4.8781,4.0121,3.7381,3.6806,3.7753,3.8261,0.0,0.0,0.0,0.0,0.0,0.0,0.0,0.0,0.0,0.0,0.0,0.0,0.0,0.0,0.0,0.0,7.4869,7.4869,7.4869,7.4869,7.4869,7.4869,7.4869,7.3672,7.277,7.1856,6.9458,6.7341,6.5687,6.4472,6.3584,6.2822,6.2822,0.0,0.0,6.2822,6.2822,6.2797,6.2596,6.2496,6.2446,6.1893,6.1542,6.124,6.0563,5.9326,5.7764,5.6654,5.4418,5.2425,5.3743,5.2591,5.0778,4.9786,4.8634,4.7468,4.6464,4.6308,4.6308,4.6308,4.6308,4.6308,4.6308,4.6308,4.6308,4.6308,4.6308,4.6308,4.6308,4.6308,4.5744,4.4277,4.3175,4.1476,3.8415,3.7138,3.5453,3.2971,3.3509,3.3641,3.2211,3.1226,3.0621,3.0621,3.0515,3.0448,3.0448,3.0448,3.0448,3.0448,3.0448,3.0354,3.0181,3.0181,3.0087,2.9913,2.9913,2.9913,8.6576,8.9782,9.1271,8.9275,8.2272,7.3646,0.0,5.548,4.6346,3.9343,3.6671,3.6028,3.7347,3.7313,3.8294,0.0,0.0,4.5466,0.0,0.0,0.0,0.0,0.0,0.0,0.0,0.0,0.0,0.0,0.0,0.0,0.0,7.4869,7.4869,7.4869,7.4869,7.4564,7.3981,7.2599,7.125,7.0051,6.7188,6.5556,6.479,6.3423,6.2822,6.2822,6.2822,0.0,0.0,6.2822,6.2822,6.2822,6.2822,6.2822,6.2772,6.2395,6.2044,6.1482,6.0179,5.8336,5.6506,5.4859,5.2094,4.9786,5.061,4.9786,4.8634,4.8634,4.7468,4.6308,4.6308,4.6308,4.6308,4.6308,4.6308,4.6308,4.6308,4.6308,4.6308,4.6308,4.6308,4.6114,4.5373,4.5197,4.4277,4.1905,4.0988,3.9159,3.5695,3.4592,3.3497,3.1853,3.2743,3.2846,3.1235,3.0969,3.0915,3.0915,3.0835,3.0795,3.0795,3.0795,3.0795,3.0795,3.0795,3.0688,3.0488,3.0488,3.0381,3.0181,3.0181,2.9378,8.1325,8.6264,8.9884,8.8395,8.0716,7.1548,6.4106,5.4329,4.5128,3.914,3.6671,3.5859,3.6637,3.7381,3.8396,3.9918,0.0,0.0,0.0,0.0,0.0,0.0,0.0,0.0,0.0,0.0,0.0,0.0,0.0,0.0,0.0,7.4869,7.4869,7.4869,7.4869,7.3951,7.1999,7.1856,6.9903,6.5844,6.5844,6.479,6.2822,6.2822,6.2822,0.0,0.0,0.0,0.0,6.2822,6.2822,6.2822,6.2822,6.2822,6.2822,6.2822,6.2119,6.0846,5.8627,5.7095,5.5413,5.1114,4.9616,4.9126,4.6967,4.6289,4.6308,4.6308,4.6308,4.6308,4.6308,4.6308,4.6308,4.6308,4.6308,4.6308,4.6308,4.6308,4.6308,4.6308,4.6308,4.5568,4.2996,4.2621,4.1905,3.9358,3.6975,3.5323,3.5323,3.3135,3.1664,3.1664,3.1664,3.1664,3.1664,3.1396,3.1223,3.1223,3.0955,3.0795,3.0795,3.0795,3.0795,3.0795,3.0795,3.0795,3.0795,3.0795,3.0782,3.0782,3.0782,2.7989,7.0554,7.4086,7.5912,7.3375,6.776,6.1535,5.663,4.939,4.2625,3.87,3.6671,3.5859,3.6637,3.6535,3.7652,4.1711,4.2726,0.0,0.0,0.0,0.0,0.0,0.0,0.0,0.0,0.0,0.0,0.0,0.0,0.0,0.0,7.4869,7.4869,7.4869,7.3503,7.2599,7.1856,6.916,6.7034,6.5844,6.4338,6.3423,6.2822,6.2822,0.0,0.0,0.0,0.0,0.0,6.2822,6.2822,6.2822,6.2822,6.2822,6.2659,6.1052,6.0092,5.9109,5.6388,5.4142,5.1863,5.021,4.8634,4.7121,4.6464,4.6308,4.6308,4.6308,4.6308,4.6308,4.6308,4.6308,4.6308,4.6308,4.6308,4.6308,4.6308,4.6308,4.6308,4.6308,4.5002,4.3549,4.2818,4.1169,3.9341,3.6791,3.5881,3.4779,3.3135,3.2219,3.1664,3.1664,3.1664,3.1664,3.1664,3.1583,3.153,3.153,3.1436,3.1396,3.1396,3.1396,3.1396,3.1396,3.1396,3.1289,3.1089,3.1089,3.0026,2.8124,2.6233,2.3748,6.2042,6.6542,6.8808,6.6643,6.1772,5.6562,5.3112,4.6684,4.0798,3.8396,3.6671,3.5757,3.6265,3.6197,3.7212,4.0764,0.0,0.0,0.0,0.0,0.0,0.0,0.0,0.0,0.0,0.0,0.0,0.0,0.0,0.0,0.0,7.412,7.3812,7.3812,7.2599,7.1568,7.0813,6.7495,6.5398,6.4631,6.3423,6.2822,6.2822,6.2822,6.2822,0.0,0.0,0.0,0.0,6.2822,6.2822,6.2822,6.2822,6.2306,6.1242,5.9835,5.8469,5.6944,5.4068,5.1874,5.0053,4.8777,4.7468,4.6308,4.6308,4.6308,4.6308,4.6308,4.6308,4.6308,4.6308,4.6308,4.6308,4.6308,4.6308,4.6308,4.6308,4.5568,4.4826,4.4826,4.2996,4.0988,4.0067,3.8611,3.6791,3.4233,3.3858,3.3323,3.1853,3.1664,3.1664,3.1664,3.1664,3.1664,3.1664,3.1664,3.1664,3.1664,3.1664,3.1664,3.1664,3.1664,3.1664,3.1664,3.1664,3.1583,3.1396,3.0428,2.8979,2.7098,2.3455,2.0937,0.0,6.1941,6.6034,6.5256,6.0385,5.504,5.2232,4.5602,0.0,3.8193,3.6671,3.5656,3.5757,3.6332,3.711,3.8125,0.0,0.0,0.0,0.0,0.0,0.0,0.0,0.0,0.0,0.0,0.0,0.0,0.0,0.0,0.0,7.2911,7.1856,7.1712,7.1568,7.0521,6.8737,6.6623,6.4631,6.2822,6.2822,6.2822,6.2822,6.2822,6.2822,0.0,0.0,0.0,0.0,6.2822,6.2659,6.247,6.247,6.1076,5.8969,5.8799,5.7089,5.4362,5.1715,5.0555,4.9535,4.7106,4.6308,4.6308,4.6308,4.6308,4.6308,4.6308,4.6308,4.6308,4.6308,4.6308,4.6308,4.6308,4.6308,4.6289,4.6114,4.4277,4.2621,4.2443,4.0446,3.8079,3.5695,3.5152,3.4233,3.207,3.1677,3.1677,3.1704,3.1677,3.1664,3.1664,3.1664,3.1664,3.1664,3.1664,3.1664,3.1664,3.1664,3.1664,3.1664,3.1664,3.1664,3.1664,3.1664,3.1664,3.1474,2.8752,2.7395,2.7191,2.2126,1.9698,4.5399,0.0,4.9729,4.8409,4.6853,4.5365,0.0,4.1474,3.9005,3.8091,0.0,0.0,3.7144,3.7043,0.0,0.0,0.0,0.0,0.0,0.0,0.0,0.0,0.0,0.0,0.0,0.0,0.0,0.0,0.0,0.0,0.0,7.2171,7.125,6.9635,6.8105,6.7061,6.6441,6.4497,6.3286,6.2822,6.2822,6.2822,6.2822,6.2822,0.0,0.0,0.0,0.0,6.2822,6.2822,6.1763,6.0194,6.0194,5.863,5.6573,5.4632,5.3292,5.2182,4.9651,4.8414,4.7522,4.6601,4.6308,4.6308,4.6308,4.6308,4.6308,4.6308,4.6308,4.6308,4.6308,4.6308,4.6308,4.6308,4.6308,4.5744,4.3904,4.2996,4.2085,4.0265,3.7895,3.6066,3.5323,3.3685,3.2476,3.1971,3.181,3.1744,3.1971,3.181,3.1664,3.1664,3.1664,3.1664,3.1664,3.1664,3.1664,3.1664,3.1664,3.1664,3.1664,3.1664,3.1664,3.1664,3.1664,3.07,2.8752,2.6023,2.388,2.1735,1.8426,1.7041,4.0663,4.2895,4.4891,4.4079,4.3606,4.3064,4.1948,4.0054,0.0,0.0,0.0,0.0,0.0,0.0,0.0,0.0,0.0,0.0,0.0,0.0,0.0,0.0,0.0,0.0,0.0,0.0,0.0,0.0,0.0,0.0,0.0,7.0959,6.9635,6.7522,6.5556,6.4949,6.5844,6.3882,6.2822,6.2822,6.2822,6.2822,6.2822,6.2822,6.2822,0.0,0.0,0.0,6.2659,6.1598,6.0362,5.9138,5.8119,5.6377,5.4125,5.2902,5.1522,5.0216,4.8808,4.7637,4.6855,4.6445,4.6308,4.6308,4.6308,4.6308,4.6308,4.6308,4.6308,4.6308,4.6308,4.6308,4.6308,4.6308,4.5392,4.4277,4.2818,4.0808,3.8794,3.7528,3.5323,3.3685,3.3685,3.2583,3.1717,3.1877,3.1877,3.1931,3.2078,3.1971,3.1864,3.1864,3.1744,3.1664,3.1664,3.1664,3.1664,3.1664,3.1664,3.1664,3.1664,3.1664,3.1664,3.1664,3.0496,2.9135,2.778,2.388,2.1343,1.9978,1.7253,1.6083,3.9411,4.2794,4.5974,4.4925,4.4451,4.3842,4.2286,0.0,0.0,0.0,0.0,0.0,0.0,0.0,0.0,0.0,0.0,0.0,0.0,0.0,0.0,0.0,0.0,0.0,0.0,0.0,0.0,0.0,0.0,0.0,0.0,6.9486,6.7522,6.5398,6.3644,6.3457,6.5267,6.3457,6.2672,6.2571,6.2571,6.2571,6.2571,6.2571,6.2571,6.2571,0.0,0.0,6.1893,6.0026,5.8851,5.798,5.6008,5.3948,5.1847,5.1847,5.0621,4.8789,4.8281,4.7598,4.6855,4.6445,4.6308,4.6308,4.6308,4.6308,4.6308,4.6308,4.6308,4.6308,4.6308,4.5939,4.5744,4.5744,4.3904,4.1905,4.1529,3.8246,3.5137,3.4779,3.3135,3.1664,3.1664,3.1664,3.1677,3.173,3.1904,3.2064,3.2158,3.2131,3.2104,3.2104,3.1877,3.1717,3.1677,3.1664,3.1664,3.1664,3.1664,3.1664,3.1664,3.1664,3.1474,3.108,2.8943,2.7384,2.6613,2.2126,1.9782,1.9396,1.7055,1.6083,4.1271,4.506,4.7124,4.1441,4.1339,4.2252,4.0764,0.0,0.0,0.0,0.0,0.0,0.0,0.0,0.0,0.0,0.0,0.0,0.0,0.0,0.0,0.0,0.0,0.0,0.0,0.0,0.0,0.0,0.0,0.0,0.0,6.7368,6.5398,6.3286,6.2532,6.2281,6.2577,6.2281,6.1893,6.1441,6.1441,6.1441,6.1441,6.1441,6.1441,0.0,0.0,6.0403,5.8728,5.864,5.6427,5.2859,5.2911,5.1486,4.938,4.938,4.9216,4.875,4.7949,4.7344,4.6855,4.6445,4.6308,4.6308,4.6308,4.6308,4.6308,4.6308,4.6308,4.6308,4.6308,4.4826,4.3175,4.3175,4.1349,3.8977,3.6791,3.5881,3.4779,3.2583,3.2043,3.1664,3.1664,3.1664,3.1757,3.1998,3.1864,3.1917,3.2412,3.2251,3.2104,3.2104,3.2064,3.1931,3.169,3.1664,3.1664,3.1664,3.1664,3.1664,3.1664,3.1664,3.0687,2.8368,2.7972,2.5636,2.1147,2.0363,1.8813,1.6665,1.6275,1.6083,3.914,4.1711,4.3676,4.1521,4.4782,4.7932,4.5611,0.0,0.0,0.0,0.0,0.0,0.0,0.0,0.0,0.0,0.0,0.0,0.0,0.0,0.0,0.0,0.0,0.0,0.0,0.0,0.0,0.0,0.0,0.0,0.0,0.0,6.4949,6.2822,6.2295,6.1868,6.1567,6.124,6.1115,6.119,6.119,6.119,6.119,6.119,6.119,6.119,0.0,5.879,5.7785,5.5472,5.3191,5.1337,5.0168,4.9212,4.8203,4.8418,4.8359,4.8105,4.7715,4.7441,4.7168,4.6523,4.6465,4.6601,4.6367,4.6308,4.6308,4.6308,4.6308,4.5939,4.4649,4.3371,4.2264,4.0988,3.8794,3.6606,3.5509,3.4233,3.2947,3.1853,3.1664,3.1664,3.1664,3.1664,3.1717,3.1851,3.1891,3.1998,3.2278,3.2185,3.2104,3.2104,3.1957,3.181,3.1677,3.1664,3.1664,3.1664,3.1664,3.1664,3.1664,3.1664,3.0496,2.778,2.6409,2.387,1.9978,1.8616,1.7253,1.6083,1.6083,1.6083,3.8091,3.9715,4.1769,4.3251,0.0,5.0966,5.0123,0.0,0.0,0.0,0.0,0.0,0.0,0.0,0.0,0.0,0.0,0.0,0.0,0.0,0.0,0.0,0.0,0.0,0.0,0.0,0.0,0.0,0.0,0.0,0.0,0.0,6.4338,6.2822,6.2169,6.1617,6.119,6.0487,6.0337,6.0788,6.0788,6.0788,6.0788,6.0788,6.0788,6.063,5.8427,5.7241,5.642,5.2475,5.0506,5.0001,4.8216,4.7578,4.7617,4.7949,4.7793,4.7422,4.7422,4.7363,4.7168,4.6523,4.6523,4.6719,4.6406,4.5939,4.5392,4.5392,4.5021,4.4277,4.2996,4.1708,4.0446,3.8611,3.6252,3.442,3.442,3.2947,3.1664,3.1664,3.1664,3.1664,3.1664,3.1664,3.1664,3.1664,3.1851,3.2024,3.2091,3.2104,3.2104,3.2104,3.1904,3.1744,3.1677,3.1664,3.1664,3.1664,3.1664,3.1474,3.089,3.07,2.9326,2.6023,2.4074,2.1735,1.9002,1.7055,1.6083,1.6083,1.6083,1.6083,4.1339,4.3572,4.55,4.6262,4.4811,0.0,5.0197,4.8978,0.0,5.1195,0.0,0.0,0.0,0.0,0.0,0.0,0.0,0.0,0.0,0.0,0.0,0.0,0.0,0.0,0.0,0.0,0.0,0.0,0.0,0.0,0.0,0.0,0.0,6.2822,6.1793,6.1215,6.119,6.0111,5.9583,5.9608,5.9608,5.9608,5.9608,5.9608,5.9608,5.9453,5.7314,5.5183,5.3056,5.1167,4.9005,4.7189,4.7422,4.7578,4.7578,4.7617,4.7344,4.6973,4.6973,4.6719,4.6387,4.6328,4.6328,4.6348,4.6308,4.4649,4.2818,4.2818,4.1169,4.0084,4.2085,3.9159,3.5695,3.5695,3.3685,3.2043,3.2043,3.1853,3.1664,3.1664,3.1664,3.1664,3.1664,3.1664,3.1664,3.1664,3.169,3.1797,3.2064,3.2104,3.2104,3.2104,3.2078,3.1957,3.169,3.1664,3.1664,3.1664,3.1664,3.07,2.8164,2.8164,2.5625,2.0755,2.0363,1.9002,1.6474,1.6275,1.6083,1.6083,1.6083,1.6083,3.9445,4.161,4.4042,4.526,4.5755,0.0,0.0,5.3624,5.3538,5.5658,5.5965,0.0,0.0,0.0,0.0,0.0,0.0,0.0,0.0,0.0,0.0,0.0,0.0,0.0,0.0,0.0,0.0,0.0,0.0,0.0,0.0,0.0,0.0,6.232,6.1592,6.1014,6.0638,5.9885,5.9483,5.9483,5.9483,5.9483,5.9483,5.8031,5.7376,5.7194,5.3579,5.1594,5.0631,4.8646,4.7205,4.6562,4.6719,4.6777,4.6816,4.707,4.6914,4.6582,4.6836,4.6816,4.6641,4.6387,4.6484,4.6641,4.6387,4.4649,4.2621,4.2621,3.9704,3.6975,3.7879,3.6606,3.4966,3.3511,3.2408,3.1664,3.1664,3.1664,3.1664,3.1664,3.1664,3.1664,3.1664,3.1664,3.1664,3.1664,3.1664,3.1704,3.1824,3.1837,3.1837,3.1837,3.1837,3.1784,3.1677,3.1664,3.108,2.9338,3.089,3.0496,2.7972,2.778,2.5432,2.0175,1.9978,1.8616,1.6083,1.6083,1.6083,1.6083,1.6083,1.6083,3.9108,4.0381,4.2483,0.0,0.0,0.0,5.5952,5.737,5.8045,6.0819,6.0506,0.0,0.0,0.0,0.0,0.0,0.0,0.0,0.0,0.0,0.0,0.0,0.0,0.0,0.0,0.0,0.0,0.0,0.0,0.0,0.0,0.0,0.0,0.0,6.1466,6.0914,6.0337,5.9784,5.9483,5.9483,5.9483,5.9483,5.9483,5.7194,5.6215,5.5895,5.1594,4.9616,4.9446,4.7121,4.6308,4.6308,4.6308,4.6308,4.6328,4.6621,4.6543,4.6348,4.6641,4.6738,4.668,4.6387,4.6504,4.6503,4.5469,4.3371,4.1349,4.0429,3.7344,3.4233,3.4233,3.4233,3.3685,3.2029,3.1664,3.1664,3.1664,3.1664,3.1664,3.1664,3.1664,3.1664,3.1664,3.1664,3.1664,3.1664,3.1664,3.1664,3.1664,3.1664,3.1664,3.1664,3.1664,3.1664,3.1664,3.089,2.9721,2.7972,2.8739,2.8152,2.5432,2.5432,2.3296,1.8813,1.8813,1.784,1.6083,1.6083,1.6083,1.6083,1.6083,1.6083,4.118,4.0794,0.0,0.0,0.0,0.0,5.8461,5.9632,6.0702,6.6824,0.0,0.0,0.0,0.0,0.0,0.0,0.0,0.0,0.0,0.0,0.0,0.0,0.0,0.0,0.0,0.0,0.0,0.0,0.0,0.0,0.0,0.0,0.0,0.0,6.1466,6.0914,6.0311,5.9759,5.9483,5.9483,5.9483,5.9483,5.9328,5.7169,5.6191,5.5848,5.1427,4.9616,4.9446,4.7121,4.6308,4.6308,4.6308,4.6308,4.6308,4.6308,4.6308,4.6308,4.6308,4.6308,4.6308,4.6308,4.6308,4.5744,4.3353,4.0808,3.8429,3.6066,3.3497,3.1664,3.1664,3.1664,3.1664,3.1664,3.1664,3.1664,3.1664,3.1664,3.1664,3.1664,3.1664,3.1664,3.1664,3.1664,3.1664,3.1664,3.1664,3.1664,3.1664,3.1664,3.1664,3.1664,3.1664,3.1664,3.1664,2.9338,2.778,2.778,2.5238,2.2711,2.0175,1.9978,1.8813,1.6083,1.6083,1.6083,1.6083,1.6083,1.6083,1.6083,1.6083,1.6083,3.9175,0.0,0.0,0.0,0.0,0.0,0.0,6.2364,0.0,0.0,0.0,0.0,0.0,0.0,0.0,0.0,0.0,0.0,0.0,0.0,0.0,0.0,0.0,0.0,0.0,0.0,0.0,0.0,0.0,0.0,0.0,0.0,0.0,0.0,6.1266,6.0713,5.9759,5.9583,5.9307,5.8956,5.7467,5.6831,5.7035,5.4882,5.3086,5.1427,4.8462,4.7295,4.7295,4.6638,4.6308,4.6308,4.6308,4.6308,4.6308,4.6308,4.6308,4.6308,4.6308,4.6308,4.5939,4.4277,4.3727,4.3175,4.0808,3.8429,3.6236,3.5509,3.3497,3.1664,3.1664,3.1664,3.1664,3.1664,3.1664,3.1664,3.1664,3.1664,3.1664,3.1664,3.1664,3.1664,3.1664,3.1664,3.1664,3.1664,3.1664,3.1664,3.1664,3.1664,3.1664,3.1664,3.1664,3.089,2.9135,2.8164,2.6216,2.2516,2.1539,2.0755,1.9978,1.9978,1.8813,1.6083,1.6083,1.6083,1.6083,1.6083,1.6083,1.6083,1.6083,1.6083,4.1401,0.0,0.0,0.0,0.0,0.0,0.0,0.0,0.0,0.0,0.0,0.0,0.0,0.0,0.0,0.0,0.0,0.0,0.0,0.0,0.0,0.0,0.0,0.0,0.0,0.0,0.0,0.0,0.0,0.0,0.0,0.0,0.0,0.0,6.0839,6.0311,5.9207,5.9182,5.842,5.7081,5.577,5.4475,5.2989,5.1884,5.0774,4.9446,4.7295,4.6308,4.6308,4.6308,4.6308,4.6308,4.6308,4.6308,4.6308,4.6308,4.6308,4.6308,4.6308,4.6308,4.5939,4.3371,4.2621,4.1905,3.8611,3.6421,3.5137,3.4046,3.2772,3.1664,3.1664,3.1664,3.1664,3.1664,3.1664,3.1664,3.1664,3.1664,3.1664,3.1664,3.1664,3.1664,3.1664,3.1664,3.1664,3.1664,3.1664,3.1664,3.1664,3.1664,3.1664,3.1664,3.07,2.9529,2.7972,2.5829,2.3296,2.0175,1.9002,1.8418,1.8418,1.8418,1.7642,1.6083,1.6083,1.6083,1.6083,1.6083,1.6083,1.6083,1.6083,1.6083,0.0,0.0,0.0,0.0,0.0,0.0,0.0,0.0,0.0,0.0,0.0,0.0,0.0,0.0,0.0,0.0,0.0,0.0,0.0,0.0,0.0,0.0,0.0,0.0,0.0,0.0,0.0,0.0,0.0,0.0,0.0,0.0,0.0,6.0362,6.0311,5.9809,5.873,5.8552,5.7106,0.0,5.4264,5.2014,4.8189,4.8672,4.8965,4.9064,4.7081,4.6269,4.6308,4.6308,4.6308,4.6308,4.6308,4.6308,4.6308,4.6308,4.6308,4.6308,4.6308,4.6114,4.5568,4.2996,4.2085,4.0988,3.6421,3.4966,3.4592,3.2408,3.1664,3.1664,3.1664,3.1664,3.1664,3.1664,3.1664,3.1664,3.1664,3.1664,3.1664,3.1664,3.1664,3.1664,3.1664,3.1664,3.1664,3.1664,3.1664,3.1664,3.1664,3.1664,3.1664,3.1664,2.9338,2.778,2.7395,2.2897,1.9978,1.9585,1.7452,1.6083,1.6083,1.6083,1.6083,1.6083,1.6083,1.6083,1.6083,1.6083,1.6083,1.6083,1.6083,1.6083,0.0,0.0,0.0,0.0,0.0,0.0,0.0,0.0,0.0,0.0,0.0,0.0,0.0,0.0,0.0,0.0,0.0,0.0,0.0,0.0,0.0,0.0,0.0,0.0,0.0,0.0,0.0,0.0,0.0,0.0,0.0,0.0,0.0,6.0337,6.0311,5.9809,5.873,5.7066,5.5602,0.0,5.0701,4.8639,4.7727,4.8189,4.7667,4.6471,4.5974,4.5996,4.6308,4.6308,4.6308,4.6308,4.6308,4.6308,4.6308,4.6308,4.6308,4.6308,4.6308,4.5021,4.2996,4.0627,3.8429,3.6236,3.3323,3.2394,3.2408,3.1853,3.1664,3.1664,3.1664,3.1664,3.1664,3.1664,3.1664,3.1664,3.1664,3.1664,3.1664,3.1664,3.1664,3.1664,3.1664,3.1664,3.1664,3.1664,3.1664,3.1664,3.1664,3.1664,3.1664,3.1664,2.9338,2.6999,2.4851,2.193,1.9199,1.7055,1.6474,1.6083,1.6083,1.6083,1.6083,1.6083,1.6083,1.6083,1.6083,1.6083,1.6083,1.6083,1.6083,1.6083,0.0,0.0,0.0,0.0,0.0,0.0,0.0,0.0,0.0,0.0,0.0,0.0,0.0,0.0,0.0,0.0,0.0,0.0,0.0,0.0,0.0,0.0,0.0,0.0,0.0,0.0,0.0,0.0,0.0,0.0,0.0,6.0763,6.0512,5.9935,5.9935,5.8918,5.6854,5.5698,5.3569,5.0524,4.8307,4.6737,4.5656,4.6325,4.6285,4.5371,4.5371,4.5488,4.5683,4.5683,4.5683,4.5703,4.5918,4.5996,4.6035,4.623,4.6308,4.6114,4.5002,4.3727,4.2085,3.8429,3.6421,3.4779,3.2408,3.1664,3.1664,3.1664,3.1664,3.1664,3.1664,3.1664,3.1664,3.1664,3.1664,3.1664,3.1664,3.1664,3.1664,3.1664,3.1664,3.1664,3.1664,3.1664,3.1664,3.1664,3.1664,3.1664,3.1664,3.1664,3.1284,2.9924,2.7576,2.4851,2.2312,1.9593,1.7642,1.6282,1.6083,1.6083,1.6083,1.6083,1.6083,1.6083,1.6083,1.6083,1.6083,1.6083,1.6083,1.6083,1.6083,1.6083,0.0,0.0,0.0,0.0,0.0,0.0,0.0,0.0,0.0,0.0,0.0,0.0,0.0,0.0,0.0,0.0,0.0,0.0,0.0,0.0,0.0,0.0,0.0,0.0,0.0,0.0,0.0,0.0,0.0,0.0,6.0211,6.0186,5.996,5.9508,5.9483,5.7981,5.467,5.4334,5.174,4.6867,4.6384,4.5271,4.373,4.4473,4.4844,4.4922,4.4922,4.4961,4.5019,4.5019,4.5019,4.5058,4.543,4.5566,4.5625,4.6035,4.5997,4.5278,4.3334,4.2085,4.0627,3.6606,3.4966,3.4233,3.2219,3.1664,3.1664,3.1664,3.1664,3.1664,3.1664,3.1664,3.1664,3.1664,3.1664,3.1664,3.1664,3.1664,3.1664,3.1664,3.1664,3.1664,3.1664,3.1664,3.1664,3.1664,3.1664,3.1664,3.1664,3.1284,3.0115,2.7972,2.5045,2.2321,2.0166,1.7642,1.6083,1.6083,1.6083,1.6083,1.6083,1.6083,1.6083,1.6083,1.6083,1.6083,1.6083,1.6083,1.6083,1.6083,1.6083,1.6083,0.0,0.0,0.0,0.0,0.0,0.0,0.0,0.0,0.0,0.0,0.0,0.0,0.0,0.0,0.0,0.0,0.0,0.0,0.0,0.0,0.0,0.0,0.0,0.0,0.0,0.0,0.0,0.0,0.0,0.0,5.9608,5.9608,5.9558,5.9483,5.9483,5.7981,5.467,5.2875,5.0291,4.6706,4.4965,4.4021,4.3711,4.3828,4.4101,4.4492,4.4492,4.4687,4.5019,4.5019,4.5019,4.5039,4.5098,4.5117,4.5176,4.5605,4.4489,4.2542,4.2513,3.9886,3.6236,3.5509,3.3873,3.2029,3.1853,3.1664,3.1664,3.1664,3.1664,3.1664,3.1664,3.1664,3.1664,3.1664,3.1664,3.1664,3.1664,3.1664,3.1664,3.1664,3.1664,3.1664,3.1664,3.1664,3.1664,3.1664,3.1664,3.1664,3.1664,2.9721,2.8164,2.778,2.3481,2.0363,1.9978,1.7642,1.6083,1.6083,1.6083,1.6083,1.6083,1.6083,1.6083,1.6083,1.6083,1.6083,1.6083,1.6083,1.6083,1.6083,1.6083,1.6083,0.0,0.0,0.0,0.0,0.0,0.0,0.0,0.0,0.0,0.0,0.0,0.0,0.0,0.0,0.0,0.0,0.0,0.0,0.0,0.0,0.0,0.0,0.0,0.0,0.0,0.0,0.0,0.0,0.0,5.9483,5.9483,5.9232,5.8569,5.7384,5.6936,5.4822,5.088,4.9898,4.7962,4.5128,4.4186,4.3711,4.3711,4.3711,4.3808,4.4004,4.4004,4.4121,4.4277,4.4277,4.4277,4.4316,4.457,4.4668,4.4557,4.3727,4.2757,4.1674,3.892,3.6829,3.5122,3.3471,3.2445,3.1664,3.1664,3.1664,3.1664,3.1664,3.1664,3.1664,3.1664,3.1664,3.1664,3.1664,3.1664,3.1664,3.1664,3.1664,3.1664,3.1664,3.1664,3.1664,3.1664,3.1664,3.1664,3.1664,3.1664,3.108,2.9721,2.856,2.6613,2.3686,2.1343,1.9396,1.8031,1.6665,1.6083,1.6083,1.6083,1.6083,1.6083,1.6083,1.6083,1.6083,1.6083,1.6083,1.6083,1.6083,1.6083,1.6083,1.6083,1.6083,0.0,0.0,0.0,0.0,0.0,0.0,0.0,0.0,0.0,0.0,0.0,0.0,0.0,0.0,0.0,0.0,0.0,0.0,0.0,0.0,0.0,0.0,0.0,0.0,0.0,0.0,0.0,0.0,0.0,5.9081,5.9081,5.873,5.7537,5.5397,5.486,5.2487,4.7701,4.7108,4.5595,4.3711,4.3711,4.3711,4.3711,4.3711,4.3711,4.3711,4.3711,4.3711,4.3711,4.3711,4.3711,4.373,4.4082,4.4219,4.3923,4.2057,4.1137,4.0121,3.5825,3.4315,3.3772,3.1729,3.1263,3.1463,3.153,3.1557,3.157,3.165,3.1664,3.1664,3.1664,3.1664,3.1664,3.1664,3.1664,3.1664,3.1664,3.1664,3.1664,3.1664,3.1664,3.1664,3.1664,3.1664,3.1664,3.1664,3.108,2.9924,2.7972,2.6613,2.4269,2.0363,1.9396,1.8228,1.6275,1.6083,1.6083,1.6083,1.6083,1.6083,1.6083,1.6083,1.6083,1.6083,1.6083,1.6083,1.6083,1.6083,1.6083,1.6083,1.6083,1.6083,0.0,0.0,0.0,0.0,0.0,0.0,0.0,0.0,0.0,0.0,0.0,0.0,0.0,0.0,0.0,0.0,0.0,0.0,0.0,0.0,0.0,0.0,0.0,0.0,0.0,0.0,0.0,0.0,0.0,5.7976,5.7976,5.7951,5.6968,5.4849,5.467,5.2487,4.7701,4.5207,4.3896,4.3711,4.3711,4.3711,4.3711,4.3711,4.3711,4.3711,4.3711,4.3711,4.3711,4.3711,4.3711,4.3711,4.373,4.373,4.3458,4.1615,3.9513,3.7299,3.5132,3.2956,3.102,3.0822,3.0822,3.0889,3.1169,3.1249,3.1303,3.1597,3.1664,3.1664,3.1664,3.1664,3.1664,3.1664,3.1664,3.1664,3.1664,3.1664,3.1664,3.1664,3.1664,3.1664,3.1664,3.1664,3.1664,3.1664,2.9529,2.7972,2.778,2.3481,2.0363,1.9978,1.784,1.6275,1.6083,1.6083,1.6083,1.6083,1.6083,1.6083,1.6083,1.6083,1.6083,1.6083,1.6083,1.6083,1.6083,1.6083,1.6083,1.6083,1.6083,1.6083,0.0,0.0,0.0,0.0,0.0,0.0,0.0,0.0,0.0,0.0,0.0,0.0,0.0,0.0,0.0,0.0,0.0,0.0,0.0,0.0,0.0,0.0,0.0,0.0,0.0,0.0,0.0,0.0,0.0,0.0,5.7901,5.627,5.4324,5.2258,5.0523,4.8211,4.5207,4.4265,4.3711,4.3711,4.3711,4.3555,4.3301,4.3574,4.3555,4.332,4.3594,4.3711,4.3711,4.3711,4.3711,4.3526,4.2141,4.1453,4.1137,3.7497,3.5605,3.4733,3.2369,3.1177,3.0755,3.0581,3.0635,3.0808,3.0915,3.1076,3.1249,3.1356,3.1517,3.1664,3.1664,3.1664,3.1664,3.1664,3.1664,3.1664,3.1664,3.1664,3.1664,3.1664,3.1664,3.1664,3.1664,3.1664,3.108,2.9529,2.8368,2.6602,2.3286,2.1147,1.9396,1.7642,1.6665,1.6083,1.6083,1.6083,1.6083,1.6083,1.6083,1.6083,1.6083,1.6083,1.6083,1.6083,1.6083,1.6083,1.6083,1.6083,1.6083,1.6083,1.6083,1.6083,3.2606,0.0,0.0,0.0,0.0,0.0,0.0,0.0,0.0,0.0,0.0,0.0,0.0,0.0,0.0,0.0,0.0,0.0,0.0,0.0,0.0,0.0,0.0,0.0,0.0,0.0,0.0,0.0,0.0,0.0,5.6375,5.4599,5.2372,4.9553,4.7014,4.5128,4.3711,4.3711,4.3711,4.3711,4.3711,4.3555,4.3301,4.3437,4.3418,4.3301,4.3437,4.3574,4.3711,4.3711,4.3195,4.2493,4.0932,3.9734,3.8715,3.4766,3.353,3.3324,3.0849,3.0167,3.0474,3.0274,3.0341,3.0515,3.0621,3.0782,3.0982,3.1169,3.137,3.1543,3.1637,3.1664,3.1664,3.1664,3.1664,3.1664,3.1664,3.1664,3.1664,3.1664,3.1664,3.1664,3.1664,3.089,2.9721,2.7972,2.6216,2.388,2.0363,1.9199,1.8031,1.6275,1.6083,1.6083,1.6083,1.6083,1.6083,1.6083,1.6083,1.6083,1.6083,1.6083,1.6083,1.6083,1.6083,1.6083,1.6083,1.6083,1.6083,1.6083,1.6083,1.609,0.0,0.0,0.0,0.0,0.0,0.0,0.0,0.0,0.0,0.0,0.0,0.0,0.0,0.0,0.0,0.0,0.0,0.0,0.0,0.0,0.0,0.0,0.0,0.0,0.0,0.0,0.0,0.0,0.0,5.5263,5.3251,5.2949,5.1071,4.6888,4.4822,4.3711,4.3711,4.3711,4.3711,4.3711,4.3711,4.3691,4.3672,4.3281,4.3301,4.3672,4.3242,4.3137,4.3507,4.3526,4.2307,4.0241,4.0072,3.8715,3.6485,3.4082,3.3219,3.3043,3.0616,2.9913,2.9913,2.9913,2.9913,2.9967,3.0261,3.0354,3.0474,3.1036,3.1209,3.1289,3.1597,3.1664,3.1664,3.1664,3.1664,3.1664,3.1664,3.1664,3.1664,3.1664,3.1664,3.1677,3.1664,2.9529,2.778,2.7588,2.3296,1.9978,1.9978,1.7642,1.6083,1.6083,1.6083,1.6083,1.6083,1.6083,1.6083,1.6083,1.6083,1.6083,1.6083,1.6083,1.6083,1.6083,1.6083,1.6083,1.6083,1.6083,1.6083,1.6083,1.6083,1.6103,2.8083,0.0,0.0,0.0,0.0,0.0,0.0,0.0,0.0,0.0,0.0,0.0,0.0,0.0,0.0,0.0,0.0,0.0,0.0,0.0,0.0,0.0,0.0,0.0,0.0,0.0,0.0,0.0,5.4819,5.3726,5.31,5.0142,4.7326,4.4658,4.4021,4.3711,4.3711,4.3711,4.3711,4.3711,4.3711,4.3555,4.3262,4.3437,4.3437,4.3242,4.141,4.0731,4.0861,4.1157,3.9742,3.7318,3.587,3.494,3.4082,3.1657,3.0781,3.0781,3.0093,2.9913,2.9913,2.9913,2.9913,2.9927,3.0007,3.0194,3.0394,3.0555,3.0902,3.1289,3.1597,3.1664,3.1664,3.1664,3.1664,3.1664,3.1664,3.1664,3.1664,3.1664,3.1664,3.108,2.9135,2.8356,2.6602,2.2702,2.0951,1.9396,1.7452,1.6474,1.6083,1.6083,1.6083,1.6083,1.6083,1.6083,1.6083,1.6083,1.6083,1.6083,1.6083,1.6083,1.6083,1.6083,1.6083,1.6083,1.6083,1.6083,1.6083,1.6083,1.611,1.6157,2.8854,2.9501,0.0,0.0,0.0,0.0,0.0,0.0,0.0,0.0,0.0,0.0,0.0,0.0,0.0,0.0,0.0,0.0,0.0,0.0,0.0,0.0,0.0,0.0,0.0,0.0,0.0,5.4279,5.3201,5.1686,5.0125,4.6732,4.4422,4.3164,4.3164,4.3262,4.3437,4.3437,4.3535,4.3711,4.3711,4.3476,4.3086,4.3144,4.3144,4.2884,4.0325,3.8919,3.8066,3.7301,3.6083,3.4593,3.3573,3.2661,3.1649,3.0396,2.9913,2.9913,2.9913,2.9913,2.9913,2.9913,2.9913,2.9913,2.9913,3.0034,3.0207,3.0327,3.0782,3.1263,3.1436,3.1583,3.1664,3.1664,3.089,3.0115,3.0115,2.9135,2.8739,2.9911,3.0115,2.9326,2.6602,2.5238,2.3491,2.0363,1.9002,1.784,1.6275,1.6083,1.6083,1.6083,1.6083,1.6083,1.6083,1.6083,1.6083,1.6083,1.6083,1.6083,1.6083,1.6083,1.6083,1.6083,1.6083,1.6083,1.6083,1.6083,1.609,1.6103,1.3684,1.3936,3.0275,3.0238,3.112,0.0,0.0,0.0,4.2013,4.291,0.0,0.0,0.0,0.0,0.0,0.0,0.0,0.0,0.0,0.0,0.0,0.0,0.0,0.0,0.0,0.0,0.0,5.4561,5.3799,5.1677,5.1213,4.926,4.5481,4.3499,4.2422,4.2422,4.2422,4.2617,4.3008,4.3008,4.3203,4.3574,4.3613,4.3418,4.2988,4.2656,4.2514,4.2442,3.9465,3.7188,3.5324,3.2968,3.1978,3.2052,3.2377,3.1336,2.9513,2.9766,2.9887,2.9913,2.9913,2.9913,2.9913,2.9913,2.9913,2.9913,2.9913,2.9913,2.998,3.0274,3.0728,3.1129,3.1169,3.1181,3.1191,3.1218,2.9289,2.7349,2.7384,2.5625,2.4463,2.6602,2.7191,2.6602,2.388,2.1539,1.9978,1.9585,1.7642,1.6083,1.6083,1.6083,1.6083,1.6083,1.6083,1.6083,1.6083,1.6083,1.6083,1.6083,1.6083,1.6083,1.6083,1.6083,1.6083,1.6083,1.6083,1.6083,1.6083,1.6083,1.6103,1.5937,1.1073,1.0895,3.3065,3.2423,3.1958,3.127,0.0,0.0,0.0,3.4502,0.0,0.0,0.0,0.0,0.0,0.0,0.0,0.0,0.0,0.0,0.0,0.0,0.0,0.0,0.0,0.0,0.0,5.4561,5.3799,5.1677,4.8658,4.5616,4.3201,4.2582,4.2422,4.2422,4.2422,4.2461,4.2558,4.2558,4.2598,4.2676,4.3027,4.2969,4.2558,4.2832,4.18,3.9832,3.7024,3.4718,3.2617,3.0057,2.9125,2.9385,2.9685,2.9609,2.9486,2.9553,2.9713,2.9913,2.9913,2.9913,2.9913,2.9913,2.9913,2.9913,2.9913,2.9913,2.998,3.0274,3.0448,3.0581,3.0822,2.939,2.7968,2.8186,2.6298,2.4619,2.4615,2.4269,2.3481,2.193,2.3286,2.388,2.1147,2.0363,1.9199,1.7253,1.6474,1.6083,1.6083,1.6083,1.6083,1.6083,1.6083,1.6083,1.6083,1.6083,1.6083,1.6083,1.6083,1.6083,1.6083,1.6083,1.6083,1.6083,1.6083,1.6083,1.6083,1.611,1.6144,1.5991,1.4988,1.0511,3.4873,3.3744,3.3425,3.3095,0.0,0.0,0.0,0.0,0.0,0.0,0.0,0.0,0.0,0.0,0.0,0.0,0.0,0.0,0.0,0.0,0.0,0.0,0.0,0.0,0.0,5.3331,5.2263,4.9537,4.5684,4.3014,4.1797,4.1797,4.1797,4.1797,4.1797,4.1894,4.2109,4.2109,4.2226,4.2422,4.2441,4.2441,4.2422,4.1257,4.0084,3.9068,3.536,3.3137,3.2124,2.9492,2.847,2.8617,2.8764,2.8911,2.9085,2.9379,2.9579,2.9726,2.986,2.9913,2.9913,2.9913,2.9913,2.9913,2.9913,2.9913,2.994,3.01,2.9313,2.8515,2.8653,2.7097,2.5329,2.5261,2.3375,2.1713,2.1735,2.0809,1.9485,1.8213,1.9207,1.9593,1.8228,1.8031,1.7642,1.6275,1.6083,1.6083,1.6083,1.6083,1.6083,1.6083,1.6083,1.6083,1.6083,1.6083,1.6083,1.6083,1.6083,1.6083,1.6083,1.6083,1.6083,1.6083,1.6083,1.6056,1.6001,1.6042,1.4638,1.2217,1.4831,1.0378,0.0,0.0,0.0,0.0,0.0,3.3185,0.0,0.0,0.0,0.0,0.0,0.0,0.0,0.0,0.0,0.0,0.0,0.0,0.0,0.0,0.0,0.0,0.0,0.0,0.0,5.0896,4.9446,4.6961,4.3043,4.0848,4.1016,4.1133,4.1172,4.1172,4.1172,4.1348,4.168,4.168,4.1855,4.2187,4.1933,4.1775,4.151,3.9336,3.822,3.763,3.386,3.2052,3.171,2.9556,2.8604,2.8604,2.8537,2.8551,2.8671,2.9138,2.9379,2.9513,2.9753,2.9873,2.9913,2.9913,2.9913,2.9913,2.9913,2.9913,2.9913,2.9913,2.8239,2.6547,2.6547,2.4638,2.2537,2.2576,2.0503,1.8663,1.9044,1.7381,1.5893,1.6015,1.6062,1.6083,1.6083,1.6083,1.6083,1.6083,1.6083,1.6083,1.6083,1.6083,1.6083,1.6083,1.6083,1.6083,1.6083,1.6083,1.6083,1.6083,1.6083,1.6083,1.6083,1.6083,1.6083,1.6083,1.6062,1.6008,1.6124,1.611,1.3893,0.9703,1.1844,0.8257,0.0,0.0,0.0,0.0,3.7404,0.0,0.0,0.0,0.0,0.0,0.0,0.0,0.0,0.0,0.0,0.0,0.0,0.0,0.0,0.0,0.0,0.0,0.0,0.0,0.0,0.0,4.5047,4.5647,4.1589,3.9409,4.0602,4.0957,4.1172,4.1172,4.1172,4.1191,4.125,4.125,4.1269,4.1328,4.1641,4.0636,3.8377,3.8707,3.6669,3.2617,3.2414,3.121,2.9352,2.8896,2.8604,2.8577,2.831,2.8364,2.8617,2.8684,2.9032,2.9486,2.9526,2.97,2.9913,2.9913,2.9913,2.9913,2.9913,2.9913,2.9913,2.9913,2.8101,2.6276,2.6276,2.279,1.9532,1.9518,1.7686,1.5855,1.6008,1.5952,1.5859,1.5879,1.5988,1.6083,1.6083,1.6083,1.6083,1.6083,1.6083,1.6083,1.6083,1.6083,1.6083,1.6083,1.6083,1.6083,1.6083,1.6083,1.6083,1.6083,1.6083,1.6083,1.6083,1.6083,1.6083,1.6083,1.6186,1.6138,1.6124,1.6126,1.5703,1.5028,0.609,0.1178,0.0,0.0,0.0,0.0,0.0,0.0,3.3776,0.0,3.2168,0.0,0.0,0.0,0.0,0.0,0.0,0.0,0.0,0.0,0.0,0.0,0.0,0.0,0.0,0.0,0.0,0.0,0.0,0.0,0.0,3.8287,3.9297,4.0293,4.0801,4.0801,4.1035,4.1172,4.1172,4.1172,4.1172,4.1172,4.1094,4.0078,3.8238,3.7038,3.4932,3.2214,3.1195,3.0148,2.9285,2.9165,2.9018,2.8831,2.8524,2.8377,2.8364,2.8537,2.8764,2.9018,2.9366,2.9566,2.9686,2.986,2.9913,2.9913,2.9913,2.9913,2.9554,2.8076,2.6048,2.3838,2.2362,1.9427,1.686,1.6748,1.6024,1.5316,1.5472,1.5554,1.5622,1.571,1.5852,1.5947,1.5947,1.6022,1.6083,1.6083,1.6083,1.6083,1.6083,1.6083,1.6083,1.6083,1.6083,1.6083,1.6083,1.6083,1.6083,1.6083,1.6083,1.6083,1.6083,1.6083,1.6056,1.6192,1.6144,1.6062,1.6126,1.6036,1.6187,1.5794,0.5027,-0.0,4.0495,0.0,0.0,0.0,0.0,0.0,0.0,0.0,0.0,0.0,0.0,0.0,0.0,0.0,0.0,0.0,0.0,0.0,0.0,0.0,0.0,0.0,0.0,0.0,0.0,0.0,0.0,0.0,0.0,3.6876,3.8301,3.9414,4.0156,4.0508,4.084,4.1055,4.1172,4.1172,4.1172,4.1172,4.0202,3.891,3.7326,3.4866,3.2964,3.1295,3.0,2.9486,2.9486,2.9486,2.9312,2.9005,2.8724,2.8417,2.8177,2.839,2.8537,2.8671,2.9098,2.9352,2.9526,2.982,2.9913,2.9734,2.9182,2.8809,2.8436,2.5866,2.3473,2.1083,1.9427,1.7025,1.5181,1.5181,1.5181,1.5215,1.5323,1.5377,1.5445,1.5554,1.5696,1.5791,1.5791,1.5954,1.6083,1.6083,1.6083,1.6083,1.6083,1.6083,1.6083,1.6083,1.6083,1.6083,1.6083,1.6083,1.6083,1.6083,1.6083,1.6083,1.6083,1.6056,1.6001,1.6124,1.6069,1.6147,1.618,1.6152,1.4521,1.1518,0.3629,-0.0,0.0,0.0,0.0,3.8068,0.0,0.0,0.0,0.0,3.4981,0.0,0.0,0.0,0.0,0.0,0.0,3.2677,0.0,0.0,0.0,0.0,0.0,0.0,0.0,0.0,0.0,0.0,0.0,0.0,3.5352,0.0,3.7838,3.8379,3.9219,4.0488,4.0527,4.0742,4.1172,4.1172,4.1172,4.1172,3.9022,3.6922,3.4684,3.2705,3.0735,2.8816,2.9232,2.9486,2.9486,2.9486,2.9312,2.9005,2.8724,2.8417,2.8136,2.815,2.835,2.8604,2.8631,2.9005,2.9526,2.982,2.9913,2.9362,2.6966,2.6229,2.5866,2.3289,2.0899,1.9056,1.8871,1.7025,1.5181,1.5181,1.5181,1.5181,1.5187,1.5303,1.5411,1.5418,1.554,1.5649,1.5649,1.5886,1.6083,1.6083,1.6083,1.6083,1.6083,1.6083,1.6083,1.6083,1.6083,1.6083,1.6083,1.6083,1.6083,1.6083,1.6083,1.6083,1.6083,1.6186,1.6131,1.6124,1.6112,1.6187,1.618,1.6074,1.0744,0.0573,0.0191,-0.0,0.0,0.0,4.7379,4.1397,0.0,0.0,0.0,0.0,0.0,0.0,0.0,0.0,0.0,0.0,0.0,3.3305,0.0,0.0,0.0,0.0,0.0,0.0,0.0,0.0,0.0,0.0,0.0,3.5291,3.3947,3.4033,0.0,3.7461,3.8476,3.9219,4.0078,4.0586,4.0742,4.1035,4.0509,3.904,3.8231,3.5943,3.2546,3.1843,3.0548,2.8617,2.8818,2.9125,2.9472,2.9272,2.9125,2.9005,2.8724,2.8417,2.8136,2.8136,2.8217,2.8323,2.8537,2.8858,2.9245,2.9526,2.8539,2.7108,2.6364,2.5127,2.3289,2.0714,1.9604,1.8499,1.6845,1.5924,1.5181,1.5181,1.5181,1.5181,1.5181,1.5221,1.5262,1.5262,1.5384,1.5486,1.5486,1.5655,1.5818,1.5913,1.5934,1.5967,1.6069,1.6083,1.6083,1.6083,1.6083,1.6083,1.6083,1.6083,1.6035,1.594,1.5934,1.59,1.5832,1.5986,1.5952,1.6105,1.6029,1.2593,0.537,0.5358,0.3629,-0.0,-0.0,-0.0,4.8145,4.9127,0.0,4.4283,4.3448,0.0,3.6905,0.0,0.0,0.0,0.0,0.0,0.0,0.0,0.0,3.489,3.3439,0.0,0.0,0.0,0.0,0.0,0.0,0.0,0.0,0.0,3.1314,3.277,3.1789,3.2116,0.0,0.0,3.7578,3.832,3.9453,4.0215,4.0527,4.0801,3.9869,3.7896,3.7082,3.4813,3.1392,3.0592,2.9565,2.8444,2.8444,2.8724,2.9152,2.8845,2.8791,2.8858,2.8564,2.8323,2.8136,2.8136,2.8136,2.819,2.8497,2.8724,2.8751,2.8328,2.698,2.5403,2.4009,2.2434,2.0621,1.8305,1.7584,1.7211,1.5549,1.5181,1.5181,1.5181,1.5181,1.5181,1.5181,1.5181,1.5181,1.5181,1.5262,1.533,1.533,1.5411,1.5547,1.5744,1.5778,1.5811,1.5913,1.5927,1.5927,1.5927,1.5927,1.5927,1.5927,1.5927,1.5879,1.5784,1.5791,1.5771,1.5897,1.587,1.6029,1.6187,1.2395,0.6917,-0.0,-0.0,-0.0,-0.0,-0.0,-0.0]},{"header":{"parameterUnit":"m.s-1","parameterCategory":1,"la1":30.6,"la2":29.2853,"lo1":-89.7004,"lo2":-87.6739,"dy":0.0162,"dx":0.0183,"nx":112,"ny":82,"refTime":"2026-02-19T00:00:00:Z","depth":0,"parameterNumber":3,"parameterNumberName":"V-component_of_WINDS"},"data":[0.0,0.0,0.0,0.0,0.0,0.0,0.0,0.0,0.0,0.0,0.0,0.0,0.0,0.0,0.0,0.0,0.0,0.0,0.0,0.0,0.0,0.0,0.0,0.0,0.0,0.0,0.0,0.0,0.0,0.0,0.0,0.0,0.0,0.0,0.0,0.0,0.0,0.0,0.0,0.0,0.0,0.0,0.0,0.0,0.0,0.0,0.0,0.0,0.0,0.0,0.0,0.0,0.0,0.0,0.0,0.0,0.0,0.0,0.0,0.0,0.0,0.0,0.0,0.0,0.0,0.0,0.0,0.0,0.0,0.0,0.0,0.0,0.0,0.0,0.0,0.0,0.0,0.0,0.0,0.0,0.0,0.0,0.0,0.0,0.0,0.0,0.0,0.0,0.0,0.0,0.0,-4.2936,-5.1574,-5.7022,-5.7022,-5.5792,-5.0896,-4.1254,0.0,0.0,0.0,0.0,0.0,0.0,0.0,0.0,0.0,0.0,0.0,0.0,0.0,0.0,0.0,0.0,0.0,0.0,0.0,0.0,0.0,0.0,0.0,0.0,0.0,0.0,0.0,0.0,0.0,0.0,0.0,0.0,0.0,0.0,0.0,0.0,0.0,0.0,0.0,0.0,0.0,0.0,0.0,0.0,0.0,0.0,0.0,0.0,0.0,0.0,0.0,0.0,0.0,0.0,0.0,0.0,0.0,0.0,0.0,0.0,0.0,0.0,0.0,0.0,0.0,0.0,0.0,0.0,0.0,0.0,0.0,0.0,0.0,0.0,0.0,0.0,0.0,0.0,0.0,0.0,0.0,0.0,0.0,0.0,0.0,0.0,0.0,0.0,0.0,0.0,0.0,0.0,0.0,0.0,0.0,0.0,0.0,0.0,0.0,0.0,0.0,0.0,0.0,0.0,-4.0651,-5.1398,-5.5239,-5.7022,-5.7022,-5.4737,-4.9841,-4.1731,0.0,0.0,0.0,0.0,0.0,0.0,0.0,0.0,0.0,0.0,0.0,0.0,0.0,0.0,0.0,0.0,0.0,0.0,0.0,0.0,0.0,0.0,0.0,0.0,0.0,0.0,0.0,0.0,0.0,0.0,0.0,0.0,0.0,0.0,0.0,0.0,0.0,0.0,0.0,0.0,0.0,0.0,0.0,0.0,0.0,0.0,0.0,0.0,0.0,0.0,0.0,0.0,0.0,0.0,0.0,0.0,0.0,0.0,0.0,0.0,0.0,0.0,0.0,0.0,0.0,0.0,0.0,0.0,0.0,0.0,0.0,0.0,0.0,0.0,0.0,0.0,0.0,0.0,0.0,0.0,0.0,0.0,0.0,0.0,0.0,0.0,0.0,0.0,0.0,0.0,0.0,0.0,0.0,0.0,0.0,0.0,0.0,0.0,0.0,0.0,0.0,0.0,0.0,-3.7538,-4.3288,-5.4285,-5.6394,-5.7022,-5.7022,-5.5064,-5.0243,-4.1856,-3.8165,0.0,0.0,0.0,0.0,0.0,0.0,0.0,0.0,0.0,0.0,0.0,0.0,0.0,0.0,0.0,0.0,0.0,0.0,0.0,0.0,0.0,0.0,0.0,0.0,0.0,0.0,0.0,0.0,0.0,0.0,0.0,0.0,0.0,0.0,0.0,0.0,0.0,0.0,0.0,0.0,0.0,0.0,0.0,0.0,0.0,0.0,0.0,0.0,0.0,0.0,0.0,0.0,0.0,0.0,0.0,0.0,0.0,0.0,0.0,0.0,0.0,0.0,0.0,0.0,0.0,0.0,0.0,0.0,0.0,0.0,0.0,0.0,0.0,0.0,0.0,0.0,0.0,0.0,0.0,0.0,0.0,0.0,0.0,0.0,0.0,0.0,0.0,0.0,0.0,0.0,0.0,0.0,0.0,0.0,0.0,0.0,0.0,0.0,0.0,0.0,0.0,0.0,-4.2936,-4.7054,-5.534,-5.6595,-5.6846,-5.6846,-5.4712,-4.9941,-4.1856,-3.7086,0.0,0.0,0.0,0.0,0.0,0.0,0.0,0.0,0.0,0.0,0.0,0.0,0.0,0.0,0.0,0.0,0.0,0.0,0.0,0.0,0.0,0.0,0.0,0.0,0.0,0.0,0.0,0.0,0.0,0.0,0.0,0.0,0.0,0.0,0.0,0.0,0.0,0.0,0.0,0.0,0.0,0.0,0.0,0.0,0.0,0.0,0.0,0.0,0.0,0.0,0.0,0.0,0.0,0.0,0.0,0.0,0.0,0.0,0.0,0.0,0.0,0.0,0.0,0.0,0.0,0.0,0.0,0.0,0.0,0.0,0.0,0.0,0.0,0.0,0.0,0.0,0.0,0.0,0.0,0.0,0.0,0.0,0.0,0.0,0.0,0.0,0.0,0.0,0.0,0.0,0.0,0.0,0.0,0.0,0.0,0.0,0.0,0.0,0.0,0.0,0.0,0.0,-4.6577,-5.2603,-5.5867,-5.6244,-5.6269,-5.6269,-5.2377,-4.7481,-4.1706,-3.5253,0.0,0.0,0.0,0.0,0.0,0.0,0.0,0.0,0.0,0.0,0.0,0.0,0.0,0.0,0.0,0.0,0.0,0.0,0.0,0.0,0.0,0.0,0.0,0.0,0.0,0.0,0.0,0.0,0.0,0.0,0.0,0.0,0.0,0.0,0.0,0.0,0.0,0.0,0.0,0.0,0.0,0.0,0.0,0.0,0.0,0.0,0.0,0.0,0.0,0.0,0.0,0.0,0.0,0.0,0.0,0.0,0.0,0.0,0.0,0.0,0.0,0.0,0.0,0.0,0.0,0.0,0.0,0.0,0.0,0.0,0.0,0.0,0.0,0.0,0.0,0.0,0.0,0.0,0.0,0.0,0.0,0.0,0.0,0.0,0.0,0.0,0.0,0.0,0.0,0.0,0.0,0.0,0.0,0.0,0.0,0.0,0.0,0.0,0.0,0.0,0.0,0.0,-4.4844,-5.0469,0.0,-5.6219,-5.6068,-5.5717,-5.3507,-4.8761,-4.0802,0.0,0.0,0.0,0.0,0.0,0.0,0.0,0.0,0.0,0.0,0.0,0.0,0.0,0.0,0.0,0.0,0.0,0.0,0.0,0.0,0.0,0.0,0.0,0.0,0.0,0.0,0.0,0.0,0.0,0.0,0.0,0.0,0.0,0.0,0.0,0.0,0.0,0.0,0.0,0.0,0.0,0.0,0.0,0.0,0.0,0.0,0.0,0.0,0.0,0.0,0.0,0.0,0.0,0.0,0.0,0.0,0.0,0.0,0.0,0.0,0.0,0.0,0.0,0.0,0.0,0.0,0.0,0.0,0.0,0.0,0.0,0.0,0.0,0.0,0.0,0.0,0.0,0.0,0.0,0.0,0.0,0.0,0.0,0.0,0.0,0.0,0.0,0.0,0.0,0.0,0.0,0.0,0.0,0.0,0.0,0.0,0.0,0.0,0.0,0.0,0.0,0.0,-3.8793,-4.4794,-5.0419,0.0,-5.6219,-5.5993,-5.544,-5.4061,-4.9367,-4.0224,0.0,0.0,0.0,0.0,0.0,0.0,0.0,0.0,0.0,0.0,0.0,0.0,0.0,0.0,0.0,0.0,0.0,0.0,0.0,0.0,0.0,0.0,0.0,0.0,0.0,0.0,0.0,0.0,0.0,0.0,0.0,0.0,0.0,0.0,0.0,0.0,0.0,0.0,0.0,0.0,0.0,0.0,0.0,0.0,0.0,0.0,0.0,0.0,0.0,0.0,0.0,0.0,0.0,0.0,0.0,0.0,0.0,0.0,0.0,0.0,0.0,0.0,0.0,0.0,0.0,0.0,0.0,0.0,0.0,0.0,0.0,0.0,0.0,0.0,0.0,0.0,0.0,0.0,0.0,0.0,0.0,0.0,0.0,0.0,0.0,0.0,0.0,0.0,0.0,0.0,0.0,0.0,0.0,0.0,0.0,0.0,0.0,0.0,0.0,0.0,0.0,0.0,-3.912,-4.7431,-5.3783,-5.5968,-5.6219,-5.5993,-5.5415,-5.3346,-4.8564,0.0,0.0,0.0,0.0,0.0,0.0,0.0,0.0,0.0,0.0,0.0,0.0,0.0,0.0,0.0,0.0,0.0,0.0,0.0,0.0,0.0,0.0,0.0,0.0,0.0,0.0,0.0,0.0,0.0,0.0,0.0,0.0,0.0,0.0,0.0,0.0,0.0,0.0,0.0,0.0,0.0,0.0,0.0,0.0,0.0,0.0,0.0,0.0,0.0,0.0,0.0,0.0,0.0,0.0,0.0,0.0,0.0,0.0,0.0,0.0,0.0,0.0,0.0,0.0,0.0,0.0,0.0,0.0,0.0,0.0,0.0,0.0,0.0,0.0,0.0,0.0,0.0,0.0,0.0,0.0,0.0,0.0,0.0,0.0,0.0,0.0,0.0,0.0,0.0,0.0,0.0,0.0,0.0,0.0,0.0,0.0,0.0,0.0,0.0,0.0,0.0,0.0,0.0,-3.912,-4.7431,-5.3783,-5.5968,-5.7277,-5.7718,-5.673,-5.5992,-5.1134,-4.0958,0.0,0.0,0.0,0.0,0.0,0.0,0.0,0.0,0.0,0.0,0.0,0.0,0.0,0.0,0.0,0.0,0.0,0.0,0.0,0.0,0.0,0.0,0.0,0.0,0.0,0.0,0.0,0.0,0.0,0.0,0.0,0.0,0.0,0.0,0.0,0.0,0.0,0.0,0.0,0.0,0.0,0.0,0.0,0.0,0.0,0.0,0.0,0.0,0.0,0.0,0.0,0.0,0.0,0.0,0.0,0.0,0.0,0.0,0.0,0.0,0.0,0.0,0.0,0.0,0.0,0.0,0.0,0.0,0.0,0.0,0.0,0.0,0.0,0.0,0.0,0.0,0.0,0.0,0.0,0.0,0.0,0.0,0.0,0.0,0.0,0.0,0.0,0.0,0.0,0.0,0.0,0.0,0.0,0.0,0.0,0.0,0.0,0.0,0.0,0.0,0.0,0.0,-4.015,-4.8454,-5.5066,-5.799,-5.9322,-5.9505,-5.8349,-5.8236,-5.3828,-4.3272,0.0,0.0,0.0,0.0,0.0,0.0,0.0,0.0,0.0,0.0,0.0,0.0,0.0,0.0,0.0,0.0,0.0,0.0,0.0,0.0,0.0,0.0,0.0,0.0,0.0,0.0,0.0,0.0,0.0,0.0,0.0,0.0,0.0,0.0,0.0,0.0,0.0,0.0,0.0,0.0,0.0,0.0,0.0,0.0,0.0,0.0,0.0,0.0,0.0,0.0,0.0,0.0,0.0,0.0,0.0,0.0,0.0,0.0,0.0,0.0,0.0,0.0,0.0,0.0,0.0,0.0,0.0,0.0,0.0,0.0,0.0,0.0,0.0,0.0,0.0,0.0,0.0,0.0,0.0,0.0,0.0,0.0,0.0,0.0,0.0,0.0,0.0,0.0,0.0,0.0,0.0,0.0,0.0,0.0,0.0,0.0,0.0,0.0,0.0,0.0,0.0,0.0,-4.1646,-5.0217,-5.7116,-6.1213,-6.173,-6.1392,-6.0171,-6.0308,-5.6366,-4.6587,0.0,0.0,0.0,0.0,0.0,0.0,0.0,0.0,0.0,0.0,0.0,0.0,0.0,0.0,0.0,0.0,0.0,0.0,0.0,0.0,0.0,0.0,0.0,0.0,0.0,0.0,0.0,0.0,0.0,0.0,0.0,0.0,0.0,0.0,0.0,0.0,0.0,0.0,0.0,0.0,0.0,0.0,0.0,0.0,0.0,0.0,0.0,0.0,0.0,0.0,0.0,0.0,0.0,0.0,0.0,0.0,0.0,0.0,0.0,0.0,-2.916,0.0,0.0,0.0,0.0,0.0,0.0,0.0,0.0,0.0,0.0,0.0,0.0,0.0,0.0,0.0,0.0,0.0,0.0,0.0,0.0,0.0,0.0,0.0,0.0,0.0,0.0,0.0,0.0,0.0,0.0,0.0,0.0,0.0,0.0,0.0,0.0,0.0,0.0,0.0,0.0,0.0,-4.2181,-5.0339,-5.7116,-6.1213,-6.2821,-6.3251,-6.1867,-6.1698,-5.8187,-4.964,-4.4996,0.0,0.0,0.0,0.0,0.0,0.0,0.0,0.0,0.0,0.0,0.0,0.0,0.0,0.0,0.0,0.0,0.0,0.0,0.0,0.0,0.0,0.0,0.0,0.0,0.0,0.0,0.0,0.0,0.0,0.0,0.0,0.0,0.0,0.0,0.0,0.0,0.0,0.0,0.0,0.0,0.0,0.0,0.0,0.0,0.0,0.0,0.0,0.0,0.0,0.0,0.0,0.0,0.0,0.0,0.0,0.0,0.0,0.0,0.0,0.0,-3.0684,0.0,0.0,0.0,0.0,0.0,0.0,0.0,0.0,0.0,0.0,0.0,0.0,0.0,0.0,0.0,0.0,0.0,0.0,0.0,0.0,0.0,0.0,0.0,0.0,0.0,0.0,0.0,0.0,0.0,0.0,0.0,0.0,0.0,0.0,0.0,0.0,0.0,0.0,0.0,0.0,-4.3533,-5.2342,-5.9444,-6.3335,-6.4774,-6.511,-6.3696,-6.3268,-6.0305,-5.387,-4.8614,0.0,0.0,0.0,0.0,0.0,0.0,0.0,0.0,0.0,0.0,0.0,0.0,0.0,0.0,0.0,0.0,0.0,0.0,0.0,0.0,0.0,0.0,0.0,0.0,0.0,0.0,0.0,0.0,0.0,0.0,0.0,0.0,0.0,0.0,0.0,0.0,0.0,0.0,0.0,0.0,0.0,0.0,0.0,0.0,0.0,0.0,0.0,0.0,0.0,0.0,0.0,0.0,0.0,-3.6621,-3.7441,-3.7715,-3.7773,-3.8809,-4.0371,-3.7569,-3.6838,-3.7148,0.0,0.0,0.0,0.0,0.0,0.0,0.0,0.0,0.0,0.0,0.0,0.0,0.0,0.0,0.0,0.0,0.0,0.0,0.0,0.0,0.0,0.0,0.0,0.0,0.0,-4.3237,-4.3664,0.0,0.0,0.0,0.0,0.0,0.0,0.0,0.0,0.0,0.0,0.0,0.0,-4.5787,-5.4892,-6.2016,-6.5651,-6.649,-6.634,-6.5114,-6.4306,-6.2002,-5.7723,-5.2506,-4.7762,0.0,0.0,0.0,0.0,0.0,0.0,0.0,0.0,0.0,0.0,0.0,0.0,0.0,0.0,0.0,0.0,0.0,0.0,0.0,0.0,0.0,0.0,0.0,0.0,0.0,0.0,0.0,0.0,0.0,0.0,0.0,0.0,-2.5378,-2.6031,0.0,0.0,0.0,0.0,0.0,0.0,0.0,0.0,0.0,0.0,0.0,0.0,0.0,-3.2995,-3.297,-3.7682,-3.9941,-3.9707,-4.3203,-4.4707,-4.4414,-4.4785,-4.5293,-4.6052,-4.7499,0.0,-3.8426,-3.8391,0.0,0.0,0.0,0.0,0.0,0.0,0.0,0.0,0.0,0.0,0.0,0.0,0.0,0.0,0.0,0.0,0.0,0.0,0.0,0.0,0.0,0.0,-4.8586,-4.8259,-4.8937,-4.8962,0.0,-4.0124,-3.4098,-3.1009,-3.0154,0.0,0.0,0.0,0.0,0.0,0.0,0.0,-4.9049,-5.635,-6.2016,-6.5651,-6.6071,-6.5832,-6.5084,-6.3917,-6.1942,-5.9009,-5.6482,-5.2808,-4.7728,-4.3519,0.0,0.0,0.0,0.0,0.0,0.0,0.0,0.0,0.0,0.0,0.0,0.0,0.0,0.0,0.0,0.0,0.0,0.0,0.0,0.0,0.0,0.0,0.0,0.0,0.0,0.0,0.0,0.0,0.0,-2.2264,-2.4912,-2.5087,-2.57,-2.5021,0.0,0.0,0.0,0.0,0.0,0.0,0.0,0.0,0.0,-3.5965,-3.708,-3.8379,-3.997,-4.2624,-4.4199,-4.4512,-4.6445,-4.7402,-4.748,-4.791,-4.8203,-4.8561,-5.0812,-4.9708,-4.6311,-4.4608,-4.1768,-3.8189,0.0,0.0,0.0,0.0,-3.5798,-3.704,-4.256,-4.417,0.0,-4.0764,0.0,0.0,0.0,0.0,0.0,0.0,0.0,0.0,0.0,0.0,-4.9891,-5.1523,-5.2578,-5.3078,-5.2696,-4.8687,-4.3566,0.0,-3.6418,-3.4047,-2.7723,0.0,0.0,0.0,0.0,-4.543,-5.1204,-5.815,-6.315,-6.4666,-6.5562,-6.5592,-6.4545,-6.3917,-6.278,-6.0894,-5.8919,-5.6436,-5.3354,-4.8386,-4.3735,0.0,0.0,0.0,0.0,0.0,0.0,0.0,0.0,0.0,0.0,0.0,0.0,0.0,0.0,0.0,0.0,0.0,0.0,0.0,0.0,0.0,0.0,0.0,0.0,0.0,0.0,0.0,0.0,-2.4416,-2.6523,-2.5822,-2.8592,-2.8663,0.0,0.0,0.0,0.0,0.0,0.0,-3.4961,-3.5996,-3.8066,-4.1426,-4.2051,-4.3457,-4.582,-4.6582,-4.7324,-4.8086,-4.8398,-4.9118,-5.0066,-5.0424,-5.0936,-5.1637,-5.4113,-5.4732,-5.4062,-5.0698,-4.8148,-4.6332,-4.2981,-4.1091,-4.0476,-4.2397,-4.342,-4.4569,-5.0707,-5.2592,-5.1926,-4.8816,0.0,-4.4308,-3.8988,0.0,0.0,0.0,0.0,-4.1254,-4.6125,-4.9065,-5.1456,-5.4123,-5.5944,-5.7032,-5.7277,-5.5457,-5.1817,0.0,-4.3497,-4.0759,-3.3872,0.0,0.0,0.0,0.0,-5.0044,-5.3657,-5.9733,-6.3827,-6.3977,-6.4904,-6.5084,-6.4066,-6.3857,-6.3288,-6.2181,-6.0535,-5.9009,-5.7663,-5.326,-4.9469,-4.6578,0.0,0.0,0.0,0.0,0.0,0.0,0.0,0.0,0.0,0.0,0.0,0.0,0.0,0.0,0.0,0.0,0.0,0.0,0.0,0.0,0.0,0.0,0.0,0.0,0.0,0.0,0.0,0.0,0.0,-3.244,-3.6054,0.0,0.0,0.0,0.0,-3.2461,-3.4141,-3.6445,-3.9414,-4.0762,-4.2832,-4.5879,-4.6797,-4.75,-4.8047,-4.8496,-4.8965,-4.9433,-4.9453,-5.0916,-5.3483,-5.3504,-5.4947,-5.7268,-5.9611,-6.0222,-5.9465,-5.6155,-5.2657,-4.9148,-4.9006,-4.6908,-4.4454,-4.7748,-4.9713,-5.1066,-5.4782,-5.5922,-5.5426,-5.2184,-4.7149,-4.288,-4.5072,-4.3162,0.0,0.0,-4.5874,-4.6928,-5.1398,-5.4267,-5.6343,-5.7525,-5.9615,-6.0969,-6.0021,-5.7993,-5.5594,0.0,-5.1349,-4.9066,-4.4293,0.0,-4.488,-4.5376,-4.8009,-5.1916,-5.7123,-6.0954,-6.3348,-6.3947,-6.4066,-6.4066,-6.4006,-6.3468,-6.2839,-6.2151,-6.1403,-6.0416,-5.9069,-5.8154,-5.5503,-5.0869,-4.7148,0.0,0.0,0.0,0.0,0.0,0.0,0.0,0.0,0.0,0.0,0.0,0.0,0.0,0.0,0.0,0.0,0.0,0.0,0.0,0.0,0.0,0.0,0.0,0.0,0.0,0.0,0.0,0.0,-3.4302,-3.8374,0.0,-3.4648,-3.6113,-3.7363,-3.7363,-3.9746,-4.2129,-4.4297,-4.5117,-4.6269,-4.7891,-4.8242,-4.8476,-4.8633,-4.8789,-4.9967,-5.1821,-5.1821,-5.3471,-5.6236,-5.6363,-5.6884,-5.7514,-6.016,-6.09,-6.002,-6.0471,-5.9158,-5.6838,-5.5831,-5.4645,-5.3787,-5.5361,-5.6402,-5.7247,-5.9253,-5.9935,-5.9278,-5.5706,-5.2025,-4.9215,-4.9461,-4.8535,-4.7883,-4.9992,-5.1432,-5.2906,-5.5501,-5.7674,-5.9448,-6.0158,-6.1054,-6.1642,-6.201,-6.0762,-5.9537,-5.948,-5.6049,-5.1902,-4.8056,-5.0103,-5.135,-4.8453,-5.2487,-5.669,-5.9129,-6.1882,-6.3588,-6.3438,-6.3767,-6.3827,-6.3438,-6.3199,-6.278,-6.2121,-6.2263,-6.1875,-6.1063,-6.0313,-5.8988,-5.7119,-5.4007,-4.8155,0.0,0.0,0.0,0.0,0.0,0.0,0.0,0.0,0.0,0.0,0.0,0.0,0.0,0.0,0.0,0.0,0.0,0.0,0.0,0.0,0.0,0.0,0.0,0.0,0.0,0.0,-3.7072,-3.5818,-4.0567,-4.2266,-3.7949,-4.0156,-4.1914,-4.2051,-4.418,-4.6016,-4.7285,-4.7773,-4.8262,-4.8848,-4.9887,-5.0314,-5.0314,-5.1331,-5.2876,-5.4754,-5.4754,-5.6439,-5.9261,-5.9403,-5.9738,-6.0347,-6.2137,-6.242,-6.1595,-6.3036,-6.2923,-6.1642,-6.0537,-6.0111,-6.0161,-6.0487,-6.0864,-6.1266,-6.2019,-6.1918,-6.0989,-5.8227,-5.5842,-5.3858,-5.2955,-5.2553,-5.2714,-5.4286,-5.5559,-5.6902,-5.8776,-6.0587,-6.2052,-6.2445,-6.2953,-6.3593,-6.4135,-6.3298,-6.267,-6.2996,-5.9444,-5.5448,-5.2959,-5.4905,-5.5381,-5.114,-5.5442,-5.905,-5.8792,-6.1476,-6.3288,-6.3109,-6.3438,-6.3528,-6.3109,-6.2061,-6.1717,-6.2345,-6.123,-6.078,-6.1152,-5.9662,-5.8517,-5.7804,-5.4897,-4.9516,-4.1807,0.0,0.0,0.0,0.0,0.0,0.0,0.0,0.0,0.0,0.0,0.0,0.0,0.0,0.0,0.0,0.0,0.0,0.0,0.0,0.0,0.0,0.0,0.0,-3.3652,-3.6618,-3.8633,-3.7708,-4.3164,-4.5351,-4.1172,-4.3808,-4.5937,-4.6328,-4.7148,-4.7793,-4.8203,-4.8633,-4.8887,-4.8887,-5.1779,-5.3261,-5.3261,-5.5995,-5.7716,-5.821,-5.821,-5.9743,-6.2647,-6.2647,-6.3929,-6.6061,-6.5534,-6.4982,-6.4404,-6.3927,-6.3375,-6.2822,-6.2822,-6.2822,-6.2822,-6.2822,-6.2822,-6.2822,-6.2822,-6.1743,-6.0261,-5.9709,-5.8052,-5.6314,-5.5761,-5.5207,-5.5279,-5.7538,-5.8196,-5.888,-6.1054,-6.3084,-6.441,-6.441,-6.5764,-6.6819,-6.6161,-6.5503,-6.4635,-6.3348,-6.1493,-5.9937,-5.9279,-5.862,-5.709,-5.3954,-5.671,0.0,-5.6514,-5.9747,-6.2301,-6.2869,-6.2929,-6.2959,-6.3074,-6.0076,-5.9531,-6.2699,-5.8634,-5.709,-5.9465,-5.6616,-5.4276,-5.2845,-4.9599,-4.6636,-4.4039,0.0,0.0,0.0,0.0,0.0,0.0,0.0,0.0,0.0,0.0,0.0,0.0,0.0,0.0,0.0,0.0,0.0,0.0,0.0,0.0,0.0,0.0,-3.7402,-3.7578,-4.0841,-4.3671,-4.4668,-4.6875,-4.7734,-4.623,-4.7246,-4.7891,-4.7695,-4.8183,-4.8555,-4.8672,-4.9101,-4.9336,-4.9336,-5.2067,-5.3541,-5.3541,-5.617,-5.863,-6.0757,-6.0757,-6.2298,-6.5199,-6.5199,-6.5345,-6.5534,-6.5785,-6.5132,-6.3927,-6.4153,-6.3701,-6.2822,-6.2822,-6.2822,-6.2822,-6.2822,-6.2822,-6.2822,-6.2822,-6.1994,-6.0839,-6.0286,-5.9998,-5.9893,-5.8785,-5.9448,-6.0483,-6.062,-6.1614,-6.2727,-6.3448,-6.4949,-6.6322,-6.6322,-6.66,-6.6819,-6.6161,-6.5503,-6.4784,-6.3917,-6.254,-6.1343,-6.0685,-5.9997,-5.923,-5.8337,-5.9121,0.0,-5.908,-6.079,-6.1433,-5.9668,-5.9907,-6.0584,-6.1598,-5.9819,-5.9835,-6.2667,-6.1014,-6.0226,-6.1,-5.9496,-5.8207,-5.7272,-5.2257,-4.869,0.0,0.0,0.0,0.0,0.0,0.0,0.0,0.0,0.0,0.0,0.0,0.0,0.0,0.0,0.0,0.0,0.0,0.0,0.0,0.0,0.0,0.0,-3.7871,-4.1348,-4.2305,-4.4394,-4.6328,-4.7676,-4.8437,-4.875,-4.8496,-4.8711,-4.875,-4.8496,-4.8711,-4.8945,-4.9121,-4.9394,-4.9964,-5.1202,-5.414,-5.6181,-5.7087,-5.9793,-6.186,-6.3641,-6.3641,-6.4531,-6.6112,-6.6112,-6.5936,0.0,-6.5735,-6.5107,-6.4028,-6.4103,-6.3626,0.0,0.0,0.0,0.0,0.0,-6.2822,-6.2797,-6.2571,-6.1918,-6.1223,-6.14,-6.1443,-6.1503,-6.1675,-6.2256,-6.3112,-6.3426,-6.4273,-6.5318,-6.5699,-6.6583,-6.7328,-6.7059,-6.6999,-6.6819,-6.6161,-6.5712,-6.5144,-6.4186,-6.3408,0.0,-6.2061,-6.1164,-6.0096,-5.8682,-5.9606,-6.0075,-5.9037,-6.0975,-6.2228,-6.1534,-6.2068,-6.2995,-6.4129,-6.1487,0.0,0.0,0.0,-5.8971,-5.8162,-5.6963,0.0,0.0,0.0,0.0,0.0,0.0,0.0,0.0,-4.6757,-4.6475,0.0,0.0,0.0,0.0,0.0,0.0,0.0,0.0,0.0,0.0,0.0,0.0,0.0,0.0,0.0,0.0,-4.1855,-4.5254,-4.6855,-4.7109,-4.7422,-4.8183,-4.8613,-4.8867,-4.8867,-4.8867,-4.8867,-4.8867,-4.8867,-4.9208,-4.9787,0.0,0.0,0.0,0.0,-5.9559,-6.178,-6.4778,-6.6112,-6.6112,-6.6112,-6.6112,-6.6112,-6.6112,-6.6112,-6.6086,-6.5534,-6.4982,-6.4429,-6.3902,-6.335,-6.2822,-6.2822,-6.2822,-6.2822,-6.2822,-6.2822,-6.2747,-6.227,0.0,0.0,-6.294,-6.2842,-6.256,-6.4189,-6.4499,-6.4656,-6.624,-6.6635,-6.6781,-6.782,-6.8016,-6.7837,-6.7238,-6.7059,-6.6819,-6.6251,-6.6071,-6.5652,-6.4455,-6.4096,-6.3827,-6.3258,-6.2091,-6.0261,-5.7289,-5.9303,-6.0321,-5.7932,-6.0921,-6.3819,-6.5513,0.0,0.0,-6.801,-6.3902,-6.2425,-6.4893,-6.0043,-5.6193,-5.415,-5.2952,-5.2587,-5.3052,-5.3152,-5.4812,-5.8201,-5.9805,-6.0356,-5.9656,-5.0904,-4.9973,0.0,0.0,0.0,0.0,0.0,0.0,0.0,0.0,0.0,0.0,0.0,0.0,0.0,0.0,0.0,-3.9648,-4.3633,-4.6797,-4.7812,-4.8262,-4.8555,-4.8711,-4.8808,-4.8867,-4.8867,-4.8867,-4.8867,-4.8867,-4.8867,-4.9787,-5.1812,-5.2495,0.0,-5.6618,-5.983,-6.1948,-6.2327,-6.4777,-6.6112,-6.6112,0.0,0.0,-6.6112,-6.6112,-6.6112,-6.6086,-6.5534,-6.4982,-6.4429,-6.3902,-6.335,-6.2822,-6.2822,-6.2822,-6.2822,-6.2822,-6.2822,-6.2822,-6.2697,-6.3064,-6.3515,-6.3691,-6.52,-6.681,-6.6571,-6.7609,0.0,-6.8585,-6.8436,-6.8534,-6.8698,-6.8375,-6.7926,-6.7807,-6.7358,-6.6939,-6.6819,-6.637,-6.5922,-6.5652,-6.4755,-6.3947,-6.3827,-6.275,-6.1649,-6.1005,-6.1081,-6.0902,-6.041,-6.2384,-6.3502,-6.2405,-6.3836,-6.535,-6.6626,-6.4308,-6.3736,-6.6253,-6.3222,-6.0256,-5.7999,-5.8807,-5.8807,-5.7729,-5.8268,-5.9021,-6.0013,-6.1537,-6.289,-6.3943,-6.0782,-5.9708,0.0,0.0,0.0,0.0,0.0,0.0,0.0,0.0,0.0,0.0,0.0,-3.1894,-3.4258,0.0,-4.0469,-4.3262,-4.5879,-4.7793,-4.8437,-4.873,-4.8867,-4.8867,-4.8867,-4.8867,-4.8867,-4.8867,-4.94,-5.0621,-5.0621,-5.1874,-5.464,-5.5058,-5.6574,-5.9847,-6.1393,-6.2737,-6.4279,-6.557,-6.6112,-6.6112,-6.6112,-6.6112,-6.6112,-6.6112,-6.6112,-6.6086,-6.5534,-6.4982,-6.4404,-6.3601,-6.3099,-6.2822,-6.2822,-6.2822,-6.2822,-6.2822,-6.3423,-6.4286,-6.4003,-6.4897,-6.6087,-6.635,-6.7495,-6.8594,-6.8927,-6.9702,-7.038,-7.0051,-6.9961,-6.9871,-6.9572,-6.9243,-6.8884,-6.8555,-6.7986,-6.7478,-6.7478,-6.6969,-6.64,-6.6071,-6.5473,-6.4784,-6.4126,-6.3468,-6.2959,-6.263,-6.2919,-6.3091,-6.3091,-6.4924,-6.6058,-6.5792,-6.7035,-6.8238,-6.9286,-6.7,-6.5697,-6.6237,-6.4174,-6.2448,-6.1332,-6.1637,-6.167,-6.1264,-6.207,-6.2729,-6.3273,-6.4911,-6.618,-6.6988,-6.6627,-6.6017,0.0,0.0,0.0,0.0,0.0,0.0,0.0,0.0,-2.9017,-3.2363,-3.4023,-3.5976,-3.9434,-4.1289,-4.334,-4.6543,-4.7773,-4.8457,-4.8808,-4.8867,-4.8867,-4.8867,-4.8867,-4.9032,-4.9564,-4.9564,-5.0621,-5.2902,-5.3081,-5.445,-5.7531,-5.7458,-5.8923,-6.2696,-6.2504,-6.3495,-6.5936,-6.6061,-6.6061,-6.5961,-6.5961,-6.5886,-6.5785,-6.5911,-6.5886,-6.576,-6.5208,-6.4655,-6.4078,-6.3199,-6.2822,-6.2822,-6.3286,-6.3423,-6.3423,-6.3423,-6.4338,-6.5791,-6.5754,-6.7012,-6.8664,-6.9133,-6.9424,-6.9768,-7.0677,-7.0889,-7.0889,-7.0889,-7.0889,-7.0799,-7.029,-7.0081,-6.9842,-6.9303,-6.8555,-6.7956,-6.7956,-6.7448,-6.6819,-6.6311,-6.6101,-6.5652,-6.4575,-6.448,-6.4352,-6.3599,-6.4401,-6.5219,-6.5436,-6.7187,-6.8914,-7.0141,-7.1028,-7.1742,-7.2134,-6.9823,-6.7692,-6.6203,-6.5019,-6.4241,-6.3937,-6.3566,-6.3509,-6.3985,-6.506,-6.5997,-6.6808,-6.8434,-6.9343,-6.9564,-7.0376,-7.0135,-1.9467,-1.9153,-2.169,-2.56,-2.6189,-2.8138,0.0,0.0,-3.53,-3.9712,-4.1601,-4.2637,-4.3105,-4.4883,-4.6562,-4.7383,-4.8223,-4.8808,-4.8848,-4.8867,-4.8867,-4.8867,-4.8867,-4.9748,-5.1847,-5.2027,-5.2902,-5.5355,-5.553,-5.6618,-5.8964,-5.9536,-6.0917,-6.3427,-6.4468,-6.5138,-6.5383,-6.586,-6.586,-6.5383,-6.5383,-6.5132,-6.4655,-6.5157,-6.5107,-6.463,-6.4103,-6.355,-6.2998,-6.2873,-6.2822,-6.2985,-6.479,-6.5398,-6.5398,-6.5398,-6.5529,-6.5974,-6.7898,-6.9308,-7.0506,-6.9958,-7.0653,-7.1463,-7.1098,-7.0889,-7.0889,-7.0889,-7.0889,-7.0889,-7.0829,-7.038,-6.9961,-6.9901,-6.8914,-6.7956,-6.7956,-6.7448,-6.6969,-6.6879,-6.64,-6.5951,-6.5802,-6.6351,-6.6375,-6.5108,-6.5032,-6.5513,-6.6751,-6.8172,-6.9353,-7.0206,-7.1526,-7.2042,-7.1481,-7.05,-6.9282,-6.776,-6.7489,-6.6812,-6.5493,-6.622,-6.6305,-6.5717,-6.7339,-6.867,-6.9569,-7.0418,-7.1257,-7.2123,-7.2878,-7.2071,-2.9555,-2.7878,0.0,0.0,-3.23,-3.452,-3.8082,-3.8269,-3.8817,-4.2495,-4.4141,-4.5078,-4.582,-4.6894,-4.7812,0.0,-4.8633,-4.8867,-4.8867,-4.8867,-4.9301,-5.0256,-4.9588,-4.9748,-5.2207,-5.3615,-5.5355,-5.7778,-5.7949,-5.9111,-6.1708,-6.1826,-6.2405,-6.4128,-6.4279,-6.4505,-6.4806,-6.5358,-6.5509,-6.5283,-6.5283,-6.5333,-6.5409,-6.5007,-6.453,-6.4002,-6.3776,-6.3375,-6.2822,-6.2822,-6.2822,-6.2985,-6.4949,-6.5844,-6.6,-6.7215,-6.8408,-6.9458,-7.0374,-7.1855,-7.3142,-7.2493,-7.2311,-7.2355,-7.1697,-7.1218,-7.0889,-7.0889,-7.0889,-7.0889,-7.0889,-7.0709,-7.053,-7.053,-6.9812,-6.9034,-6.8645,-6.8046,-6.7448,-6.7059,-6.7426,-6.7775,-6.7378,-6.8239,-6.8997,-6.8885,-6.8473,-6.8226,-6.8338,-6.9537,-7.0582,-7.0884,-7.1445,-7.165,-7.1345,-7.0635,-6.9891,-6.9282,-6.8842,-6.8335,-6.7692,-6.8601,-6.9029,-6.8717,-7.0523,-7.1596,-7.2062,-7.287,-7.352,-7.3927,-7.4258,-7.3854,-3.3643,0.0,0.0,-3.3927,-3.7524,-4.0335,-3.9565,-4.0548,-4.2344,-4.4766,-4.5859,-4.666,-4.7578,-4.8105,-4.8496,-4.8808,-4.8867,-4.8867,-4.8867,-4.9282,-4.9733,-5.0326,-5.0682,-5.136,-5.2832,-5.4851,-5.7091,-6.0027,-6.0194,-6.1247,-6.326,-6.3048,-6.3199,-6.4002,-6.3802,-6.3877,-6.4254,-6.4781,-6.4982,-6.4856,-6.4856,-6.4982,-6.5183,-6.4379,-6.3902,-6.3676,-6.3525,-6.3224,-6.2822,-6.2822,-6.3123,-6.3882,-6.5844,-6.7061,-6.78,-6.9783,-7.1133,-7.1999,-7.2456,-7.3672,-7.4749,-7.3881,-7.3313,-7.2744,-7.1876,-7.1278,-7.0889,-7.0889,-7.0889,-7.0889,-7.0889,-7.0889,-7.0889,-7.0889,-7.044,-6.9842,-6.9363,-6.893,-6.8515,-6.8031,-6.8889,-6.9703,-6.9202,-7.0295,-7.135,-7.172,-7.1653,-7.125,-7.0519,-7.1102,-7.1548,-7.1345,-7.1312,-7.1312,-7.1312,-7.0804,-7.05,-7.05,-6.9992,-6.9761,-6.9782,-7.0776,-7.135,-7.1412,-7.3001,-7.3869,-7.3869,-7.4543,-7.4918,-7.4918,-7.5139,-7.5249,0.0,0.0,-3.165,-3.6091,-4.0388,-4.4004,-4.5683,-4.6094,-4.6367,-4.7305,-4.7832,-4.8144,-4.8183,-4.8535,-4.8848,-4.8867,-4.8867,-4.8867,-4.8867,-5.0416,-5.0484,-4.7996,-5.2565,-5.537,0.0,-5.5296,-5.7801,-6.2306,-6.2659,-6.2659,-6.2847,-6.2847,-6.2847,-6.2873,-6.34,-6.3701,-6.3726,-6.4228,-6.4228,-6.3751,-6.3751,-6.345,-6.2923,-6.2898,-6.3174,-6.3651,-6.3099,-6.2847,-6.2822,-6.2822,-6.3882,-6.5844,-6.798,-6.9931,-7.1999,-7.3981,-7.3503,-7.2171,-7.412,-7.4869,-7.4659,-7.3373,-7.2924,-7.2654,-7.1338,-7.0919,-7.0889,-7.0889,-7.0889,-7.0889,-7.0889,-7.0889,-7.0889,-7.0889,-7.044,-6.9961,-6.9961,-7.0037,-7.0106,-7.0075,-7.0753,-7.1278,-7.1278,-7.2567,-7.3269,-7.2512,-7.3566,-7.4161,-7.351,-7.28,-7.209,-7.1379,-7.1312,-7.1312,-7.1312,-7.1312,-7.1278,-7.1278,-7.1278,-7.1367,-7.1607,-7.2535,-7.3118,-7.3374,-7.4384,-7.4859,-7.4859,-7.4918,-7.4918,-7.4918,-7.5689,-7.6056,-3.0704,0.0,-3.727,-4.138,-4.4117,-4.6074,-4.6953,-4.7148,-4.7226,-4.7519,-4.6328,-4.5215,-4.5215,-4.5332,-4.5547,-4.584,-4.7324,-4.9045,-5.0923,-5.1723,-5.2421,-5.3704,-5.4704,0.0,0.0,0.0,0.0,-6.2584,-6.2822,-6.2822,-6.2822,-6.2822,-6.2822,-6.2822,-6.3023,-6.3124,-6.3124,-6.3676,-6.3877,-6.3701,-6.4053,-6.3726,-6.2847,-6.3224,-6.3299,-6.3099,-6.2923,-6.3584,-6.479,-6.479,-6.6,-6.8132,-7.0079,-7.1278,-7.2142,-7.412,-7.4158,-7.333,-7.4074,-7.424,-7.4091,-7.3193,-7.2595,-7.2146,-7.1697,-7.1248,-7.0889,-7.0889,-7.0889,-7.0889,-7.0889,-7.0889,-7.0889,-7.0889,-7.0739,-7.0697,-7.1443,-7.1566,-7.1634,-7.1705,-7.269,-7.3469,-7.2979,-7.4073,-7.4865,-7.4597,-7.4175,-7.3781,-7.351,-7.3274,-7.3037,-7.28,-7.2326,-7.2022,-7.2022,-7.1582,-7.1312,-7.1312,-7.1917,-7.231,-7.2451,-7.3996,-7.4901,-7.5029,-7.599,-7.6497,-7.6497,-7.6497,-7.6497,-7.6533,-7.679,-7.69,-3.5294,-3.8064,-4.0809,-4.4892,-4.6777,-4.7695,-4.7969,-4.791,-4.7715,-4.7402,-4.5293,-4.3379,-4.3086,-4.2773,-4.2715,-4.3164,-4.5,-4.7579,-5.1078,-5.1783,-5.2944,-5.5389,-5.6092,-5.7027,0.0,0.0,0.0,-6.2395,-6.2722,-6.2822,-6.2822,-6.2822,-6.2822,-6.2822,-6.2822,-6.2822,-6.2822,-6.3199,-6.3375,-6.34,-6.3726,-6.35,-6.2847,-6.3224,-6.3174,-6.2822,-6.2822,-6.3882,-6.5844,-6.5844,-6.7522,-7.0079,-7.1423,-7.2169,-7.273,-7.4069,-7.4121,-7.3582,-7.3821,-7.3732,-7.3432,-7.2774,-7.2235,-7.1846,-7.1607,-7.1248,-7.0889,-7.0889,-7.0889,-7.0889,-7.0889,-7.0889,-7.1018,-7.1601,-7.1728,-7.2082,-7.3156,-7.3705,-7.3926,-7.4038,-7.4806,-7.5304,-7.4805,-7.5265,-7.5709,-7.5709,-7.4897,-7.4187,-7.3916,-7.3883,-7.3781,-7.351,-7.3071,-7.28,-7.28,-7.2124,-7.1864,-7.2239,-7.2586,-7.309,-7.385,-7.512,-7.5959,-7.633,-7.6956,-7.7304,-7.7304,-7.7304,-7.7304,-7.7304,-7.7304,-7.7304,-3.9146,-4.1304,-4.248,-4.6559,-4.8262,-4.8848,-4.8828,-4.8476,-4.7851,-4.6875,-4.4551,-4.2422,0.0,0.0,-4.0449,-4.0937,-4.2445,-4.4958,-4.9448,-5.1268,-5.2484,0.0,0.0,0.0,0.0,0.0,0.0,-6.1843,0.0,-6.2772,-6.2822,-6.2822,-6.2822,-6.2822,-6.2822,-6.2822,-6.2822,-6.2822,-6.2822,-6.2822,-6.2822,-6.2822,-6.2822,-6.2822,-6.2822,-6.2822,-6.2985,-6.4042,-6.6,-6.6156,-6.838,-7.197,-7.197,-7.2783,-7.3851,-7.3851,-7.3432,-7.2954,-7.3582,-7.3373,-7.2744,-7.2056,-7.1846,-7.1727,-7.1098,-7.0889,-7.0889,-7.0889,-7.0889,-7.0889,-7.0889,-7.0889,-7.1375,-7.2861,-7.3352,-7.387,-7.5348,-7.634,-7.6893,-7.6967,-7.6943,-7.6927,-7.6893,-7.6284,-7.5743,-7.5709,-7.5709,-7.5439,-7.4762,-7.4661,-7.439,-7.368,-7.3578,-7.3544,-7.3544,-7.2959,-7.2901,-7.3891,-7.3365,-7.3878,-7.5826,-7.6,-7.6439,-7.7389,-7.7414,-7.7378,-7.7378,-7.7341,-7.7304,-7.7304,-7.7304,-7.7304,-4.0782,-4.388,-4.6792,-4.8262,-4.8691,-4.8769,-4.8457,-4.7793,-4.6465,-4.3672,-4.0293,-3.707,0.0,0.0,0.0,-3.8574,-4.4179,0.0,-5.3862,-5.6084,0.0,-5.9155,0.0,-6.0781,-5.9549,-6.0122,0.0,0.0,-6.1768,-6.1969,-6.2797,-6.2822,-6.2822,-6.2822,-6.2822,-6.2822,-6.2822,-6.2822,-6.2822,-6.2822,-6.2822,-6.2822,-6.2822,-6.2822,-6.2822,-6.2822,-6.4338,-6.6156,-6.8284,-6.9755,-7.1568,-7.3408,-7.3408,-7.3295,-7.3163,-7.3163,-7.2744,-7.2176,-7.2355,-7.2295,-7.2026,-7.1368,-7.1158,-7.1128,-7.0949,-7.0889,-7.0889,-7.0889,-7.0889,-7.0889,-7.0889,-7.1698,-7.2768,-7.3138,-7.42,-7.5464,-7.6971,-7.75,-7.7808,-7.8419,-7.8116,-7.7536,-7.6995,-7.6724,-7.6386,-7.5777,-7.5709,-7.5642,-7.5439,-7.5439,-7.5337,-7.5168,-7.4661,-7.4322,-7.4322,-7.4364,-7.455,-7.4772,-7.6073,-7.702,-7.7555,-7.8383,-7.8913,-7.9176,-7.8589,-7.8259,-7.8259,-7.7635,-7.7304,-7.7304,-7.7304,-7.7304,-4.428,-4.7076,-4.9121,-4.9375,-4.9297,-4.8633,-4.668,-4.5566,-4.3769,-3.9551,-3.6055,0.0,0.0,0.0,0.0,0.0,0.0,0.0,-5.3784,-5.6441,-5.8741,0.0,-6.1818,0.0,-6.1115,-6.114,-6.1517,0.0,-6.1843,-6.1918,-6.2772,-6.2822,-6.2822,-6.2822,-6.2822,-6.2822,-6.2822,-6.2822,-6.2822,-6.2822,-6.2822,-6.2822,-6.2822,-6.3746,-6.4203,-6.4177,0.0,-6.8284,-7.0227,-7.1423,-7.2672,-7.3881,-7.3881,-7.3313,-7.2475,-7.2475,-7.2026,-7.1457,-7.1457,-7.1457,-7.1398,-7.1009,-7.0889,-7.0889,-7.0889,-7.0889,-7.0889,-7.0889,-7.1375,-7.1982,-7.1982,-7.3138,-7.4407,-7.5115,-7.5924,-7.7082,-7.8591,-7.8908,-7.895,-7.9027,-7.8788,-7.8247,-7.7502,-7.7367,-7.7096,-7.6352,-7.6217,-7.6082,-7.5743,-7.5709,-7.5709,-7.5709,-7.5337,-7.51,-7.51,-7.5352,-7.579,-7.6209,-7.7512,-7.8415,-7.8898,-7.9471,-7.98,-7.98,-7.936,-7.914,-7.914,-7.8626,-7.8405,-7.8405,-7.8405,-7.8405,-4.8536,-5.0058,-5.0332,-5.0273,-4.9844,-4.8418,-4.4512,-4.2773,-4.0469,-3.5117,0.0,-2.998,-2.8437,-3.0469,-3.2897,-3.4408,0.0,-4.753,-5.2601,-5.5334,-5.8033,-6.1707,-6.2119,-6.2119,-6.2119,-6.1617,-6.1718,-6.2747,-6.232,-6.2245,-6.2797,-6.2822,-6.2822,-6.2822,-6.2822,-6.2822,-6.2822,-6.2822,-6.2822,-6.2822,-6.2822,-6.2985,-6.3286,-6.4949,-6.6,-6.6312,0.0,0.0,-7.1856,-7.2171,-7.2981,-7.3881,-7.3791,-7.2984,-7.1876,-7.1787,-7.1398,-7.0889,-7.0889,-7.0889,-7.0889,-7.0889,-7.0889,-7.0889,-7.0889,-7.0889,-7.0889,-7.1118,-7.2204,-7.3384,-7.3506,-7.4762,-7.6266,-7.7555,-7.8023,-7.8591,-7.9972,-8.0209,-8.0006,-7.9397,-7.9261,-7.9025,-7.8247,-7.8145,-7.7874,-7.7164,-7.7063,-7.6758,-7.5946,-7.5777,-7.5709,-7.5709,-7.5865,-7.596,-7.596,-7.6484,-7.7145,-7.8071,-7.8493,-7.9122,-8.0094,-8.0094,-8.0094,-8.0094,-7.9984,-7.9947,-7.9947,-7.9837,-7.98,-7.98,-7.98,-7.98,-5.0453,-5.1152,-5.1133,-5.0781,-4.9824,-4.7969,-4.4062,-4.1406,0.0,0.0,-2.9277,-2.7383,-2.4648,-2.7422,-3.1896,-3.7065,0.0,0.0,0.0,0.0,-6.1396,0.0,0.0,0.0,0.0,0.0,0.0,0.0,0.0,-6.2245,-6.2797,-6.2822,-6.2822,-6.2822,-6.2822,-6.2822,-6.2822,-6.2822,-6.2822,-6.2822,-6.2822,-6.3746,-6.524,-6.5687,-6.6752,-6.8435,-7.0521,0.0,-7.1999,-7.3672,-7.4176,-7.3851,-7.3283,-7.2595,-7.1816,-7.1278,-7.1009,-7.0889,-7.0889,-7.0889,-7.0889,-7.0889,-7.0889,-7.0889,-7.0889,-7.0889,-7.1148,-7.2394,-7.2984,-7.3475,-7.488,-7.6379,-7.7555,-7.7882,-7.8908,-7.9836,-8.0175,-8.0209,-8.0175,-8.004,-8.0006,-7.9769,-7.9058,-7.8923,-7.8653,-7.7908,-7.7807,-7.7536,-7.6792,-7.6115,-7.5709,-7.5709,-7.6508,-7.6982,-7.6982,-7.8761,-7.9927,-8.0077,-8.0972,-8.1615,-8.1782,-8.1782,-8.1782,-8.1782,-8.1122,-8.0791,-8.0791,-8.0131,-7.98,-7.98,-7.98,-7.98,-5.1816,-5.209,-5.1992,-5.1582,-5.0156,-4.7363,-4.1699,0.0,0.0,0.0,-2.5566,-2.4531,-2.3086,0.0,0.0,0.0,0.0,0.0,0.0,0.0,0.0,0.0,0.0,0.0,0.0,0.0,0.0,0.0,0.0,-6.2546,-6.2822,-6.2822,-6.2822,-6.2822,-6.2822,-6.2822,-6.2822,-6.2822,-6.2822,-6.2822,-6.3882,-6.4949,-6.5844,-6.7953,-6.9458,-7.0521,-7.2628,0.0,-7.3503,-7.4564,-7.448,-7.3851,-7.3552,-7.3013,-7.2325,-7.1667,-7.1427,-7.1368,-7.1009,-7.0889,-7.0889,-7.0889,-7.0889,-7.0889,-7.0889,-7.1503,-7.233,-7.2984,-7.4375,-7.5777,-7.6604,-7.7882,-7.915,-7.915,-7.9632,-8.0209,-8.0209,-8.0209,-8.0209,-8.0209,-8.0209,-8.0073,-7.9735,-7.9667,-7.9431,-7.8686,-7.8585,-7.8575,-7.8392,-7.8039,-7.7491,-7.6576,-7.6982,-7.7563,-7.8161,-7.9691,-8.0623,-8.0623,-8.1647,-8.2186,-8.2186,-8.2186,-8.2186,-8.2186,-8.1819,-8.1636,-8.1636,-8.1232,-8.1048,-8.1048,-8.1048,-8.1048,-5.2321,-5.2851,-5.2734,-5.2207,-5.0254,-4.6582,-3.9414,-3.5586,0.0,0.0,-2.2676,-2.2383,-2.2383,0.0,0.0,0.0,0.0,0.0,0.0,0.0,0.0,0.0,0.0,0.0,0.0,0.0,0.0,0.0,0.0,0.0,-6.2822,-6.2822,-6.2822,-6.2822,-6.2822,-6.2822,-6.2822,-6.2822,-6.2985,-6.3423,-6.5082,-6.6286,-6.7188,-7.0492,-7.2142,-7.2599,-7.4258,0.0,0.0,-7.4869,-7.4569,-7.4091,-7.3941,-7.3582,-7.3043,-7.2355,-7.1996,-7.1816,-7.1308,-7.1009,-7.0889,-7.1247,-7.1375,-7.1375,-7.1375,-7.255,-7.3839,-7.4168,-7.6006,-7.799,-7.8345,-7.9288,-8.0209,-8.0209,-8.0209,-8.0209,-8.0209,-8.0209,-8.0209,-8.0209,-8.0209,-8.0209,-8.0209,-8.0209,-8.0006,-7.9431,-7.9494,-7.9741,-7.9913,-8.0136,-7.9845,-7.8621,-7.8532,-7.8868,-7.9799,-8.069,-8.1201,-8.1201,-8.1824,-8.2186,-8.2186,-8.2186,-8.2186,-8.2186,-8.2186,-8.2186,-8.2186,-8.2186,-8.2186,-8.2186,-8.2186,-8.2186,-5.2219,-5.3301,-5.3105,-5.2285,-4.957,-4.5391,-3.8848,0.0,0.0,-2.3848,-2.2227,-2.1953,-2.1953,0.0,0.0,0.0,0.0,0.0,0.0,0.0,0.0,0.0,0.0,0.0,0.0,0.0,0.0,0.0,0.0,0.0,-6.2822,-6.2822,-6.2822,-6.2822,-6.2822,-6.2822,-6.2822,-6.2822,-6.3746,-6.5556,-6.5687,-6.78,-7.1394,-7.1712,-7.2911,-7.4564,-7.4869,0.0,0.0,-7.4869,-7.4839,-7.4719,-7.4121,-7.3851,-7.3732,-7.3073,-7.2415,-7.1876,-7.1816,-7.1398,-7.1148,-7.255,-7.3046,-7.3046,-7.3046,-7.42,-7.5695,-7.7082,-7.7665,-7.8238,-7.9632,-8.0074,-8.0209,-8.0209,-8.0209,-8.0209,-8.0209,-8.0209,-8.0209,-8.0209,-8.0209,-8.0209,-8.0209,-8.0209,-8.0175,-8.0107,-8.0926,-8.1436,-8.0766,-8.1577,-8.2323,-8.2486,-8.2454,-8.253,-8.2641,-8.2968,-8.3154,-8.3154,-8.2524,-8.2186,-8.2186,-8.2186,-8.2186,-8.2186,-8.2186,-8.2186,-8.2186,-8.2186,-8.2186,-8.2186,-8.2186,-8.2186,-5.162,-5.2969,-5.3086,-5.1973,-4.8516,-4.3926,-3.8223,0.0,-2.8164,-2.3164,-2.1582,-2.125,-2.1797,-2.209,0.0,0.0,0.0,0.0,0.0,0.0,0.0,0.0,0.0,0.0,0.0,0.0,0.0,0.0,0.0,0.0,-6.2822,-6.2822,-6.2822,-6.2822,-6.2822,-6.2822,-6.2822,-6.4042,-6.4949,-6.5844,-6.8256,-7.0346,-7.1999,-7.3193,-7.412,-7.4869,-7.4869,0.0,0.0,-7.4869,-7.4869,-7.4839,-7.4599,-7.448,-7.442,-7.3762,-7.3343,-7.2984,-7.2176,-7.2288,-7.2945,-7.317,-7.4557,-7.5924,-7.4998,-7.581,-7.7082,-7.7773,-7.8591,-7.9392,-8.0074,-8.0209,-8.0209,-8.0209,-8.0209,-8.0209,-8.0209,-8.0209,-8.0209,-8.0209,-8.0209,-8.0209,-8.0209,-8.0209,-8.0442,-8.1125,-8.1629,-8.2286,-8.3329,-8.3906,-8.4547,-8.5336,-8.3992,-8.3265,-8.3913,-8.4076,-8.4132,-8.4132,-8.3838,-8.3654,-8.3654,-8.3654,-8.3654,-8.3654,-8.3654,-8.3398,-8.292,-8.292,-8.2663,-8.2186,-8.2186,-8.2186,-4.9733,-5.1836,-5.2695,-5.1543,-4.75,-4.2519,0.0,-3.2031,-2.6758,-2.2715,-2.1172,-2.0801,-2.1562,-2.1543,-2.2109,0.0,0.0,-2.9105,0.0,0.0,0.0,0.0,0.0,0.0,0.0,0.0,0.0,0.0,0.0,0.0,0.0,-6.2822,-6.2822,-6.2822,-6.2822,-6.3123,-6.3746,-6.5082,-6.6441,-6.7648,-7.0492,-7.2171,-7.2911,-7.4258,-7.4869,-7.4869,-7.4869,0.0,0.0,-7.4869,-7.4869,-7.4869,-7.4869,-7.4869,-7.4809,-7.436,-7.3941,-7.3597,-7.3003,-7.3339,-7.3973,-7.4476,-7.6152,-7.7773,-7.7193,-7.7773,-7.8591,-7.8591,-7.9392,-8.0209,-8.0209,-8.0209,-8.0209,-8.0209,-8.0209,-8.0209,-8.0209,-8.0209,-8.0209,-8.0209,-8.0209,-8.0276,-8.0607,-8.0706,-8.1125,-8.2244,-8.2661,-8.35,-8.5123,-8.5619,-8.6138,-8.6925,-8.5298,-8.4463,-8.5238,-8.5086,-8.4939,-8.4939,-8.4719,-8.4609,-8.4609,-8.4609,-8.4609,-8.4609,-8.4609,-8.4315,-8.3765,-8.3765,-8.3471,-8.292,-8.292,-8.296,-4.6246,-4.9805,-5.1894,-5.1035,-4.6601,-4.1308,-3.7012,-3.1367,-2.6055,-2.2598,-2.1172,-2.0703,-2.1152,-2.1582,-2.2168,-2.3047,0.0,0.0,0.0,0.0,0.0,0.0,0.0,0.0,0.0,0.0,0.0,0.0,0.0,0.0,0.0,-6.2822,-6.2822,-6.2822,-6.2822,-6.372,-6.5687,-6.5844,-6.78,-7.1856,-7.1856,-7.2911,-7.4869,-7.4869,-7.4869,0.0,0.0,0.0,0.0,-7.4869,-7.4869,-7.4869,-7.4869,-7.4869,-7.4869,-7.4869,-7.4031,-7.316,-7.4702,-7.4408,-7.387,-7.686,-7.7882,-7.8238,-7.9734,-8.0175,-8.0209,-8.0209,-8.0209,-8.0209,-8.0209,-8.0209,-8.0209,-8.0209,-8.0209,-8.0209,-8.0209,-8.0209,-8.0209,-8.0209,-8.0209,-8.0542,-8.1723,-8.1875,-8.2244,-8.345,-8.4532,-8.5278,-8.5278,-8.632,-8.6995,-8.6995,-8.6995,-8.6995,-8.6995,-8.6261,-8.5783,-8.5783,-8.5049,-8.4609,-8.4609,-8.4609,-8.4609,-8.4609,-8.4609,-8.4609,-8.4609,-8.4609,-8.4572,-8.4572,-8.4572,-8.4879,-4.053,-4.2773,-4.3828,-4.2363,-3.9121,-3.5527,-3.2695,-2.8516,-2.4609,-2.2344,-2.1172,-2.0703,-2.1152,-2.1094,-2.1738,-2.4082,-2.4668,0.0,0.0,0.0,0.0,0.0,0.0,0.0,0.0,0.0,0.0,0.0,0.0,0.0,0.0,-6.2822,-6.2822,-6.2822,-6.4177,-6.5082,-6.5844,-6.8559,-7.0639,-7.1856,-7.3363,-7.4258,-7.4869,-7.4869,0.0,0.0,0.0,0.0,0.0,-7.4869,-7.4869,-7.4869,-7.4869,-7.4869,-7.5006,-7.6069,-7.5885,-7.5317,-7.6552,-7.6965,-7.7253,-7.7687,-7.8591,-7.9598,-8.0074,-8.0209,-8.0209,-8.0209,-8.0209,-8.0209,-8.0209,-8.0209,-8.0209,-8.0209,-8.0209,-8.0209,-8.0209,-8.0209,-8.0209,-8.0209,-8.077,-8.1474,-8.1816,-8.2571,-8.3415,-8.4613,-8.5045,-8.5544,-8.632,-8.6749,-8.6995,-8.6995,-8.6995,-8.6995,-8.6995,-8.6775,-8.6628,-8.6628,-8.6371,-8.6261,-8.6261,-8.6261,-8.6261,-8.6261,-8.6261,-8.5967,-8.5416,-8.5416,-8.5382,-8.5287,-8.5806,-8.6364,-3.582,-3.8418,-3.9726,-3.8476,-3.5664,-3.2656,-3.0664,-2.6953,-2.3555,-2.2168,-2.1172,-2.0644,-2.0937,-2.0898,-2.1484,-2.3535,0.0,0.0,0.0,0.0,0.0,0.0,0.0,0.0,0.0,0.0,0.0,0.0,0.0,0.0,0.0,-6.3584,-6.3882,-6.3882,-6.5082,-6.6156,-6.6906,-7.0199,-7.2314,-7.3052,-7.4258,-7.4869,-7.4869,-7.4869,-7.4869,0.0,0.0,0.0,0.0,-7.4869,-7.4869,-7.4869,-7.4869,-7.5248,-7.5966,-7.6931,-7.724,-7.7307,-7.8303,-7.8746,-7.8947,-7.8823,-7.9392,-8.0209,-8.0209,-8.0209,-8.0209,-8.0209,-8.0209,-8.0209,-8.0209,-8.0209,-8.0209,-8.0209,-8.0209,-8.0209,-8.0209,-8.0542,-8.0868,-8.0868,-8.1723,-8.2661,-8.3068,-8.3755,-8.4613,-8.5806,-8.5954,-8.6247,-8.6925,-8.6995,-8.6995,-8.6995,-8.6995,-8.6995,-8.6995,-8.6995,-8.6995,-8.6995,-8.6995,-8.6995,-8.6995,-8.6995,-8.6995,-8.6995,-8.6995,-8.6775,-8.6261,-8.6524,-8.6608,-8.6601,-8.7537,-8.8053,0.0,-3.5762,-3.8125,-3.7676,-3.4863,-3.1777,-3.0156,-2.6328,0.0,-2.2051,-2.1172,-2.0586,-2.0644,-2.0977,-2.1426,-2.2012,0.0,0.0,0.0,0.0,0.0,0.0,0.0,0.0,0.0,0.0,0.0,0.0,0.0,0.0,0.0,-6.479,-6.5844,-6.6,-6.6156,-6.7215,-6.9038,-7.1133,-7.3052,-7.4869,-7.4869,-7.4869,-7.4869,-7.4869,-7.4869,0.0,0.0,0.0,0.0,-7.4869,-7.5006,-7.5112,-7.5112,-7.6099,-7.7548,-7.7676,-7.8217,-7.9097,-8.0016,-7.9738,-7.9272,-7.997,-8.0209,-8.0209,-8.0209,-8.0209,-8.0209,-8.0209,-8.0209,-8.0209,-8.0209,-8.0209,-8.0209,-8.0209,-8.0209,-8.0175,-8.0276,-8.1125,-8.1875,-8.1968,-8.2928,-8.4041,-8.5123,-8.5391,-8.5806,-8.6929,-8.7031,-8.7031,-8.7105,-8.7031,-8.6995,-8.6995,-8.6995,-8.6995,-8.6995,-8.6995,-8.6995,-8.6995,-8.6995,-8.6995,-8.6995,-8.6995,-8.6995,-8.6995,-8.6995,-8.6995,-8.7064,-8.7836,-8.8227,-8.8249,-8.9573,-8.9778,-2.6211,0.0,-2.8711,-2.7949,-2.7051,-2.6191,0.0,-2.3945,-2.2519,-2.1992,0.0,0.0,-2.1445,-2.1387,0.0,0.0,0.0,0.0,0.0,0.0,0.0,0.0,0.0,0.0,0.0,0.0,0.0,0.0,0.0,0.0,0.0,-6.5556,-6.6441,-6.8132,-6.9607,-7.0667,-7.125,-7.3222,-7.4426,-7.4869,-7.4869,-7.4869,-7.4869,-7.4869,0.0,0.0,0.0,0.0,-7.4869,-7.4869,-7.5594,-7.67,-7.67,-7.7804,-7.9312,-8.0615,-8.0899,-8.0738,-8.2227,-8.1783,-8.0677,-8.031,-8.0209,-8.0209,-8.0209,-8.0209,-8.0209,-8.0209,-8.0209,-8.0209,-8.0209,-8.0209,-8.0209,-8.0209,-8.0209,-8.0442,-8.1283,-8.1723,-8.2152,-8.3016,-8.4124,-8.4967,-8.5278,-8.6064,-8.6862,-8.7839,-8.7399,-8.7215,-8.7839,-8.7399,-8.6995,-8.6995,-8.6995,-8.6995,-8.6995,-8.6995,-8.6995,-8.6995,-8.6995,-8.6995,-8.6995,-8.6995,-8.6995,-8.6995,-8.6995,-8.7298,-8.7836,-8.856,-8.9122,-8.9669,-9.0566,-9.0837,-2.3477,-2.4766,-2.5918,-2.5449,-2.5176,-2.4863,-2.4219,-2.3125,0.0,0.0,0.0,0.0,0.0,0.0,0.0,0.0,0.0,0.0,0.0,0.0,0.0,0.0,0.0,0.0,0.0,0.0,0.0,0.0,0.0,0.0,0.0,-6.6752,-6.8132,-7.0227,-7.2171,-7.277,-7.1856,-7.3812,-7.4869,-7.4869,-7.4869,-7.4869,-7.4869,-7.4869,-7.4869,0.0,0.0,0.0,-7.5006,-7.5728,-7.6568,-7.7419,-7.8186,-7.9404,-8.1003,-8.1853,-8.2453,-8.2753,-8.3274,-8.2509,-8.1156,-8.0445,-8.0209,-8.0209,-8.0209,-8.0209,-8.0209,-8.0209,-8.0209,-8.0209,-8.0209,-8.0209,-8.0209,-8.0209,-8.0641,-8.1125,-8.1816,-8.275,-8.367,-8.4289,-8.5278,-8.6064,-8.6064,-8.6571,-8.7142,-8.7582,-8.7582,-8.7729,-8.8133,-8.7839,-8.7545,-8.7545,-8.7215,-8.6995,-8.6995,-8.6995,-8.6995,-8.6995,-8.6995,-8.6995,-8.6995,-8.6995,-8.6995,-8.6995,-8.7328,-8.7709,-8.8107,-8.9122,-8.9763,-9.0116,-9.0876,-9.121,-2.2754,-2.4707,-2.6543,-2.5937,-2.5664,-2.5312,-2.4414,0.0,0.0,0.0,0.0,0.0,0.0,0.0,0.0,0.0,0.0,0.0,0.0,0.0,0.0,0.0,0.0,0.0,0.0,0.0,0.0,0.0,0.0,0.0,0.0,-6.8284,-7.0227,-7.2314,-7.3862,-7.3971,-7.2169,-7.3971,-7.4689,-7.4569,-7.4569,-7.4569,-7.4569,-7.4569,-7.4569,-7.4569,0.0,0.0,-7.5083,-7.6485,-7.7392,-7.7998,-7.9617,-8.1121,-8.2572,-8.2572,-8.3421,-8.4505,-8.3625,-8.2441,-8.1156,-8.0445,-8.0209,-8.0209,-8.0209,-8.0209,-8.0209,-8.0209,-8.0209,-8.0209,-8.0209,-8.0376,-8.0442,-8.0442,-8.1283,-8.2244,-8.2391,-8.3922,-8.5355,-8.5544,-8.632,-8.6995,-8.6995,-8.6995,-8.7031,-8.7178,-8.7655,-8.8096,-8.8353,-8.828,-8.8206,-8.8206,-8.7582,-8.7142,-8.7031,-8.6995,-8.6995,-8.6995,-8.6995,-8.6995,-8.6995,-8.6995,-8.7064,-8.7163,-8.7773,-8.819,-8.8426,-8.9573,-9.016,-9.0284,-9.0914,-9.121,-2.3828,-2.6016,-2.7207,-2.3926,-2.3867,-2.4394,-2.3535,0.0,0.0,0.0,0.0,0.0,0.0,0.0,0.0,0.0,0.0,0.0,0.0,0.0,0.0,0.0,0.0,0.0,0.0,0.0,0.0,0.0,0.0,0.0,0.0,-7.0374,-7.2314,-7.4426,-7.4194,-7.3895,-7.3593,-7.3895,-7.3762,-7.3223,-7.3223,-7.3223,-7.3223,-7.3223,-7.3223,0.0,0.0,-7.393,-7.5169,-7.6077,-7.8023,-8.0623,-8.1475,-8.2797,-8.4251,-8.4251,-8.4392,-8.4437,-8.305,-8.2002,-8.1156,-8.0445,-8.0209,-8.0209,-8.0209,-8.0209,-8.0209,-8.0209,-8.0209,-8.0209,-8.0209,-8.0868,-8.1629,-8.1629,-8.2481,-8.3585,-8.4613,-8.5045,-8.5544,-8.6571,-8.6856,-8.6995,-8.6995,-8.6995,-8.7252,-8.7912,-8.7545,-8.7692,-8.905,-8.861,-8.8206,-8.8206,-8.8096,-8.7729,-8.7068,-8.6995,-8.6995,-8.6995,-8.6995,-8.6995,-8.6995,-8.6995,-8.7261,-8.796,-8.8046,-8.8673,-8.9809,-8.999,-9.0447,-9.1026,-9.1136,-9.121,-2.2598,-2.4082,-2.5599,-2.5694,-2.7847,-2.9661,-2.8363,0.0,0.0,0.0,0.0,0.0,0.0,0.0,0.0,0.0,0.0,0.0,0.0,0.0,0.0,0.0,0.0,0.0,0.0,0.0,0.0,0.0,0.0,0.0,0.0,0.0,-7.277,-7.4869,-7.424,-7.3732,-7.3373,-7.2984,-7.2834,-7.2924,-7.2924,-7.2924,-7.2924,-7.2924,-7.2924,-7.2924,0.0,-7.4574,-7.5306,-7.7411,-7.9231,-8.0583,-8.1867,-8.2718,-8.349,-8.3862,-8.3761,-8.3321,-8.2644,-8.2171,-8.1697,-8.0581,-8.0479,-8.0716,-8.031,-8.0209,-8.0209,-8.0209,-8.0209,-8.0376,-8.0966,-8.1569,-8.206,-8.2661,-8.367,-8.4693,-8.5201,-8.5806,-8.6392,-8.6925,-8.6995,-8.6995,-8.6995,-8.6995,-8.7142,-8.7509,-8.7619,-8.7912,-8.8683,-8.8426,-8.8206,-8.8206,-8.7802,-8.7399,-8.7031,-8.6995,-8.6995,-8.6995,-8.6995,-8.6995,-8.6995,-8.6995,-8.7328,-8.8107,-8.8446,-8.9084,-9.0116,-9.0488,-9.0876,-9.121,-9.121,-9.121,-2.1992,-2.293,-2.4604,-2.7421,0.0,-3.2469,-3.3333,0.0,0.0,0.0,0.0,0.0,0.0,0.0,0.0,0.0,0.0,0.0,0.0,0.0,0.0,0.0,0.0,0.0,0.0,0.0,0.0,0.0,0.0,0.0,0.0,0.0,-7.3363,-7.4869,-7.4091,-7.3432,-7.2924,-7.2086,-7.1906,-7.2445,-7.2445,-7.2445,-7.2445,-7.2445,-7.2445,-7.2577,-7.4114,-7.4936,-7.5556,-7.8535,-8.0047,-8.0409,-8.1855,-8.2408,-8.2475,-8.305,-8.278,-8.2137,-8.2137,-8.2035,-8.1697,-8.0581,-8.0581,-8.0919,-8.0378,-8.0376,-8.0641,-8.0641,-8.0804,-8.1125,-8.1723,-8.23,-8.2928,-8.3755,-8.4888,-8.5731,-8.5731,-8.6392,-8.6995,-8.6995,-8.6995,-8.6995,-8.6995,-8.6995,-8.6995,-8.6995,-8.7509,-8.7986,-8.8169,-8.8206,-8.8206,-8.8206,-8.7655,-8.7215,-8.7031,-8.6995,-8.6995,-8.6995,-8.6995,-8.7064,-8.7231,-8.7298,-8.7646,-8.856,-8.9069,-8.9669,-9.0367,-9.0914,-9.121,-9.121,-9.121,-9.121,-2.3867,-2.5156,-2.6269,-2.6979,-2.6133,0.0,-3.564,-3.4454,0.0,-3.7196,0.0,0.0,0.0,0.0,0.0,0.0,0.0,0.0,0.0,0.0,0.0,0.0,0.0,0.0,0.0,0.0,0.0,0.0,0.0,0.0,0.0,0.0,0.0,-7.4869,-7.3642,-7.2954,-7.2924,-7.1637,-7.1009,-7.1038,-7.1038,-7.1038,-7.1038,-7.1038,-7.1038,-7.1168,-7.2703,-7.4236,-7.5771,-7.8042,-7.9968,-8.1324,-8.2137,-8.2408,-8.2408,-8.2475,-8.2002,-8.1359,-8.1359,-8.0919,-8.0344,-8.0242,-8.0242,-8.0276,-8.0209,-8.0966,-8.1816,-8.1816,-8.2571,-8.3103,-8.2152,-8.35,-8.5123,-8.5123,-8.6064,-8.6856,-8.6856,-8.6925,-8.6995,-8.6995,-8.6995,-8.6995,-8.6995,-8.6995,-8.6995,-8.6995,-8.7068,-8.7362,-8.8096,-8.8206,-8.8206,-8.8206,-8.8133,-8.7802,-8.7068,-8.6995,-8.6995,-8.6995,-8.6995,-8.7298,-8.7985,-8.7985,-8.8636,-8.9901,-8.999,-9.0367,-9.11,-9.1136,-9.121,-9.121,-9.121,-9.121,-2.2773,-2.525,-2.7923,-2.8557,-2.8869,0.0,0.0,-3.9499,-3.9616,-4.0624,-4.1981,0.0,0.0,0.0,0.0,0.0,0.0,0.0,0.0,0.0,0.0,0.0,0.0,0.0,0.0,0.0,0.0,0.0,0.0,0.0,0.0,0.0,0.0,-7.427,-7.3402,-7.2714,-7.2265,-7.1368,-7.0889,-7.0889,-7.0889,-7.0889,-7.0889,-7.1982,-7.2455,-7.255,-7.5115,-7.6491,-7.7226,-7.8996,-8.0138,-8.0648,-8.0919,-8.1021,-8.1088,-8.1528,-8.1257,-8.0682,-8.1122,-8.1088,-8.0784,-8.0344,-8.0513,-8.0784,-8.0344,-8.0966,-8.1875,-8.1875,-8.3242,-8.4532,-8.4088,-8.4693,-8.5468,-8.6174,-8.6679,-8.6995,-8.6995,-8.6995,-8.6995,-8.6995,-8.6995,-8.6995,-8.6995,-8.6995,-8.6995,-8.6995,-8.6995,-8.7105,-8.7435,-8.7472,-8.7472,-8.7472,-8.7472,-8.7325,-8.7031,-8.6995,-8.7163,-8.7683,-8.7231,-8.7328,-8.8046,-8.8107,-8.8691,-9.0073,-9.0116,-9.0488,-9.121,-9.121,-9.121,-9.121,-9.121,-9.121,-2.3499,-2.5602,-2.8386,0.0,0.0,0.0,-4.1213,-4.3428,-4.4539,-4.6248,-4.6849,0.0,0.0,0.0,0.0,0.0,0.0,0.0,0.0,0.0,0.0,0.0,0.0,0.0,0.0,0.0,0.0,0.0,0.0,0.0,0.0,0.0,0.0,0.0,-7.3253,-7.2595,-7.1906,-7.1248,-7.0889,-7.0889,-7.0889,-7.0889,-7.0889,-7.255,-7.3261,-7.3506,-7.6491,-7.7882,-7.799,-7.9598,-8.0209,-8.0209,-8.0209,-8.0209,-8.0242,-8.075,-8.0615,-8.0276,-8.0784,-8.0953,-8.0851,-8.0344,-8.0547,-8.0953,-8.0777,-8.1569,-8.2481,-8.2892,-8.437,-8.5806,-8.5806,-8.5806,-8.6064,-8.6819,-8.6995,-8.6995,-8.6995,-8.6995,-8.6995,-8.6995,-8.6995,-8.6995,-8.6995,-8.6995,-8.6995,-8.6995,-8.6995,-8.6995,-8.6995,-8.6995,-8.6995,-8.6995,-8.6995,-8.6995,-8.6995,-8.7231,-8.7554,-8.8046,-8.7799,-8.7948,-8.8691,-8.8691,-8.9276,-9.0447,-9.0447,-9.0723,-9.121,-9.121,-9.121,-9.121,-9.121,-9.121,-2.6743,-2.6619,0.0,0.0,0.0,0.0,-4.547,-4.5551,-4.595,-5.5085,0.0,0.0,0.0,0.0,0.0,0.0,0.0,0.0,0.0,0.0,0.0,0.0,0.0,0.0,0.0,0.0,0.0,0.0,0.0,0.0,0.0,0.0,0.0,0.0,-7.3253,-7.2595,-7.1876,-7.1218,-7.0889,-7.0889,-7.0889,-7.0889,-7.1018,-7.2519,-7.323,-7.3443,-7.6604,-7.7882,-7.799,-7.9598,-8.0209,-8.0209,-8.0209,-8.0209,-8.0209,-8.0209,-8.0209,-8.0209,-8.0209,-8.0209,-8.0209,-8.0209,-8.0209,-8.0442,-8.1535,-8.275,-8.3839,-8.4967,-8.6138,-8.6995,-8.6995,-8.6995,-8.6995,-8.6995,-8.6995,-8.6995,-8.6995,-8.6995,-8.6995,-8.6995,-8.6995,-8.6995,-8.6995,-8.6995,-8.6995,-8.6995,-8.6995,-8.6995,-8.6995,-8.6995,-8.6995,-8.6995,-8.6995,-8.6995,-8.6995,-8.7683,-8.8107,-8.8107,-8.8746,-8.9426,-9.0073,-9.0116,-9.0447,-9.121,-9.121,-9.121,-9.121,-9.121,-9.121,-9.121,-9.121,-9.121,-2.3539,0.0,0.0,0.0,0.0,0.0,0.0,-4.8724,0.0,0.0,0.0,0.0,0.0,0.0,0.0,0.0,0.0,0.0,0.0,0.0,0.0,0.0,0.0,0.0,0.0,0.0,0.0,0.0,0.0,0.0,0.0,0.0,0.0,0.0,-7.3013,-7.2355,-7.1218,-7.1009,-7.0679,-7.026,-7.1283,-7.2089,-7.2674,-7.4168,-7.5464,-7.6604,-7.8697,-7.9495,-7.9495,-7.9972,-8.0209,-8.0209,-8.0209,-8.0209,-8.0209,-8.0209,-8.0209,-8.0209,-8.0209,-8.0209,-8.0376,-8.1125,-8.1379,-8.1629,-8.275,-8.3839,-8.4852,-8.5201,-8.6138,-8.6995,-8.6995,-8.6995,-8.6995,-8.6995,-8.6995,-8.6995,-8.6995,-8.6995,-8.6995,-8.6995,-8.6995,-8.6995,-8.6995,-8.6995,-8.6995,-8.6995,-8.6995,-8.6995,-8.6995,-8.6995,-8.6995,-8.6995,-8.6995,-8.7231,-8.7709,-8.7985,-8.8503,-8.9476,-8.9716,-8.9901,-9.0116,-9.0116,-9.0447,-9.121,-9.121,-9.121,-9.121,-9.121,-9.121,-9.121,-9.121,-9.121,-2.7403,0.0,0.0,0.0,0.0,0.0,0.0,0.0,0.0,0.0,0.0,0.0,0.0,0.0,0.0,0.0,0.0,0.0,0.0,0.0,0.0,0.0,0.0,0.0,0.0,0.0,0.0,0.0,0.0,0.0,0.0,0.0,0.0,0.0,-7.2505,-7.1876,-7.056,-7.053,-7.0555,-7.0489,-7.1383,-7.262,-7.4288,-7.5491,-7.6711,-7.799,-7.9495,-8.0209,-8.0209,-8.0209,-8.0209,-8.0209,-8.0209,-8.0209,-8.0209,-8.0209,-8.0209,-8.0209,-8.0209,-8.0209,-8.0376,-8.1569,-8.1875,-8.2244,-8.3755,-8.4773,-8.5355,-8.588,-8.65,-8.6995,-8.6995,-8.6995,-8.6995,-8.6995,-8.6995,-8.6995,-8.6995,-8.6995,-8.6995,-8.6995,-8.6995,-8.6995,-8.6995,-8.6995,-8.6995,-8.6995,-8.6995,-8.6995,-8.6995,-8.6995,-8.6995,-8.6995,-8.7298,-8.7618,-8.8046,-8.8617,-8.9276,-9.0073,-9.0367,-9.0528,-9.0528,-9.0528,-9.0762,-9.121,-9.121,-9.121,-9.121,-9.121,-9.121,-9.121,-9.121,-9.121,0.0,0.0,0.0,0.0,0.0,0.0,0.0,0.0,0.0,0.0,0.0,0.0,0.0,0.0,0.0,0.0,0.0,0.0,0.0,0.0,0.0,0.0,0.0,0.0,0.0,0.0,0.0,0.0,0.0,0.0,0.0,0.0,0.0,-7.1936,-7.1876,-7.1278,-6.9991,-7.0089,-7.052,0.0,-7.136,-7.292,-7.5641,-7.6399,-7.7231,-7.8139,-7.9531,-8.0141,-8.0209,-8.0209,-8.0209,-8.0209,-8.0209,-8.0209,-8.0209,-8.0209,-8.0209,-8.0209,-8.0209,-8.0276,-8.0542,-8.1723,-8.2152,-8.2661,-8.4773,-8.5468,-8.5619,-8.6679,-8.6995,-8.6995,-8.6995,-8.6995,-8.6995,-8.6995,-8.6995,-8.6995,-8.6995,-8.6995,-8.6995,-8.6995,-8.6995,-8.6995,-8.6995,-8.6995,-8.6995,-8.6995,-8.6995,-8.6995,-8.6995,-8.6995,-8.6995,-8.6995,-8.7683,-8.8107,-8.8227,-8.9339,-9.0116,-9.0203,-9.0839,-9.121,-9.121,-9.121,-9.121,-9.121,-9.121,-9.121,-9.121,-9.121,-9.121,-9.121,-9.121,-9.121,0.0,0.0,0.0,0.0,0.0,0.0,0.0,0.0,0.0,0.0,0.0,0.0,0.0,0.0,0.0,0.0,0.0,0.0,0.0,0.0,0.0,0.0,0.0,0.0,0.0,0.0,0.0,0.0,0.0,0.0,0.0,0.0,0.0,-7.1906,-7.1876,-7.1278,-6.9991,-7.1103,-7.1167,0.0,-7.2746,-7.4188,-7.4917,-7.5641,-7.703,-7.8893,-7.9229,-7.9667,-8.0209,-8.0209,-8.0209,-8.0209,-8.0209,-8.0209,-8.0209,-8.0209,-8.0209,-8.0209,-8.0209,-8.0804,-8.1723,-8.2839,-8.3839,-8.4852,-8.6247,-8.6642,-8.6679,-8.6925,-8.6995,-8.6995,-8.6995,-8.6995,-8.6995,-8.6995,-8.6995,-8.6995,-8.6995,-8.6995,-8.6995,-8.6995,-8.6995,-8.6995,-8.6995,-8.6995,-8.6995,-8.6995,-8.6995,-8.6995,-8.6995,-8.6995,-8.6995,-8.6995,-8.7683,-8.8309,-8.8856,-8.9621,-9.0326,-9.0914,-9.11,-9.121,-9.121,-9.121,-9.121,-9.121,-9.121,-9.121,-9.121,-9.121,-9.121,-9.121,-9.121,-9.121,0.0,0.0,0.0,0.0,0.0,0.0,0.0,0.0,0.0,0.0,0.0,0.0,0.0,0.0,0.0,0.0,0.0,0.0,0.0,0.0,0.0,0.0,0.0,0.0,0.0,0.0,0.0,0.0,0.0,0.0,0.0,-7.2415,-7.2116,-7.1427,-7.1427,-7.1156,-7.0523,-7.129,-7.1737,-7.1822,-7.3331,-7.4434,-7.5239,-7.6341,-7.7413,-7.8585,-7.8585,-7.8788,-7.9126,-7.9126,-7.9126,-7.916,-7.9532,-7.9667,-7.9735,-8.0073,-8.0209,-8.0276,-8.077,-8.1379,-8.2152,-8.3839,-8.4773,-8.5544,-8.6679,-8.6995,-8.6995,-8.6995,-8.6995,-8.6995,-8.6995,-8.6995,-8.6995,-8.6995,-8.6995,-8.6995,-8.6995,-8.6995,-8.6995,-8.6995,-8.6995,-8.6995,-8.6995,-8.6995,-8.6995,-8.6995,-8.6995,-8.6995,-8.6995,-8.6995,-8.7132,-8.7526,-8.813,-8.8856,-8.9487,-9.0241,-9.0762,-9.1175,-9.121,-9.121,-9.121,-9.121,-9.121,-9.121,-9.121,-9.121,-9.121,-9.121,-9.121,-9.121,-9.121,-9.121,0.0,0.0,0.0,0.0,0.0,0.0,0.0,0.0,0.0,0.0,0.0,0.0,0.0,0.0,0.0,0.0,0.0,0.0,0.0,0.0,0.0,0.0,0.0,0.0,0.0,0.0,0.0,0.0,0.0,0.0,-7.1757,-7.1727,-7.1457,-7.0919,-7.0889,-7.0966,-7.1247,-7.1453,-7.2203,-7.3566,-7.3871,-7.4604,-7.5743,-7.7029,-7.7671,-7.7807,-7.7807,-7.7874,-7.7976,-7.7976,-7.7976,-7.8044,-7.8686,-7.8923,-7.9025,-7.9735,-8.0072,-8.0437,-8.15,-8.2152,-8.2839,-8.4693,-8.5468,-8.5806,-8.6749,-8.6995,-8.6995,-8.6995,-8.6995,-8.6995,-8.6995,-8.6995,-8.6995,-8.6995,-8.6995,-8.6995,-8.6995,-8.6995,-8.6995,-8.6995,-8.6995,-8.6995,-8.6995,-8.6995,-8.6995,-8.6995,-8.6995,-8.6995,-8.6995,-8.7132,-8.746,-8.8046,-8.8801,-8.9525,-9.0035,-9.0762,-9.121,-9.121,-9.121,-9.121,-9.121,-9.121,-9.121,-9.121,-9.121,-9.121,-9.121,-9.121,-9.121,-9.121,-9.121,-9.121,0.0,0.0,0.0,0.0,0.0,0.0,0.0,0.0,0.0,0.0,0.0,0.0,0.0,0.0,0.0,0.0,0.0,0.0,0.0,0.0,0.0,0.0,0.0,0.0,0.0,0.0,0.0,0.0,0.0,0.0,-7.1038,-7.1038,-7.0979,-7.0889,-7.0889,-7.0966,-7.1247,-7.2443,-7.3173,-7.3668,-7.4835,-7.5484,-7.5709,-7.5912,-7.6386,-7.7063,-7.7063,-7.7401,-7.7976,-7.7976,-7.7976,-7.801,-7.8111,-7.8145,-7.8247,-7.8991,-7.9849,-8.0859,-8.1667,-8.3155,-8.4852,-8.5201,-8.5991,-8.6819,-8.6925,-8.6995,-8.6995,-8.6995,-8.6995,-8.6995,-8.6995,-8.6995,-8.6995,-8.6995,-8.6995,-8.6995,-8.6995,-8.6995,-8.6995,-8.6995,-8.6995,-8.6995,-8.6995,-8.6995,-8.6995,-8.6995,-8.6995,-8.6995,-8.6995,-8.7554,-8.7985,-8.8107,-8.9187,-8.999,-9.0116,-9.0762,-9.121,-9.121,-9.121,-9.121,-9.121,-9.121,-9.121,-9.121,-9.121,-9.121,-9.121,-9.121,-9.121,-9.121,-9.121,-9.121,0.0,0.0,0.0,0.0,0.0,0.0,0.0,0.0,0.0,0.0,0.0,0.0,0.0,0.0,0.0,0.0,0.0,0.0,0.0,0.0,0.0,0.0,0.0,0.0,0.0,0.0,0.0,0.0,0.0,-7.0889,-7.0889,-7.059,-7.0735,-7.1499,-7.1258,-7.1769,-7.3003,-7.363,-7.4209,-7.4736,-7.5388,-7.5709,-7.5709,-7.5709,-7.5879,-7.6217,-7.6217,-7.642,-7.669,-7.669,-7.669,-7.6758,-7.7198,-7.7367,-7.7566,-7.8886,-7.9993,-8.0914,-8.2058,-8.3701,-8.5319,-8.5519,-8.6206,-8.6995,-8.6995,-8.6995,-8.6995,-8.6995,-8.6995,-8.6995,-8.6995,-8.6995,-8.6995,-8.6995,-8.6995,-8.6995,-8.6995,-8.6995,-8.6995,-8.6995,-8.6995,-8.6995,-8.6995,-8.6995,-8.6995,-8.6995,-8.6995,-8.7163,-8.7554,-8.7898,-8.8426,-8.9173,-8.9763,-9.0284,-9.0646,-9.1026,-9.121,-9.121,-9.121,-9.121,-9.121,-9.121,-9.121,-9.121,-9.121,-9.121,-9.121,-9.121,-9.121,-9.121,-9.121,-9.121,0.0,0.0,0.0,0.0,0.0,0.0,0.0,0.0,0.0,0.0,0.0,0.0,0.0,0.0,0.0,0.0,0.0,0.0,0.0,0.0,0.0,0.0,0.0,0.0,0.0,0.0,0.0,0.0,0.0,-7.041,-7.041,-6.9991,-7.0421,-7.187,-7.1495,-7.2243,-7.4516,-7.4662,-7.5139,-7.5709,-7.5709,-7.5709,-7.5709,-7.5709,-7.5709,-7.5709,-7.5709,-7.5709,-7.5709,-7.5709,-7.5709,-7.5743,-7.6352,-7.6589,-7.6849,-7.8684,-7.9872,-8.0911,-8.2392,-8.3877,-8.519,-8.5431,-8.5894,-8.6444,-8.6628,-8.6701,-8.6738,-8.6958,-8.6995,-8.6995,-8.6995,-8.6995,-8.6995,-8.6995,-8.6995,-8.6995,-8.6995,-8.6995,-8.6995,-8.6995,-8.6995,-8.6995,-8.6995,-8.6995,-8.6995,-8.6995,-8.7163,-8.7526,-8.8046,-8.8426,-8.9016,-8.999,-9.0284,-9.0606,-9.1136,-9.121,-9.121,-9.121,-9.121,-9.121,-9.121,-9.121,-9.121,-9.121,-9.121,-9.121,-9.121,-9.121,-9.121,-9.121,-9.121,-9.121,0.0,0.0,0.0,0.0,0.0,0.0,0.0,0.0,0.0,0.0,0.0,0.0,0.0,0.0,0.0,0.0,0.0,0.0,0.0,0.0,0.0,0.0,0.0,0.0,0.0,0.0,0.0,0.0,0.0,-6.9093,-6.9093,-6.9064,-6.9725,-7.1158,-7.1247,-7.2243,-7.4516,-7.5236,-7.5648,-7.5709,-7.5709,-7.5709,-7.5709,-7.5709,-7.5709,-7.5709,-7.5709,-7.5709,-7.5709,-7.5709,-7.5709,-7.5709,-7.5743,-7.5743,-7.6035,-7.7857,-7.925,-8.0445,-8.2265,-8.3665,-8.4651,-8.4682,-8.4682,-8.4866,-8.5637,-8.5857,-8.6004,-8.6811,-8.6995,-8.6995,-8.6995,-8.6995,-8.6995,-8.6995,-8.6995,-8.6995,-8.6995,-8.6995,-8.6995,-8.6995,-8.6995,-8.6995,-8.6995,-8.6995,-8.6995,-8.6995,-8.7618,-8.8046,-8.8107,-8.9187,-8.999,-9.0116,-9.0723,-9.1136,-9.121,-9.121,-9.121,-9.121,-9.121,-9.121,-9.121,-9.121,-9.121,-9.121,-9.121,-9.121,-9.121,-9.121,-9.121,-9.121,-9.121,-9.121,0.0,0.0,0.0,0.0,0.0,0.0,0.0,0.0,0.0,0.0,0.0,0.0,0.0,0.0,0.0,0.0,0.0,0.0,0.0,0.0,0.0,0.0,0.0,0.0,0.0,0.0,0.0,0.0,0.0,0.0,-6.9004,-6.9488,-7.0478,-7.1926,-7.249,-7.3534,-7.5236,-7.5523,-7.5709,-7.5709,-7.5709,-7.5439,-7.4999,-7.5473,-7.5439,-7.5033,-7.5506,-7.5709,-7.5709,-7.5709,-7.5709,-7.5771,-7.6416,-7.6747,-7.6961,-7.9058,-8.0441,-8.1331,-8.2175,-8.3386,-8.4499,-8.4022,-8.4168,-8.4646,-8.4939,-8.538,-8.5857,-8.6151,-8.6591,-8.6995,-8.6995,-8.6995,-8.6995,-8.6995,-8.6995,-8.6995,-8.6995,-8.6995,-8.6995,-8.6995,-8.6995,-8.6995,-8.6995,-8.6995,-8.7163,-8.7618,-8.796,-8.8388,-8.9238,-8.9809,-9.0284,-9.0762,-9.1026,-9.121,-9.121,-9.121,-9.121,-9.121,-9.121,-9.121,-9.121,-9.121,-9.121,-9.121,-9.121,-9.121,-9.121,-9.121,-9.121,-9.121,-9.121,-9.121,-2.1582,0.0,0.0,0.0,0.0,0.0,0.0,0.0,0.0,0.0,0.0,0.0,0.0,0.0,0.0,0.0,0.0,0.0,0.0,0.0,0.0,0.0,0.0,0.0,0.0,0.0,0.0,0.0,0.0,0.0,-6.8999,-6.9571,-7.0777,-7.2778,-7.3797,-7.4736,-7.5709,-7.5709,-7.5709,-7.5709,-7.5709,-7.5439,-7.4999,-7.5236,-7.5202,-7.4999,-7.5236,-7.5473,-7.5709,-7.5709,-7.596,-7.6266,-7.6982,-7.7563,-7.8077,-7.9956,-8.0948,-8.1455,-8.1965,-8.2884,-8.3728,-8.3177,-8.3361,-8.3838,-8.4132,-8.4572,-8.5123,-8.5637,-8.6187,-8.6664,-8.6921,-8.6995,-8.6995,-8.6995,-8.6995,-8.6995,-8.6995,-8.6995,-8.6995,-8.6995,-8.6995,-8.6995,-8.6995,-8.7231,-8.7554,-8.8046,-8.8503,-8.9122,-8.999,-9.0326,-9.0646,-9.1136,-9.121,-9.121,-9.121,-9.121,-9.121,-9.121,-9.121,-9.121,-9.121,-9.121,-9.121,-9.121,-9.121,-9.121,-9.121,-9.121,-9.121,-9.121,-9.121,-9.1248,0.0,0.0,0.0,0.0,0.0,0.0,0.0,0.0,0.0,0.0,0.0,0.0,0.0,0.0,0.0,0.0,0.0,0.0,0.0,0.0,0.0,0.0,0.0,0.0,0.0,0.0,0.0,0.0,0.0,-6.7638,-6.9085,-6.9317,-7.0616,-7.3599,-7.4966,-7.5709,-7.5709,-7.5709,-7.5709,-7.5709,-7.5709,-7.5676,-7.5642,-7.4965,-7.4999,-7.5642,-7.4897,-7.5093,-7.5737,-7.5771,-7.6324,-7.7301,-7.7389,-7.8077,-7.9143,-8.0292,-8.0695,-8.0768,-8.1885,-8.2186,-8.2186,-8.2186,-8.2186,-8.2333,-8.3141,-8.3398,-8.3728,-8.527,-8.5747,-8.5967,-8.6811,-8.6995,-8.6995,-8.6995,-8.6995,-8.6995,-8.6995,-8.6995,-8.6995,-8.6995,-8.6995,-8.7031,-8.6995,-8.7618,-8.8107,-8.8167,-8.9276,-9.0116,-9.0116,-9.0762,-9.121,-9.121,-9.121,-9.121,-9.121,-9.121,-9.121,-9.121,-9.121,-9.121,-9.121,-9.121,-9.121,-9.121,-9.121,-9.121,-9.121,-9.121,-9.121,-9.121,-9.121,-9.1325,-1.815,0.0,0.0,0.0,0.0,0.0,0.0,0.0,0.0,0.0,0.0,0.0,0.0,0.0,0.0,0.0,0.0,0.0,0.0,0.0,0.0,0.0,0.0,0.0,0.0,0.0,0.0,0.0,-6.7998,-6.8766,-6.9201,-7.1278,-7.3225,-7.5064,-7.5484,-7.5709,-7.5709,-7.5709,-7.5709,-7.5709,-7.5709,-7.5439,-7.4931,-7.5236,-7.5236,-7.4897,-7.5481,-7.5805,-7.6045,-7.6596,-7.7164,-7.7802,-7.9167,-7.988,-8.0292,-8.1405,-8.1782,-8.1782,-8.2121,-8.2186,-8.2186,-8.2186,-8.2186,-8.2223,-8.2443,-8.2957,-8.3508,-8.3948,-8.4903,-8.5967,-8.6811,-8.6995,-8.6995,-8.6995,-8.6995,-8.6995,-8.6995,-8.6995,-8.6995,-8.6995,-8.6995,-8.7163,-8.7709,-8.7923,-8.8388,-8.9389,-8.9855,-9.0284,-9.0839,-9.11,-9.121,-9.121,-9.121,-9.121,-9.121,-9.121,-9.121,-9.121,-9.121,-9.121,-9.121,-9.121,-9.121,-9.121,-9.121,-9.121,-9.121,-9.121,-9.121,-9.121,-9.1364,-9.1633,-1.9462,-2.173,0.0,0.0,0.0,0.0,0.0,0.0,0.0,0.0,0.0,0.0,0.0,0.0,0.0,0.0,0.0,0.0,0.0,0.0,0.0,0.0,0.0,0.0,0.0,0.0,0.0,-6.7029,-6.7788,-6.8901,-6.9949,-7.2306,-7.3931,-7.4762,-7.4762,-7.4931,-7.5236,-7.5236,-7.5405,-7.5709,-7.5709,-7.5303,-7.4627,-7.4728,-7.4728,-7.4653,-7.5048,-7.5566,-7.6349,-7.7333,-7.7823,-7.8155,-7.9575,-8.0333,-8.0863,-8.1842,-8.2186,-8.2186,-8.2186,-8.2186,-8.2186,-8.2186,-8.2186,-8.2186,-8.2186,-8.2517,-8.2994,-8.3324,-8.4572,-8.5894,-8.6371,-8.6775,-8.6995,-8.6995,-8.7231,-8.746,-8.746,-8.7709,-8.7799,-8.7489,-8.746,-8.7646,-8.8388,-8.8746,-8.9225,-8.999,-9.0367,-9.0723,-9.1136,-9.121,-9.121,-9.121,-9.121,-9.121,-9.121,-9.121,-9.121,-9.121,-9.121,-9.121,-9.121,-9.121,-9.121,-9.121,-9.121,-9.121,-9.121,-9.121,-9.1248,-9.1325,-9.1561,-9.1879,-2.1595,-2.3412,-2.6113,0.0,0.0,0.0,-3.5253,-3.6006,0.0,0.0,0.0,0.0,0.0,0.0,0.0,0.0,0.0,0.0,0.0,0.0,0.0,0.0,0.0,0.0,0.0,-6.5024,-6.5555,-6.7043,-6.7349,-6.8743,-7.1392,-7.2753,-7.3477,-7.3477,-7.3477,-7.3815,-7.4492,-7.4492,-7.483,-7.5473,-7.554,-7.5202,-7.4458,-7.3883,-7.4009,-7.4636,-7.4223,-7.4997,-7.6624,-7.7667,-7.8165,-7.8345,-7.9141,-8.0062,-8.1085,-8.1782,-8.2113,-8.2186,-8.2186,-8.2186,-8.2186,-8.2186,-8.2186,-8.2186,-8.2186,-8.2186,-8.237,-8.3177,-8.4425,-8.5527,-8.5637,-8.6255,-8.6875,-8.6948,-8.7535,-8.8078,-8.819,-8.8636,-8.8963,-8.8388,-8.8249,-8.8388,-8.9122,-8.9716,-9.0116,-9.0203,-9.0762,-9.121,-9.121,-9.121,-9.121,-9.121,-9.121,-9.121,-9.121,-9.121,-9.121,-9.121,-9.121,-9.121,-9.121,-9.121,-9.121,-9.121,-9.121,-9.121,-9.121,-9.121,-9.1325,-9.1553,-9.1835,-9.2053,-2.3804,-2.4992,-2.6816,-2.6239,0.0,0.0,0.0,-2.895,0.0,0.0,0.0,0.0,0.0,0.0,0.0,0.0,0.0,0.0,0.0,0.0,0.0,0.0,0.0,0.0,0.0,-6.5024,-6.5555,-6.7043,-6.917,-7.1259,-7.2976,-7.3384,-7.3477,-7.3477,-7.3477,-7.3544,-7.3713,-7.3713,-7.3781,-7.3916,-7.4525,-7.4424,-7.3713,-7.4187,-7.4639,-7.4912,-7.5078,-7.5743,-7.684,-7.7291,-7.7897,-7.8592,-7.9397,-8.0259,-8.1012,-8.1195,-8.1636,-8.2186,-8.2186,-8.2186,-8.2186,-8.2186,-8.2186,-8.2186,-8.2186,-8.2186,-8.237,-8.3177,-8.3654,-8.4022,-8.4682,-8.5355,-8.6078,-8.6747,-8.7378,-8.8028,-8.8759,-8.9016,-8.9187,-8.9621,-8.9238,-8.9122,-8.9809,-8.999,-9.0326,-9.0876,-9.11,-9.121,-9.121,-9.121,-9.121,-9.121,-9.121,-9.121,-9.121,-9.121,-9.121,-9.121,-9.121,-9.121,-9.121,-9.121,-9.121,-9.121,-9.121,-9.121,-9.121,-9.1364,-9.1556,-9.1861,-9.2029,-9.2254,-2.6159,-2.6602,-2.8047,-2.777,0.0,0.0,0.0,0.0,0.0,0.0,0.0,0.0,0.0,0.0,0.0,0.0,0.0,0.0,0.0,0.0,0.0,0.0,0.0,0.0,0.0,-6.3558,-6.4539,-6.6946,-6.9679,-7.1587,-7.2394,-7.2394,-7.2394,-7.2394,-7.2394,-7.2563,-7.2935,-7.2935,-7.3138,-7.3477,-7.351,-7.351,-7.3477,-7.4048,-7.46,-7.5049,-7.6264,-7.7128,-7.7555,-7.7843,-7.8222,-7.8626,-7.9029,-7.9433,-7.991,-8.0718,-8.1269,-8.1672,-8.2039,-8.2186,-8.2186,-8.2186,-8.2186,-8.2186,-8.2186,-8.2186,-8.226,-8.27,-8.3355,-8.4003,-8.441,-8.5291,-8.6199,-8.6667,-8.7235,-8.7905,-8.8824,-8.9246,-8.9745,-9.053,-9.0364,-9.0241,-9.0606,-9.0646,-9.0762,-9.1136,-9.121,-9.121,-9.121,-9.121,-9.121,-9.121,-9.121,-9.121,-9.121,-9.121,-9.121,-9.121,-9.121,-9.121,-9.121,-9.121,-9.121,-9.121,-9.121,-9.1056,-9.0748,-9.0979,-9.1136,-9.1256,-9.1066,-9.109,0.0,0.0,0.0,0.0,0.0,-2.7846,0.0,0.0,0.0,0.0,0.0,0.0,0.0,0.0,0.0,0.0,0.0,0.0,0.0,0.0,0.0,0.0,0.0,0.0,0.0,-6.0655,-6.2441,-6.6448,-6.822,-6.9693,-7.1041,-7.1244,-7.1312,-7.1312,-7.1312,-7.1616,-7.2191,-7.2191,-7.2496,-7.3071,-7.2631,-7.2722,-7.3368,-7.3981,-7.4608,-7.5475,-7.7411,-7.8345,-7.8484,-7.8528,-7.8589,-7.8589,-7.8405,-7.8442,-7.8772,-8.0057,-8.0718,-8.1085,-8.1746,-8.2076,-8.2186,-8.2186,-8.2186,-8.2186,-8.2186,-8.2186,-8.2186,-8.2186,-8.3189,-8.4195,-8.4195,-8.5221,-8.6366,-8.6517,-8.7072,-8.7804,-8.8641,-8.942,-9.0133,-9.0825,-9.1095,-9.121,-9.121,-9.121,-9.121,-9.121,-9.121,-9.121,-9.121,-9.121,-9.121,-9.121,-9.121,-9.121,-9.121,-9.121,-9.121,-9.121,-9.121,-9.121,-9.121,-9.121,-9.121,-9.121,-9.1095,-9.0787,-9.029,-9.0213,-9.0265,-9.0418,-8.9966,-8.9856,0.0,0.0,0.0,0.0,-3.1386,0.0,0.0,0.0,0.0,0.0,0.0,0.0,0.0,0.0,0.0,0.0,0.0,0.0,0.0,0.0,0.0,0.0,0.0,0.0,0.0,0.0,-5.8443,-6.4889,-6.2834,-6.3995,-6.9972,-7.0939,-7.1312,-7.1312,-7.1312,-7.1345,-7.1447,-7.1447,-7.1481,-7.1582,-7.2124,-7.256,-7.2942,-7.4356,-7.56,-7.684,-7.7773,-7.8727,-7.9563,-7.8856,-7.8589,-7.8516,-7.7781,-7.7928,-7.8626,-7.8809,-7.9764,-8.1012,-8.1122,-8.1599,-8.2186,-8.2186,-8.2186,-8.2186,-8.2186,-8.2186,-8.2186,-8.2186,-8.2782,-8.3338,-8.3338,-8.4318,-8.5452,-8.6257,-8.693,-8.7679,-8.8525,-8.9329,-8.994,-9.0056,-9.0671,-9.121,-9.121,-9.121,-9.121,-9.121,-9.121,-9.121,-9.121,-9.121,-9.121,-9.121,-9.121,-9.121,-9.121,-9.121,-9.121,-9.121,-9.121,-9.121,-9.121,-9.121,-9.121,-9.121,-9.0636,-9.0367,-9.029,-8.9178,-8.9056,-8.9806,-8.9911,-8.9992,0.0,0.0,0.0,0.0,0.0,0.0,-2.872,0.0,-2.6992,0.0,0.0,0.0,0.0,0.0,0.0,0.0,0.0,0.0,0.0,0.0,0.0,0.0,0.0,0.0,0.0,0.0,0.0,0.0,0.0,-6.4355,-6.8064,-6.9789,-7.0669,-7.0669,-7.1075,-7.1312,-7.1312,-7.1312,-7.1312,-7.1312,-7.1176,-7.1932,-7.3455,-7.4286,-7.5773,-7.7772,-7.9194,-8.01,-8.0461,-8.0131,-7.9727,-7.9213,-7.8369,-7.7965,-7.7928,-7.8405,-7.9029,-7.9727,-8.0681,-8.1232,-8.1562,-8.2039,-8.2186,-8.2186,-8.2186,-8.2186,-8.2316,-8.2708,-8.3246,-8.3824,-8.419,-8.4995,-8.5741,-8.6161,-8.6457,-8.6863,-8.7748,-8.8209,-8.8594,-8.9094,-8.9902,-9.0441,-9.0441,-9.0864,-9.121,-9.121,-9.121,-9.121,-9.121,-9.121,-9.121,-9.121,-9.121,-9.121,-9.121,-9.121,-9.121,-9.121,-9.121,-9.121,-9.121,-9.121,-9.1056,-9.0675,-9.0406,-8.9944,-8.9178,-8.8679,-8.8413,-8.8444,-8.8529,-8.8554,-3.5047,0.0,0.0,0.0,0.0,0.0,0.0,0.0,0.0,0.0,0.0,0.0,0.0,0.0,0.0,0.0,0.0,0.0,0.0,0.0,0.0,0.0,0.0,0.0,0.0,0.0,0.0,0.0,0.0,-6.2603,-6.6339,-6.8267,-6.9553,-7.0161,-7.0737,-7.1109,-7.1312,-7.1312,-7.1312,-7.1312,-7.1056,-7.2038,-7.4054,-7.477,-7.6267,-7.8441,-8.0239,-8.1012,-8.1012,-8.1012,-8.0534,-7.969,-7.8919,-7.8075,-7.7414,-7.8002,-7.8405,-7.8772,-7.9947,-8.0645,-8.1122,-8.1929,-8.2186,-8.2251,-8.2407,-8.2497,-8.2585,-8.3303,-8.3928,-8.456,-8.4995,-8.5589,-8.6094,-8.6094,-8.6094,-8.6286,-8.6901,-8.7209,-8.7594,-8.8209,-8.9017,-8.9556,-8.9556,-9.0479,-9.121,-9.121,-9.121,-9.121,-9.121,-9.121,-9.121,-9.121,-9.121,-9.121,-9.121,-9.121,-9.121,-9.121,-9.121,-9.121,-9.121,-9.1056,-9.0748,-9.029,-8.9983,-8.9294,-8.8375,-8.8221,-8.795,-8.7487,-8.7503,-8.75,0.0,0.0,0.0,-3.2657,0.0,0.0,0.0,0.0,-2.9352,0.0,0.0,0.0,0.0,0.0,0.0,-2.7419,0.0,0.0,0.0,0.0,0.0,0.0,0.0,0.0,0.0,0.0,0.0,0.0,-5.2909,0.0,-6.5208,-6.6474,-6.7929,-7.0128,-7.0195,-7.0567,-7.1312,-7.1312,-7.1312,-7.1312,-7.2244,-7.3252,-7.4381,-7.6123,-7.7528,-7.8636,-8.0314,-8.1012,-8.1012,-8.1012,-8.0534,-7.969,-7.8919,-7.8075,-7.7304,-7.7341,-7.7892,-7.8589,-7.8662,-7.969,-8.1122,-8.1929,-8.2186,-8.2343,-8.2994,-8.3189,-8.3303,-8.3979,-8.4605,-8.5079,-8.5121,-8.5589,-8.6094,-8.6094,-8.6094,-8.6094,-8.6132,-8.6786,-8.7401,-8.744,-8.8132,-8.8748,-8.8748,-9.0094,-9.121,-9.121,-9.121,-9.121,-9.121,-9.121,-9.121,-9.121,-9.121,-9.121,-9.121,-9.121,-9.121,-9.121,-9.121,-9.121,-9.121,-9.0636,-9.0329,-9.029,-8.9102,-8.8413,-8.8375,-8.7798,-8.7507,-8.7498,-8.75,-8.75,0.0,0.0,-4.9493,-3.9285,0.0,0.0,0.0,0.0,0.0,0.0,0.0,0.0,0.0,0.0,0.0,-2.7946,0.0,0.0,0.0,0.0,0.0,0.0,0.0,0.0,0.0,0.0,0.0,-5.1109,-5.3544,-5.7204,0.0,-6.4884,-6.6643,-6.7929,-6.9417,-7.0297,-7.0567,-7.1075,-7.16,-7.2279,-7.2666,-7.3694,-7.5299,-7.5937,-7.7056,-7.8626,-7.9176,-8.0021,-8.0975,-8.0424,-8.0021,-7.969,-7.8919,-7.8075,-7.7304,-7.7304,-7.7524,-7.7818,-7.8405,-7.9286,-8.0351,-8.1122,-8.1723,-8.2208,-8.2983,-8.3488,-8.3979,-8.4651,-8.4915,-8.5202,-8.5664,-8.5919,-8.6094,-8.6094,-8.6094,-8.6094,-8.6094,-8.6324,-8.6555,-8.6555,-8.7248,-8.7825,-8.7825,-8.8786,-8.971,-9.0248,-9.0364,-9.0556,-9.1133,-9.121,-9.121,-9.121,-9.121,-9.121,-9.121,-9.121,-9.0941,-9.0402,-9.0364,-9.0171,-8.9787,-8.9521,-8.9329,-8.9063,-8.864,-8.8207,-8.7804,-8.761,-8.7503,-8.75,-8.75,-8.75,-5.1404,-5.3848,0.0,-4.526,-4.4601,0.0,-3.3966,0.0,0.0,0.0,0.0,0.0,0.0,0.0,0.0,-3.0598,-2.8813,0.0,0.0,0.0,0.0,0.0,0.0,0.0,0.0,0.0,-4.493,-4.9044,-5.1622,-5.5069,0.0,0.0,-6.5087,-6.6373,-6.8335,-6.9654,-7.0195,-7.0669,-7.1557,-7.2797,-7.3171,-7.4234,-7.5787,-7.6197,-7.702,-7.8148,-7.8148,-7.8919,-8.0094,-7.925,-7.9103,-7.9286,-7.8479,-7.7818,-7.7304,-7.7304,-7.7304,-7.7451,-7.8295,-7.8919,-7.9533,-8.0555,-8.1222,-8.1811,-8.3044,-8.3726,-8.4271,-8.5204,-8.5475,-8.5551,-8.5988,-8.6094,-8.6094,-8.6094,-8.6094,-8.6094,-8.6094,-8.6094,-8.6094,-8.6094,-8.6555,-8.694,-8.694,-8.7401,-8.8171,-8.9286,-8.9479,-8.9671,-9.0248,-9.0325,-9.0325,-9.0325,-9.0325,-9.0325,-9.0325,-9.0325,-9.0056,-8.9517,-8.9556,-8.944,-8.9021,-8.8867,-8.864,-8.8413,-8.8196,-8.7892,-8.75,-8.75,-8.75,-8.75,-8.75,-8.75]}]]